<?xml version="1.0" encoding="UTF-8" standalone="no" ?>
<gpx xmlns="http://www.topografix.com/GPX/1/1" xmlns:xsi="http://www.w3.org/2001/XMLSchema-instance" xsi:schemaLocation="http://www.topografix.com/GPX/1/1 http://www.topografix.com/GPX/1/1/gpx.xsd" version="1.1" creator="VisuGPX - https://www.visugpx.com">
  <metadata>
    <name>sortie dynamots du 17 10 21 la montagne rouans cheix en retz</name>
  </metadata>
  <trk>
    <name><![CDATA[2021-10-17 18:49:53]]></name>
    <trkseg>
      <trkpt lat="47.19291" lon="-1.69489">
        <ele>-43.6</ele>
        <time>2021-10-17T08:10:33Z</time>
      </trkpt>
      <trkpt lat="47.19291" lon="-1.69487">
        <ele>-39.28</ele>
        <time>2021-10-17T08:10:42Z</time>
      </trkpt>
      <trkpt lat="47.19291" lon="-1.69486">
        <ele>-35.91</ele>
        <time>2021-10-17T08:10:45Z</time>
      </trkpt>
      <trkpt lat="47.19291" lon="-1.69485">
        <ele>-32.55</ele>
        <time>2021-10-17T08:10:48Z</time>
      </trkpt>
      <trkpt lat="47.19291" lon="-1.69485">
        <ele>-29.66</ele>
        <time>2021-10-17T08:10:51Z</time>
      </trkpt>
      <trkpt lat="47.1929" lon="-1.69486">
        <ele>-25.82</ele>
        <time>2021-10-17T08:10:55Z</time>
      </trkpt>
      <trkpt lat="47.1929" lon="-1.69486">
        <ele>-22.45</ele>
        <time>2021-10-17T08:10:59Z</time>
      </trkpt>
      <trkpt lat="47.19289" lon="-1.69486">
        <ele>-21.01</ele>
        <time>2021-10-17T08:11:01Z</time>
      </trkpt>
      <trkpt lat="47.19289" lon="-1.69487">
        <ele>-17.65</ele>
        <time>2021-10-17T08:11:06Z</time>
      </trkpt>
      <trkpt lat="47.19288" lon="-1.69487">
        <ele>-14.76</ele>
        <time>2021-10-17T08:11:13Z</time>
      </trkpt>
      <trkpt lat="47.19289" lon="-1.69489">
        <ele>-11.4</ele>
        <time>2021-10-17T08:11:22Z</time>
      </trkpt>
      <trkpt lat="47.19286" lon="-1.69491">
        <ele>-8.51</ele>
        <time>2021-10-17T08:11:35Z</time>
      </trkpt>
      <trkpt lat="47.19285" lon="-1.69494">
        <ele>-6.11</ele>
        <time>2021-10-17T08:12:03Z</time>
      </trkpt>
      <trkpt lat="47.19286" lon="-1.69488">
        <ele>-5.63</ele>
        <time>2021-10-17T08:12:28Z</time>
      </trkpt>
      <trkpt lat="47.19286" lon="-1.69489">
        <ele>-5.15</ele>
        <time>2021-10-17T08:12:53Z</time>
      </trkpt>
      <trkpt lat="47.19287" lon="-1.69489">
        <ele>-5.15</ele>
        <time>2021-10-17T08:13:16Z</time>
      </trkpt>
      <trkpt lat="47.19287" lon="-1.69489">
        <ele>-5.15</ele>
        <time>2021-10-17T08:13:55Z</time>
      </trkpt>
      <trkpt lat="47.19285" lon="-1.69483">
        <ele>-4.67</ele>
        <time>2021-10-17T08:14:23Z</time>
      </trkpt>
      <trkpt lat="47.19283" lon="-1.69486">
        <ele>-4.67</ele>
        <time>2021-10-17T08:14:59Z</time>
      </trkpt>
      <trkpt lat="47.19282" lon="-1.69484">
        <ele>-4.19</ele>
        <time>2021-10-17T08:15:37Z</time>
      </trkpt>
      <trkpt lat="47.19285" lon="-1.69485">
        <ele>-4.19</ele>
        <time>2021-10-17T08:16:09Z</time>
      </trkpt>
      <trkpt lat="47.19287" lon="-1.69491">
        <ele>-3.71</ele>
        <time>2021-10-17T08:16:44Z</time>
      </trkpt>
      <trkpt lat="47.19285" lon="-1.69487">
        <ele>-3.71</ele>
        <time>2021-10-17T08:17:06Z</time>
      </trkpt>
      <trkpt lat="47.19285" lon="-1.69493">
        <ele>-3.23</ele>
        <time>2021-10-17T08:17:23Z</time>
      </trkpt>
      <trkpt lat="47.19281" lon="-1.695">
        <ele>-3.23</ele>
        <time>2021-10-17T08:17:52Z</time>
      </trkpt>
      <trkpt lat="47.19283" lon="-1.69494">
        <ele>-2.75</ele>
        <time>2021-10-17T08:18:07Z</time>
      </trkpt>
      <trkpt lat="47.19279" lon="-1.69494">
        <ele>-2.75</ele>
        <time>2021-10-17T08:18:37Z</time>
      </trkpt>
      <trkpt lat="47.19274" lon="-1.6949">
        <ele>-2.75</ele>
        <time>2021-10-17T08:18:52Z</time>
      </trkpt>
      <trkpt lat="47.19274" lon="-1.69489">
        <ele>-4.19</ele>
        <time>2021-10-17T08:18:54Z</time>
      </trkpt>
      <trkpt lat="47.19278" lon="-1.69483">
        <ele>-4.19</ele>
        <time>2021-10-17T08:19:03Z</time>
      </trkpt>
      <trkpt lat="47.19297" lon="-1.69463">
        <ele>-3.71</ele>
        <time>2021-10-17T08:19:17Z</time>
      </trkpt>
      <trkpt lat="47.19303" lon="-1.69468">
        <ele>-3.71</ele>
        <time>2021-10-17T08:19:22Z</time>
      </trkpt>
      <trkpt lat="47.19311" lon="-1.69471">
        <ele>-3.71</ele>
        <time>2021-10-17T08:19:29Z</time>
      </trkpt>
      <trkpt lat="47.19318" lon="-1.69474">
        <ele>-3.71</ele>
        <time>2021-10-17T08:19:43Z</time>
      </trkpt>
      <trkpt lat="47.19328" lon="-1.69482">
        <ele>-3.71</ele>
        <time>2021-10-17T08:19:56Z</time>
      </trkpt>
      <trkpt lat="47.1934" lon="-1.69491">
        <ele>-3.71</ele>
        <time>2021-10-17T08:20:02Z</time>
      </trkpt>
      <trkpt lat="47.19384" lon="-1.69482">
        <ele>-4.67</ele>
        <time>2021-10-17T08:20:16Z</time>
      </trkpt>
      <trkpt lat="47.1942" lon="-1.69453">
        <ele>-4.67</ele>
        <time>2021-10-17T08:20:30Z</time>
      </trkpt>
      <trkpt lat="47.19447" lon="-1.69397">
        <ele>-5.15</ele>
        <time>2021-10-17T08:20:46Z</time>
      </trkpt>
      <trkpt lat="47.19448" lon="-1.69393">
        <ele>-5.15</ele>
        <time>2021-10-17T08:20:48Z</time>
      </trkpt>
      <trkpt lat="47.1945" lon="-1.69393">
        <ele>-5.15</ele>
        <time>2021-10-17T08:20:49Z</time>
      </trkpt>
      <trkpt lat="47.1948" lon="-1.69401">
        <ele>-5.15</ele>
        <time>2021-10-17T08:21:02Z</time>
      </trkpt>
      <trkpt lat="47.19508" lon="-1.69445">
        <ele>-4.67</ele>
        <time>2021-10-17T08:21:15Z</time>
      </trkpt>
      <trkpt lat="47.19538" lon="-1.69523">
        <ele>-4.67</ele>
        <time>2021-10-17T08:21:31Z</time>
      </trkpt>
      <trkpt lat="47.19568" lon="-1.69595">
        <ele>-4.67</ele>
        <time>2021-10-17T08:21:47Z</time>
      </trkpt>
      <trkpt lat="47.19601" lon="-1.69671">
        <ele>-4.67</ele>
        <time>2021-10-17T08:22:04Z</time>
      </trkpt>
      <trkpt lat="47.19628" lon="-1.69732">
        <ele>-4.67</ele>
        <time>2021-10-17T08:22:18Z</time>
      </trkpt>
      <trkpt lat="47.19645" lon="-1.69782">
        <ele>-4.67</ele>
        <time>2021-10-17T08:22:31Z</time>
      </trkpt>
      <trkpt lat="47.1968" lon="-1.69818">
        <ele>-4.67</ele>
        <time>2021-10-17T08:22:47Z</time>
      </trkpt>
      <trkpt lat="47.19677" lon="-1.69866">
        <ele>-4.19</ele>
        <time>2021-10-17T08:22:59Z</time>
      </trkpt>
      <trkpt lat="47.19676" lon="-1.69919">
        <ele>-4.19</ele>
        <time>2021-10-17T08:23:10Z</time>
      </trkpt>
      <trkpt lat="47.19686" lon="-1.69982">
        <ele>-3.23</ele>
        <time>2021-10-17T08:23:23Z</time>
      </trkpt>
      <trkpt lat="47.19686" lon="-1.70051">
        <ele>-3.23</ele>
        <time>2021-10-17T08:23:36Z</time>
      </trkpt>
      <trkpt lat="47.1968" lon="-1.70119">
        <ele>-3.23</ele>
        <time>2021-10-17T08:23:48Z</time>
      </trkpt>
      <trkpt lat="47.19669" lon="-1.70193">
        <ele>-3.23</ele>
        <time>2021-10-17T08:24:01Z</time>
      </trkpt>
      <trkpt lat="47.19682" lon="-1.70248">
        <ele>-3.23</ele>
        <time>2021-10-17T08:24:12Z</time>
      </trkpt>
      <trkpt lat="47.19681" lon="-1.70306">
        <ele>-3.23</ele>
        <time>2021-10-17T08:24:24Z</time>
      </trkpt>
      <trkpt lat="47.1969" lon="-1.70352">
        <ele>-3.23</ele>
        <time>2021-10-17T08:24:37Z</time>
      </trkpt>
      <trkpt lat="47.19702" lon="-1.70404">
        <ele>-3.23</ele>
        <time>2021-10-17T08:24:49Z</time>
      </trkpt>
      <trkpt lat="47.19706" lon="-1.70474">
        <ele>-4.19</ele>
        <time>2021-10-17T08:25:04Z</time>
      </trkpt>
      <trkpt lat="47.19707" lon="-1.70519">
        <ele>-4.19</ele>
        <time>2021-10-17T08:25:14Z</time>
      </trkpt>
      <trkpt lat="47.19719" lon="-1.70578">
        <ele>-4.19</ele>
        <time>2021-10-17T08:25:26Z</time>
      </trkpt>
      <trkpt lat="47.19735" lon="-1.70677">
        <ele>-4.19</ele>
        <time>2021-10-17T08:25:45Z</time>
      </trkpt>
      <trkpt lat="47.19751" lon="-1.70746">
        <ele>-4.19</ele>
        <time>2021-10-17T08:26:00Z</time>
      </trkpt>
      <trkpt lat="47.1976" lon="-1.70812">
        <ele>-4.19</ele>
        <time>2021-10-17T08:26:14Z</time>
      </trkpt>
      <trkpt lat="47.19762" lon="-1.70848">
        <ele>-1.3</ele>
        <time>2021-10-17T08:26:27Z</time>
      </trkpt>
      <trkpt lat="47.19765" lon="-1.70869">
        <ele>0.62</ele>
        <time>2021-10-17T08:26:41Z</time>
      </trkpt>
      <trkpt lat="47.19764" lon="-1.70884">
        <ele>2.54</ele>
        <time>2021-10-17T08:26:54Z</time>
      </trkpt>
      <trkpt lat="47.19762" lon="-1.70899">
        <ele>3.5</ele>
        <time>2021-10-17T08:27:12Z</time>
      </trkpt>
      <trkpt lat="47.19757" lon="-1.70914">
        <ele>5.42</ele>
        <time>2021-10-17T08:27:28Z</time>
      </trkpt>
      <trkpt lat="47.19745" lon="-1.70926">
        <ele>7.83</ele>
        <time>2021-10-17T08:27:45Z</time>
      </trkpt>
      <trkpt lat="47.19736" lon="-1.70935">
        <ele>8.79</ele>
        <time>2021-10-17T08:27:57Z</time>
      </trkpt>
      <trkpt lat="47.19736" lon="-1.70936">
        <ele>9.27</ele>
        <time>2021-10-17T08:27:58Z</time>
      </trkpt>
      <trkpt lat="47.19723" lon="-1.70945">
        <ele>11.67</ele>
        <time>2021-10-17T08:28:16Z</time>
      </trkpt>
      <trkpt lat="47.19711" lon="-1.7095">
        <ele>13.6</ele>
        <time>2021-10-17T08:28:32Z</time>
      </trkpt>
      <trkpt lat="47.19699" lon="-1.70952">
        <ele>15.52</ele>
        <time>2021-10-17T08:28:49Z</time>
      </trkpt>
      <trkpt lat="47.19683" lon="-1.70957">
        <ele>16.96</ele>
        <time>2021-10-17T08:29:07Z</time>
      </trkpt>
      <trkpt lat="47.1967" lon="-1.7097">
        <ele>18.4</ele>
        <time>2021-10-17T08:29:24Z</time>
      </trkpt>
      <trkpt lat="47.19656" lon="-1.7098">
        <ele>19.36</ele>
        <time>2021-10-17T08:29:40Z</time>
      </trkpt>
      <trkpt lat="47.19642" lon="-1.70988">
        <ele>20.32</ele>
        <time>2021-10-17T08:29:56Z</time>
      </trkpt>
      <trkpt lat="47.19627" lon="-1.70995">
        <ele>20.81</ele>
        <time>2021-10-17T08:30:11Z</time>
      </trkpt>
      <trkpt lat="47.19605" lon="-1.71011">
        <ele>21.29</ele>
        <time>2021-10-17T08:30:25Z</time>
      </trkpt>
      <trkpt lat="47.19569" lon="-1.71029">
        <ele>21.29</ele>
        <time>2021-10-17T08:30:42Z</time>
      </trkpt>
      <trkpt lat="47.19555" lon="-1.71035">
        <ele>19.84</ele>
        <time>2021-10-17T08:30:47Z</time>
      </trkpt>
      <trkpt lat="47.19519" lon="-1.71055">
        <ele>18.88</ele>
        <time>2021-10-17T08:31:01Z</time>
      </trkpt>
      <trkpt lat="47.19513" lon="-1.71059">
        <ele>18.4</ele>
        <time>2021-10-17T08:31:14Z</time>
      </trkpt>
      <trkpt lat="47.19513" lon="-1.71054">
        <ele>17.92</ele>
        <time>2021-10-17T08:31:48Z</time>
      </trkpt>
      <trkpt lat="47.19511" lon="-1.71056">
        <ele>17.92</ele>
        <time>2021-10-17T08:32:22Z</time>
      </trkpt>
      <trkpt lat="47.19512" lon="-1.71057">
        <ele>18.4</ele>
        <time>2021-10-17T08:32:54Z</time>
      </trkpt>
      <trkpt lat="47.19508" lon="-1.7105">
        <ele>18.4</ele>
        <time>2021-10-17T08:33:17Z</time>
      </trkpt>
      <trkpt lat="47.19507" lon="-1.7105">
        <ele>18.4</ele>
        <time>2021-10-17T08:33:39Z</time>
      </trkpt>
      <trkpt lat="47.19506" lon="-1.7105">
        <ele>18.4</ele>
        <time>2021-10-17T08:33:40Z</time>
      </trkpt>
      <trkpt lat="47.19504" lon="-1.71052">
        <ele>18.4</ele>
        <time>2021-10-17T08:33:41Z</time>
      </trkpt>
      <trkpt lat="47.19503" lon="-1.71053">
        <ele>18.4</ele>
        <time>2021-10-17T08:33:42Z</time>
      </trkpt>
      <trkpt lat="47.19501" lon="-1.71055">
        <ele>17.92</ele>
        <time>2021-10-17T08:33:43Z</time>
      </trkpt>
      <trkpt lat="47.195" lon="-1.71059">
        <ele>17.92</ele>
        <time>2021-10-17T08:33:44Z</time>
      </trkpt>
      <trkpt lat="47.19498" lon="-1.71062">
        <ele>17.92</ele>
        <time>2021-10-17T08:33:45Z</time>
      </trkpt>
      <trkpt lat="47.19484" lon="-1.71118">
        <ele>16</ele>
        <time>2021-10-17T08:33:59Z</time>
      </trkpt>
      <trkpt lat="47.19481" lon="-1.71145">
        <ele>15.52</ele>
        <time>2021-10-17T08:34:04Z</time>
      </trkpt>
      <trkpt lat="47.19496" lon="-1.71227">
        <ele>13.12</ele>
        <time>2021-10-17T08:34:18Z</time>
      </trkpt>
      <trkpt lat="47.19509" lon="-1.71259">
        <ele>12.15</ele>
        <time>2021-10-17T08:34:23Z</time>
      </trkpt>
      <trkpt lat="47.19514" lon="-1.7127">
        <ele>11.19</ele>
        <time>2021-10-17T08:34:25Z</time>
      </trkpt>
      <trkpt lat="47.19551" lon="-1.71327">
        <ele>11.67</ele>
        <time>2021-10-17T08:34:39Z</time>
      </trkpt>
      <trkpt lat="47.19575" lon="-1.71354">
        <ele>12.63</ele>
        <time>2021-10-17T08:34:47Z</time>
      </trkpt>
      <trkpt lat="47.19596" lon="-1.71379">
        <ele>13.6</ele>
        <time>2021-10-17T08:34:58Z</time>
      </trkpt>
      <trkpt lat="47.19596" lon="-1.71382">
        <ele>13.6</ele>
        <time>2021-10-17T08:34:59Z</time>
      </trkpt>
      <trkpt lat="47.19596" lon="-1.71385">
        <ele>13.6</ele>
        <time>2021-10-17T08:35:00Z</time>
      </trkpt>
      <trkpt lat="47.19596" lon="-1.71388">
        <ele>13.6</ele>
        <time>2021-10-17T08:35:01Z</time>
      </trkpt>
      <trkpt lat="47.19595" lon="-1.7139">
        <ele>13.6</ele>
        <time>2021-10-17T08:35:02Z</time>
      </trkpt>
      <trkpt lat="47.19593" lon="-1.71393">
        <ele>13.6</ele>
        <time>2021-10-17T08:35:03Z</time>
      </trkpt>
      <trkpt lat="47.1959" lon="-1.71395">
        <ele>13.6</ele>
        <time>2021-10-17T08:35:04Z</time>
      </trkpt>
      <trkpt lat="47.19587" lon="-1.71397">
        <ele>12.63</ele>
        <time>2021-10-17T08:35:05Z</time>
      </trkpt>
      <trkpt lat="47.19584" lon="-1.714">
        <ele>12.15</ele>
        <time>2021-10-17T08:35:06Z</time>
      </trkpt>
      <trkpt lat="47.1958" lon="-1.71403">
        <ele>12.15</ele>
        <time>2021-10-17T08:35:07Z</time>
      </trkpt>
      <trkpt lat="47.19576" lon="-1.71405">
        <ele>12.15</ele>
        <time>2021-10-17T08:35:08Z</time>
      </trkpt>
      <trkpt lat="47.19539" lon="-1.71429">
        <ele>9.75</ele>
        <time>2021-10-17T08:35:20Z</time>
      </trkpt>
      <trkpt lat="47.1951" lon="-1.71445">
        <ele>9.27</ele>
        <time>2021-10-17T08:35:33Z</time>
      </trkpt>
      <trkpt lat="47.1951" lon="-1.71447">
        <ele>9.27</ele>
        <time>2021-10-17T08:35:34Z</time>
      </trkpt>
      <trkpt lat="47.1951" lon="-1.7145">
        <ele>9.27</ele>
        <time>2021-10-17T08:35:35Z</time>
      </trkpt>
      <trkpt lat="47.19511" lon="-1.71453">
        <ele>9.27</ele>
        <time>2021-10-17T08:35:36Z</time>
      </trkpt>
      <trkpt lat="47.19512" lon="-1.71457">
        <ele>8.79</ele>
        <time>2021-10-17T08:35:37Z</time>
      </trkpt>
      <trkpt lat="47.19534" lon="-1.71543">
        <ele>5.91</ele>
        <time>2021-10-17T08:35:50Z</time>
      </trkpt>
      <trkpt lat="47.19565" lon="-1.71683">
        <ele>2.54</ele>
        <time>2021-10-17T08:36:07Z</time>
      </trkpt>
      <trkpt lat="47.1957" lon="-1.71712">
        <ele>2.06</ele>
        <time>2021-10-17T08:36:11Z</time>
      </trkpt>
      <trkpt lat="47.19592" lon="-1.71855">
        <ele>-0.34</ele>
        <time>2021-10-17T08:36:29Z</time>
      </trkpt>
      <trkpt lat="47.19611" lon="-1.71976">
        <ele>-1.79</ele>
        <time>2021-10-17T08:36:46Z</time>
      </trkpt>
      <trkpt lat="47.19613" lon="-1.71984">
        <ele>-1.79</ele>
        <time>2021-10-17T08:36:48Z</time>
      </trkpt>
      <trkpt lat="47.19616" lon="-1.71986">
        <ele>-1.79</ele>
        <time>2021-10-17T08:36:49Z</time>
      </trkpt>
      <trkpt lat="47.19618" lon="-1.71986">
        <ele>-1.79</ele>
        <time>2021-10-17T08:36:50Z</time>
      </trkpt>
      <trkpt lat="47.19622" lon="-1.71985">
        <ele>-1.79</ele>
        <time>2021-10-17T08:36:51Z</time>
      </trkpt>
      <trkpt lat="47.19625" lon="-1.71984">
        <ele>-1.79</ele>
        <time>2021-10-17T08:36:52Z</time>
      </trkpt>
      <trkpt lat="47.19648" lon="-1.71955">
        <ele>-1.79</ele>
        <time>2021-10-17T08:37:03Z</time>
      </trkpt>
      <trkpt lat="47.19648" lon="-1.71951">
        <ele>-1.79</ele>
        <time>2021-10-17T08:37:04Z</time>
      </trkpt>
      <trkpt lat="47.19647" lon="-1.71946">
        <ele>-1.79</ele>
        <time>2021-10-17T08:37:05Z</time>
      </trkpt>
      <trkpt lat="47.19647" lon="-1.71942">
        <ele>-1.79</ele>
        <time>2021-10-17T08:37:06Z</time>
      </trkpt>
      <trkpt lat="47.19648" lon="-1.71938">
        <ele>-1.79</ele>
        <time>2021-10-17T08:37:07Z</time>
      </trkpt>
      <trkpt lat="47.19649" lon="-1.71936">
        <ele>-1.79</ele>
        <time>2021-10-17T08:37:08Z</time>
      </trkpt>
      <trkpt lat="47.19653" lon="-1.71934">
        <ele>-1.79</ele>
        <time>2021-10-17T08:37:14Z</time>
      </trkpt>
      <trkpt lat="47.19678" lon="-1.71952">
        <ele>-0.82</ele>
        <time>2021-10-17T08:37:25Z</time>
      </trkpt>
      <trkpt lat="47.19703" lon="-1.71971">
        <ele>-0.82</ele>
        <time>2021-10-17T08:37:35Z</time>
      </trkpt>
      <trkpt lat="47.19705" lon="-1.71973">
        <ele>-2.27</ele>
        <time>2021-10-17T08:37:36Z</time>
      </trkpt>
      <trkpt lat="47.19706" lon="-1.71978">
        <ele>-2.27</ele>
        <time>2021-10-17T08:37:37Z</time>
      </trkpt>
      <trkpt lat="47.19707" lon="-1.71982">
        <ele>-2.27</ele>
        <time>2021-10-17T08:37:38Z</time>
      </trkpt>
      <trkpt lat="47.19707" lon="-1.71987">
        <ele>-2.27</ele>
        <time>2021-10-17T08:37:39Z</time>
      </trkpt>
      <trkpt lat="47.19707" lon="-1.71992">
        <ele>-2.27</ele>
        <time>2021-10-17T08:37:40Z</time>
      </trkpt>
      <trkpt lat="47.19712" lon="-1.72045">
        <ele>-1.3</ele>
        <time>2021-10-17T08:37:52Z</time>
      </trkpt>
      <trkpt lat="47.19712" lon="-1.72122">
        <ele>0.14</ele>
        <time>2021-10-17T08:38:11Z</time>
      </trkpt>
      <trkpt lat="47.19716" lon="-1.7221">
        <ele>3.02</ele>
        <time>2021-10-17T08:38:33Z</time>
      </trkpt>
      <trkpt lat="47.19723" lon="-1.72257">
        <ele>4.94</ele>
        <time>2021-10-17T08:38:51Z</time>
      </trkpt>
      <trkpt lat="47.19748" lon="-1.72269">
        <ele>5.42</ele>
        <time>2021-10-17T08:39:04Z</time>
      </trkpt>
      <trkpt lat="47.19774" lon="-1.72274">
        <ele>5.42</ele>
        <time>2021-10-17T08:39:16Z</time>
      </trkpt>
      <trkpt lat="47.19795" lon="-1.72269">
        <ele>3.5</ele>
        <time>2021-10-17T08:39:21Z</time>
      </trkpt>
      <trkpt lat="47.19815" lon="-1.72267">
        <ele>2.06</ele>
        <time>2021-10-17T08:39:25Z</time>
      </trkpt>
      <trkpt lat="47.1982" lon="-1.72267">
        <ele>0.62</ele>
        <time>2021-10-17T08:39:26Z</time>
      </trkpt>
      <trkpt lat="47.19825" lon="-1.72266">
        <ele>0.14</ele>
        <time>2021-10-17T08:39:27Z</time>
      </trkpt>
      <trkpt lat="47.19831" lon="-1.72266">
        <ele>-0.34</ele>
        <time>2021-10-17T08:39:28Z</time>
      </trkpt>
      <trkpt lat="47.19837" lon="-1.72265">
        <ele>-0.34</ele>
        <time>2021-10-17T08:39:29Z</time>
      </trkpt>
      <trkpt lat="47.19894" lon="-1.72248">
        <ele>-1.79</ele>
        <time>2021-10-17T08:39:42Z</time>
      </trkpt>
      <trkpt lat="47.19896" lon="-1.72208">
        <ele>-1.79</ele>
        <time>2021-10-17T08:39:53Z</time>
      </trkpt>
      <trkpt lat="47.19897" lon="-1.72198">
        <ele>-0.34</ele>
        <time>2021-10-17T08:39:56Z</time>
      </trkpt>
      <trkpt lat="47.19896" lon="-1.7219">
        <ele>-0.34</ele>
        <time>2021-10-17T08:39:59Z</time>
      </trkpt>
      <trkpt lat="47.19895" lon="-1.72188">
        <ele>0.14</ele>
        <time>2021-10-17T08:40:00Z</time>
      </trkpt>
      <trkpt lat="47.19894" lon="-1.72186">
        <ele>0.14</ele>
        <time>2021-10-17T08:40:01Z</time>
      </trkpt>
      <trkpt lat="47.19893" lon="-1.72185">
        <ele>0.14</ele>
        <time>2021-10-17T08:40:02Z</time>
      </trkpt>
      <trkpt lat="47.19889" lon="-1.72175">
        <ele>0.62</ele>
        <time>2021-10-17T08:40:13Z</time>
      </trkpt>
      <trkpt lat="47.19886" lon="-1.72167">
        <ele>1.58</ele>
        <time>2021-10-17T08:40:29Z</time>
      </trkpt>
      <trkpt lat="47.19876" lon="-1.7216">
        <ele>3.02</ele>
        <time>2021-10-17T08:40:37Z</time>
      </trkpt>
      <trkpt lat="47.19875" lon="-1.72158">
        <ele>3.02</ele>
        <time>2021-10-17T08:40:38Z</time>
      </trkpt>
      <trkpt lat="47.19868" lon="-1.7214">
        <ele>4.46</ele>
        <time>2021-10-17T08:40:52Z</time>
      </trkpt>
      <trkpt lat="47.19866" lon="-1.72132">
        <ele>5.42</ele>
        <time>2021-10-17T08:41:05Z</time>
      </trkpt>
      <trkpt lat="47.19864" lon="-1.72126">
        <ele>5.42</ele>
        <time>2021-10-17T08:41:18Z</time>
      </trkpt>
      <trkpt lat="47.19863" lon="-1.72119">
        <ele>5.91</ele>
        <time>2021-10-17T08:41:32Z</time>
      </trkpt>
      <trkpt lat="47.19862" lon="-1.72113">
        <ele>5.91</ele>
        <time>2021-10-17T08:41:48Z</time>
      </trkpt>
      <trkpt lat="47.19861" lon="-1.72113">
        <ele>5.91</ele>
        <time>2021-10-17T08:42:11Z</time>
      </trkpt>
      <trkpt lat="47.1986" lon="-1.72106">
        <ele>6.39</ele>
        <time>2021-10-17T08:42:28Z</time>
      </trkpt>
      <trkpt lat="47.1986" lon="-1.72103">
        <ele>6.39</ele>
        <time>2021-10-17T08:42:47Z</time>
      </trkpt>
      <trkpt lat="47.19859" lon="-1.72094">
        <ele>6.39</ele>
        <time>2021-10-17T08:43:02Z</time>
      </trkpt>
      <trkpt lat="47.19858" lon="-1.72095">
        <ele>6.87</ele>
        <time>2021-10-17T08:43:21Z</time>
      </trkpt>
      <trkpt lat="47.19859" lon="-1.72098">
        <ele>6.87</ele>
        <time>2021-10-17T08:43:47Z</time>
      </trkpt>
      <trkpt lat="47.19859" lon="-1.72097">
        <ele>6.87</ele>
        <time>2021-10-17T08:44:17Z</time>
      </trkpt>
      <trkpt lat="47.19859" lon="-1.72097">
        <ele>7.35</ele>
        <time>2021-10-17T08:44:45Z</time>
      </trkpt>
      <trkpt lat="47.19859" lon="-1.72094">
        <ele>7.83</ele>
        <time>2021-10-17T08:45:13Z</time>
      </trkpt>
      <trkpt lat="47.19854" lon="-1.72092">
        <ele>7.83</ele>
        <time>2021-10-17T08:45:45Z</time>
      </trkpt>
      <trkpt lat="47.19853" lon="-1.72091">
        <ele>8.31</ele>
        <time>2021-10-17T08:46:05Z</time>
      </trkpt>
      <trkpt lat="47.19853" lon="-1.72092">
        <ele>8.79</ele>
        <time>2021-10-17T08:46:44Z</time>
      </trkpt>
      <trkpt lat="47.19852" lon="-1.72092">
        <ele>8.79</ele>
        <time>2021-10-17T08:47:13Z</time>
      </trkpt>
      <trkpt lat="47.19854" lon="-1.7209">
        <ele>9.27</ele>
        <time>2021-10-17T08:47:55Z</time>
      </trkpt>
      <trkpt lat="47.19858" lon="-1.72089">
        <ele>9.27</ele>
        <time>2021-10-17T08:48:41Z</time>
      </trkpt>
      <trkpt lat="47.19857" lon="-1.72095">
        <ele>10.23</ele>
        <time>2021-10-17T08:49:24Z</time>
      </trkpt>
      <trkpt lat="47.19854" lon="-1.72089">
        <ele>10.23</ele>
        <time>2021-10-17T08:50:05Z</time>
      </trkpt>
      <trkpt lat="47.19854" lon="-1.72088">
        <ele>10.71</ele>
        <time>2021-10-17T08:50:45Z</time>
      </trkpt>
      <trkpt lat="47.19854" lon="-1.72093">
        <ele>10.71</ele>
        <time>2021-10-17T08:51:22Z</time>
      </trkpt>
      <trkpt lat="47.19852" lon="-1.72092">
        <ele>11.67</ele>
        <time>2021-10-17T08:51:59Z</time>
      </trkpt>
      <trkpt lat="47.19852" lon="-1.72095">
        <ele>11.67</ele>
        <time>2021-10-17T08:52:37Z</time>
      </trkpt>
      <trkpt lat="47.19857" lon="-1.72097">
        <ele>12.15</ele>
        <time>2021-10-17T08:53:20Z</time>
      </trkpt>
      <trkpt lat="47.19856" lon="-1.72092">
        <ele>12.15</ele>
        <time>2021-10-17T08:53:50Z</time>
      </trkpt>
      <trkpt lat="47.1986" lon="-1.72095">
        <ele>12.15</ele>
        <time>2021-10-17T08:54:24Z</time>
      </trkpt>
      <trkpt lat="47.19856" lon="-1.72092">
        <ele>12.15</ele>
        <time>2021-10-17T08:54:54Z</time>
      </trkpt>
      <trkpt lat="47.19867" lon="-1.72095">
        <ele>12.15</ele>
        <time>2021-10-17T08:55:24Z</time>
      </trkpt>
      <trkpt lat="47.19859" lon="-1.72096">
        <ele>12.15</ele>
        <time>2021-10-17T08:56:04Z</time>
      </trkpt>
      <trkpt lat="47.19857" lon="-1.721">
        <ele>12.15</ele>
        <time>2021-10-17T08:56:41Z</time>
      </trkpt>
      <trkpt lat="47.19855" lon="-1.72103">
        <ele>12.15</ele>
        <time>2021-10-17T08:57:19Z</time>
      </trkpt>
      <trkpt lat="47.19853" lon="-1.72097">
        <ele>12.15</ele>
        <time>2021-10-17T08:57:55Z</time>
      </trkpt>
      <trkpt lat="47.19853" lon="-1.72106">
        <ele>12.63</ele>
        <time>2021-10-17T08:58:23Z</time>
      </trkpt>
      <trkpt lat="47.19853" lon="-1.72105">
        <ele>12.63</ele>
        <time>2021-10-17T08:59:00Z</time>
      </trkpt>
      <trkpt lat="47.19851" lon="-1.72101">
        <ele>13.12</ele>
        <time>2021-10-17T08:59:30Z</time>
      </trkpt>
      <trkpt lat="47.19854" lon="-1.72094">
        <ele>13.12</ele>
        <time>2021-10-17T09:00:00Z</time>
      </trkpt>
      <trkpt lat="47.19851" lon="-1.72093">
        <ele>13.6</ele>
        <time>2021-10-17T09:00:41Z</time>
      </trkpt>
      <trkpt lat="47.19855" lon="-1.721">
        <ele>13.12</ele>
        <time>2021-10-17T09:01:18Z</time>
      </trkpt>
      <trkpt lat="47.19854" lon="-1.72097">
        <ele>13.12</ele>
        <time>2021-10-17T09:01:51Z</time>
      </trkpt>
      <trkpt lat="47.19851" lon="-1.72095">
        <ele>13.6</ele>
        <time>2021-10-17T09:02:25Z</time>
      </trkpt>
      <trkpt lat="47.19851" lon="-1.72098">
        <ele>13.6</ele>
        <time>2021-10-17T09:03:00Z</time>
      </trkpt>
      <trkpt lat="47.19848" lon="-1.72096">
        <ele>14.08</ele>
        <time>2021-10-17T09:03:45Z</time>
      </trkpt>
      <trkpt lat="47.19851" lon="-1.72098">
        <ele>14.56</ele>
        <time>2021-10-17T09:04:21Z</time>
      </trkpt>
      <trkpt lat="47.19853" lon="-1.72098">
        <ele>14.56</ele>
        <time>2021-10-17T09:04:59Z</time>
      </trkpt>
      <trkpt lat="47.19851" lon="-1.72097">
        <ele>15.04</ele>
        <time>2021-10-17T09:05:44Z</time>
      </trkpt>
      <trkpt lat="47.19848" lon="-1.72097">
        <ele>15.52</ele>
        <time>2021-10-17T09:06:27Z</time>
      </trkpt>
      <trkpt lat="47.19849" lon="-1.72095">
        <ele>16</ele>
        <time>2021-10-17T09:07:05Z</time>
      </trkpt>
      <trkpt lat="47.19849" lon="-1.72096">
        <ele>16</ele>
        <time>2021-10-17T09:07:41Z</time>
      </trkpt>
      <trkpt lat="47.19851" lon="-1.72094">
        <ele>16.48</ele>
        <time>2021-10-17T09:08:29Z</time>
      </trkpt>
      <trkpt lat="47.19857" lon="-1.72096">
        <ele>16.48</ele>
        <time>2021-10-17T09:09:13Z</time>
      </trkpt>
      <trkpt lat="47.19855" lon="-1.72099">
        <ele>16.96</ele>
        <time>2021-10-17T09:09:53Z</time>
      </trkpt>
      <trkpt lat="47.19852" lon="-1.72096">
        <ele>16.96</ele>
        <time>2021-10-17T09:10:26Z</time>
      </trkpt>
      <trkpt lat="47.19855" lon="-1.72092">
        <ele>16.96</ele>
        <time>2021-10-17T09:10:50Z</time>
      </trkpt>
      <trkpt lat="47.19856" lon="-1.72092">
        <ele>16.96</ele>
        <time>2021-10-17T09:11:20Z</time>
      </trkpt>
      <trkpt lat="47.19854" lon="-1.72092">
        <ele>16.96</ele>
        <time>2021-10-17T09:11:44Z</time>
      </trkpt>
      <trkpt lat="47.19856" lon="-1.72094">
        <ele>17.44</ele>
        <time>2021-10-17T09:12:20Z</time>
      </trkpt>
      <trkpt lat="47.19857" lon="-1.72097">
        <ele>17.44</ele>
        <time>2021-10-17T09:12:27Z</time>
      </trkpt>
      <trkpt lat="47.19858" lon="-1.72112">
        <ele>17.44</ele>
        <time>2021-10-17T09:12:33Z</time>
      </trkpt>
      <trkpt lat="47.19861" lon="-1.72132">
        <ele>17.44</ele>
        <time>2021-10-17T09:12:44Z</time>
      </trkpt>
      <trkpt lat="47.19871" lon="-1.72166">
        <ele>14.56</ele>
        <time>2021-10-17T09:12:58Z</time>
      </trkpt>
      <trkpt lat="47.19892" lon="-1.72186">
        <ele>11.67</ele>
        <time>2021-10-17T09:13:08Z</time>
      </trkpt>
      <trkpt lat="47.19892" lon="-1.72188">
        <ele>11.19</ele>
        <time>2021-10-17T09:13:09Z</time>
      </trkpt>
      <trkpt lat="47.19898" lon="-1.72211">
        <ele>10.71</ele>
        <time>2021-10-17T09:13:25Z</time>
      </trkpt>
      <trkpt lat="47.19899" lon="-1.72212">
        <ele>10.71</ele>
        <time>2021-10-17T09:13:26Z</time>
      </trkpt>
      <trkpt lat="47.199" lon="-1.72213">
        <ele>9.75</ele>
        <time>2021-10-17T09:13:27Z</time>
      </trkpt>
      <trkpt lat="47.19902" lon="-1.72215">
        <ele>9.75</ele>
        <time>2021-10-17T09:13:28Z</time>
      </trkpt>
      <trkpt lat="47.19904" lon="-1.72216">
        <ele>9.75</ele>
        <time>2021-10-17T09:13:29Z</time>
      </trkpt>
      <trkpt lat="47.19906" lon="-1.72219">
        <ele>9.75</ele>
        <time>2021-10-17T09:13:30Z</time>
      </trkpt>
      <trkpt lat="47.19909" lon="-1.72222">
        <ele>9.75</ele>
        <time>2021-10-17T09:13:31Z</time>
      </trkpt>
      <trkpt lat="47.19911" lon="-1.72226">
        <ele>8.79</ele>
        <time>2021-10-17T09:13:32Z</time>
      </trkpt>
      <trkpt lat="47.19914" lon="-1.7223">
        <ele>8.79</ele>
        <time>2021-10-17T09:13:33Z</time>
      </trkpt>
      <trkpt lat="47.19936" lon="-1.7226">
        <ele>8.79</ele>
        <time>2021-10-17T09:13:44Z</time>
      </trkpt>
      <trkpt lat="47.19937" lon="-1.72309">
        <ele>8.79</ele>
        <time>2021-10-17T09:13:58Z</time>
      </trkpt>
      <trkpt lat="47.1995" lon="-1.72357">
        <ele>8.79</ele>
        <time>2021-10-17T09:14:14Z</time>
      </trkpt>
      <trkpt lat="47.19972" lon="-1.72383">
        <ele>8.79</ele>
        <time>2021-10-17T09:14:26Z</time>
      </trkpt>
      <trkpt lat="47.19961" lon="-1.72436">
        <ele>8.79</ele>
        <time>2021-10-17T09:14:41Z</time>
      </trkpt>
      <trkpt lat="47.19922" lon="-1.72451">
        <ele>8.79</ele>
        <time>2021-10-17T09:14:54Z</time>
      </trkpt>
      <trkpt lat="47.19886" lon="-1.72461">
        <ele>8.79</ele>
        <time>2021-10-17T09:15:06Z</time>
      </trkpt>
      <trkpt lat="47.19886" lon="-1.72465">
        <ele>8.79</ele>
        <time>2021-10-17T09:15:07Z</time>
      </trkpt>
      <trkpt lat="47.19886" lon="-1.72469">
        <ele>8.79</ele>
        <time>2021-10-17T09:15:08Z</time>
      </trkpt>
      <trkpt lat="47.19888" lon="-1.72473">
        <ele>8.79</ele>
        <time>2021-10-17T09:15:09Z</time>
      </trkpt>
      <trkpt lat="47.1989" lon="-1.72476">
        <ele>8.79</ele>
        <time>2021-10-17T09:15:10Z</time>
      </trkpt>
      <trkpt lat="47.19892" lon="-1.7248">
        <ele>8.79</ele>
        <time>2021-10-17T09:15:11Z</time>
      </trkpt>
      <trkpt lat="47.19894" lon="-1.72483">
        <ele>8.79</ele>
        <time>2021-10-17T09:15:12Z</time>
      </trkpt>
      <trkpt lat="47.19897" lon="-1.72486">
        <ele>8.79</ele>
        <time>2021-10-17T09:15:13Z</time>
      </trkpt>
      <trkpt lat="47.19899" lon="-1.72489">
        <ele>8.79</ele>
        <time>2021-10-17T09:15:14Z</time>
      </trkpt>
      <trkpt lat="47.19902" lon="-1.72492">
        <ele>8.79</ele>
        <time>2021-10-17T09:15:15Z</time>
      </trkpt>
      <trkpt lat="47.19904" lon="-1.72496">
        <ele>8.79</ele>
        <time>2021-10-17T09:15:16Z</time>
      </trkpt>
      <trkpt lat="47.19906" lon="-1.72499">
        <ele>8.79</ele>
        <time>2021-10-17T09:15:17Z</time>
      </trkpt>
      <trkpt lat="47.19908" lon="-1.72503">
        <ele>8.79</ele>
        <time>2021-10-17T09:15:18Z</time>
      </trkpt>
      <trkpt lat="47.19927" lon="-1.72544">
        <ele>8.79</ele>
        <time>2021-10-17T09:15:30Z</time>
      </trkpt>
      <trkpt lat="47.19951" lon="-1.726">
        <ele>10.23</ele>
        <time>2021-10-17T09:15:48Z</time>
      </trkpt>
      <trkpt lat="47.19957" lon="-1.72616">
        <ele>9.75</ele>
        <time>2021-10-17T09:15:53Z</time>
      </trkpt>
      <trkpt lat="47.19966" lon="-1.72657">
        <ele>9.75</ele>
        <time>2021-10-17T09:16:06Z</time>
      </trkpt>
      <trkpt lat="47.19971" lon="-1.72711">
        <ele>9.75</ele>
        <time>2021-10-17T09:16:19Z</time>
      </trkpt>
      <trkpt lat="47.19981" lon="-1.72772">
        <ele>9.75</ele>
        <time>2021-10-17T09:16:34Z</time>
      </trkpt>
      <trkpt lat="47.2" lon="-1.72823">
        <ele>9.75</ele>
        <time>2021-10-17T09:16:47Z</time>
      </trkpt>
      <trkpt lat="47.20014" lon="-1.72882">
        <ele>9.75</ele>
        <time>2021-10-17T09:17:01Z</time>
      </trkpt>
      <trkpt lat="47.20019" lon="-1.72942">
        <ele>9.75</ele>
        <time>2021-10-17T09:17:14Z</time>
      </trkpt>
      <trkpt lat="47.20038" lon="-1.72983">
        <ele>9.75</ele>
        <time>2021-10-17T09:17:25Z</time>
      </trkpt>
      <trkpt lat="47.20041" lon="-1.72994">
        <ele>8.31</ele>
        <time>2021-10-17T09:17:27Z</time>
      </trkpt>
      <trkpt lat="47.20051" lon="-1.73078">
        <ele>8.31</ele>
        <time>2021-10-17T09:17:43Z</time>
      </trkpt>
      <trkpt lat="47.20061" lon="-1.73146">
        <ele>8.31</ele>
        <time>2021-10-17T09:17:57Z</time>
      </trkpt>
      <trkpt lat="47.20069" lon="-1.73222">
        <ele>8.31</ele>
        <time>2021-10-17T09:18:12Z</time>
      </trkpt>
      <trkpt lat="47.20067" lon="-1.73298">
        <ele>8.31</ele>
        <time>2021-10-17T09:18:27Z</time>
      </trkpt>
      <trkpt lat="47.20067" lon="-1.73342">
        <ele>8.31</ele>
        <time>2021-10-17T09:18:36Z</time>
      </trkpt>
      <trkpt lat="47.20066" lon="-1.73348">
        <ele>8.31</ele>
        <time>2021-10-17T09:18:37Z</time>
      </trkpt>
      <trkpt lat="47.20065" lon="-1.73353">
        <ele>8.31</ele>
        <time>2021-10-17T09:18:38Z</time>
      </trkpt>
      <trkpt lat="47.20065" lon="-1.73358">
        <ele>8.31</ele>
        <time>2021-10-17T09:18:39Z</time>
      </trkpt>
      <trkpt lat="47.20065" lon="-1.73363">
        <ele>8.31</ele>
        <time>2021-10-17T09:18:40Z</time>
      </trkpt>
      <trkpt lat="47.20066" lon="-1.73368">
        <ele>8.31</ele>
        <time>2021-10-17T09:18:41Z</time>
      </trkpt>
      <trkpt lat="47.20066" lon="-1.73374">
        <ele>8.31</ele>
        <time>2021-10-17T09:18:42Z</time>
      </trkpt>
      <trkpt lat="47.20072" lon="-1.73441">
        <ele>8.31</ele>
        <time>2021-10-17T09:18:55Z</time>
      </trkpt>
      <trkpt lat="47.20079" lon="-1.73505">
        <ele>8.31</ele>
        <time>2021-10-17T09:19:08Z</time>
      </trkpt>
      <trkpt lat="47.20073" lon="-1.73541">
        <ele>8.31</ele>
        <time>2021-10-17T09:19:21Z</time>
      </trkpt>
      <trkpt lat="47.20072" lon="-1.73544">
        <ele>8.31</ele>
        <time>2021-10-17T09:19:23Z</time>
      </trkpt>
      <trkpt lat="47.20071" lon="-1.73544">
        <ele>9.75</ele>
        <time>2021-10-17T09:19:24Z</time>
      </trkpt>
      <trkpt lat="47.2007" lon="-1.73545">
        <ele>9.75</ele>
        <time>2021-10-17T09:19:25Z</time>
      </trkpt>
      <trkpt lat="47.20069" lon="-1.73546">
        <ele>9.75</ele>
        <time>2021-10-17T09:19:26Z</time>
      </trkpt>
      <trkpt lat="47.20068" lon="-1.73547">
        <ele>9.75</ele>
        <time>2021-10-17T09:19:27Z</time>
      </trkpt>
      <trkpt lat="47.2005" lon="-1.73567">
        <ele>12.15</ele>
        <time>2021-10-17T09:19:40Z</time>
      </trkpt>
      <trkpt lat="47.2005" lon="-1.73568">
        <ele>12.63</ele>
        <time>2021-10-17T09:19:41Z</time>
      </trkpt>
      <trkpt lat="47.20049" lon="-1.73571">
        <ele>12.63</ele>
        <time>2021-10-17T09:19:42Z</time>
      </trkpt>
      <trkpt lat="47.20049" lon="-1.73573">
        <ele>12.63</ele>
        <time>2021-10-17T09:19:43Z</time>
      </trkpt>
      <trkpt lat="47.2005" lon="-1.73576">
        <ele>12.63</ele>
        <time>2021-10-17T09:19:44Z</time>
      </trkpt>
      <trkpt lat="47.2005" lon="-1.73615">
        <ele>12.63</ele>
        <time>2021-10-17T09:19:54Z</time>
      </trkpt>
      <trkpt lat="47.20049" lon="-1.73618">
        <ele>12.63</ele>
        <time>2021-10-17T09:19:55Z</time>
      </trkpt>
      <trkpt lat="47.20049" lon="-1.73622">
        <ele>12.63</ele>
        <time>2021-10-17T09:19:56Z</time>
      </trkpt>
      <trkpt lat="47.20049" lon="-1.73626">
        <ele>12.63</ele>
        <time>2021-10-17T09:19:57Z</time>
      </trkpt>
      <trkpt lat="47.20049" lon="-1.7363">
        <ele>12.63</ele>
        <time>2021-10-17T09:19:58Z</time>
      </trkpt>
      <trkpt lat="47.20049" lon="-1.73634">
        <ele>12.63</ele>
        <time>2021-10-17T09:19:59Z</time>
      </trkpt>
      <trkpt lat="47.20049" lon="-1.73639">
        <ele>12.63</ele>
        <time>2021-10-17T09:20:00Z</time>
      </trkpt>
      <trkpt lat="47.20048" lon="-1.73642">
        <ele>12.63</ele>
        <time>2021-10-17T09:20:01Z</time>
      </trkpt>
      <trkpt lat="47.2004" lon="-1.73706">
        <ele>13.12</ele>
        <time>2021-10-17T09:20:16Z</time>
      </trkpt>
      <trkpt lat="47.20036" lon="-1.73774">
        <ele>14.56</ele>
        <time>2021-10-17T09:20:32Z</time>
      </trkpt>
      <trkpt lat="47.20029" lon="-1.73814">
        <ele>16.48</ele>
        <time>2021-10-17T09:20:45Z</time>
      </trkpt>
      <trkpt lat="47.20014" lon="-1.73852">
        <ele>16.96</ele>
        <time>2021-10-17T09:20:58Z</time>
      </trkpt>
      <trkpt lat="47.20003" lon="-1.73896">
        <ele>17.44</ele>
        <time>2021-10-17T09:21:10Z</time>
      </trkpt>
      <trkpt lat="47.19979" lon="-1.73947">
        <ele>18.4</ele>
        <time>2021-10-17T09:21:23Z</time>
      </trkpt>
      <trkpt lat="47.19961" lon="-1.74001">
        <ele>18.88</ele>
        <time>2021-10-17T09:21:40Z</time>
      </trkpt>
      <trkpt lat="47.19966" lon="-1.74046">
        <ele>17.44</ele>
        <time>2021-10-17T09:21:48Z</time>
      </trkpt>
      <trkpt lat="47.1998" lon="-1.74142">
        <ele>14.56</ele>
        <time>2021-10-17T09:22:02Z</time>
      </trkpt>
      <trkpt lat="47.19988" lon="-1.74221">
        <ele>10.71</ele>
        <time>2021-10-17T09:22:11Z</time>
      </trkpt>
      <trkpt lat="47.1999" lon="-1.74231">
        <ele>9.75</ele>
        <time>2021-10-17T09:22:12Z</time>
      </trkpt>
      <trkpt lat="47.19994" lon="-1.74241">
        <ele>9.75</ele>
        <time>2021-10-17T09:22:13Z</time>
      </trkpt>
      <trkpt lat="47.19999" lon="-1.74251">
        <ele>8.79</ele>
        <time>2021-10-17T09:22:14Z</time>
      </trkpt>
      <trkpt lat="47.20004" lon="-1.7426">
        <ele>8.79</ele>
        <time>2021-10-17T09:22:15Z</time>
      </trkpt>
      <trkpt lat="47.2001" lon="-1.74268">
        <ele>7.83</ele>
        <time>2021-10-17T09:22:16Z</time>
      </trkpt>
      <trkpt lat="47.20035" lon="-1.74318">
        <ele>6.87</ele>
        <time>2021-10-17T09:22:22Z</time>
      </trkpt>
      <trkpt lat="47.20038" lon="-1.74326">
        <ele>6.87</ele>
        <time>2021-10-17T09:22:23Z</time>
      </trkpt>
      <trkpt lat="47.20046" lon="-1.74359">
        <ele>6.87</ele>
        <time>2021-10-17T09:22:32Z</time>
      </trkpt>
      <trkpt lat="47.20047" lon="-1.74363">
        <ele>6.87</ele>
        <time>2021-10-17T09:22:54Z</time>
      </trkpt>
      <trkpt lat="47.20052" lon="-1.74401">
        <ele>6.87</ele>
        <time>2021-10-17T09:23:04Z</time>
      </trkpt>
      <trkpt lat="47.20066" lon="-1.74482">
        <ele>6.87</ele>
        <time>2021-10-17T09:23:21Z</time>
      </trkpt>
      <trkpt lat="47.20079" lon="-1.74555">
        <ele>6.87</ele>
        <time>2021-10-17T09:23:37Z</time>
      </trkpt>
      <trkpt lat="47.20096" lon="-1.74645">
        <ele>6.87</ele>
        <time>2021-10-17T09:23:54Z</time>
      </trkpt>
      <trkpt lat="47.20113" lon="-1.7474">
        <ele>6.87</ele>
        <time>2021-10-17T09:24:12Z</time>
      </trkpt>
      <trkpt lat="47.20129" lon="-1.74817">
        <ele>6.87</ele>
        <time>2021-10-17T09:24:28Z</time>
      </trkpt>
      <trkpt lat="47.20138" lon="-1.74868">
        <ele>6.87</ele>
        <time>2021-10-17T09:24:41Z</time>
      </trkpt>
      <trkpt lat="47.20148" lon="-1.74901">
        <ele>6.87</ele>
        <time>2021-10-17T09:24:56Z</time>
      </trkpt>
      <trkpt lat="47.2015" lon="-1.74911">
        <ele>6.87</ele>
        <time>2021-10-17T09:25:01Z</time>
      </trkpt>
      <trkpt lat="47.20152" lon="-1.74912">
        <ele>6.87</ele>
        <time>2021-10-17T09:25:02Z</time>
      </trkpt>
      <trkpt lat="47.20187" lon="-1.7493">
        <ele>6.87</ele>
        <time>2021-10-17T09:25:15Z</time>
      </trkpt>
      <trkpt lat="47.20216" lon="-1.74943">
        <ele>7.83</ele>
        <time>2021-10-17T09:25:25Z</time>
      </trkpt>
      <trkpt lat="47.20252" lon="-1.7496">
        <ele>8.79</ele>
        <time>2021-10-17T09:25:42Z</time>
      </trkpt>
      <trkpt lat="47.20273" lon="-1.74973">
        <ele>7.35</ele>
        <time>2021-10-17T09:25:55Z</time>
      </trkpt>
      <trkpt lat="47.20274" lon="-1.74974">
        <ele>7.35</ele>
        <time>2021-10-17T09:25:56Z</time>
      </trkpt>
      <trkpt lat="47.20276" lon="-1.74983">
        <ele>7.35</ele>
        <time>2021-10-17T09:26:08Z</time>
      </trkpt>
      <trkpt lat="47.20276" lon="-1.74986">
        <ele>6.87</ele>
        <time>2021-10-17T09:26:21Z</time>
      </trkpt>
      <trkpt lat="47.20276" lon="-1.74983">
        <ele>6.87</ele>
        <time>2021-10-17T09:26:56Z</time>
      </trkpt>
      <trkpt lat="47.20276" lon="-1.74984">
        <ele>6.87</ele>
        <time>2021-10-17T09:27:25Z</time>
      </trkpt>
      <trkpt lat="47.20279" lon="-1.74988">
        <ele>6.87</ele>
        <time>2021-10-17T09:28:01Z</time>
      </trkpt>
      <trkpt lat="47.20279" lon="-1.74983">
        <ele>6.87</ele>
        <time>2021-10-17T09:28:30Z</time>
      </trkpt>
      <trkpt lat="47.20278" lon="-1.74989">
        <ele>6.87</ele>
        <time>2021-10-17T09:29:07Z</time>
      </trkpt>
      <trkpt lat="47.20277" lon="-1.74985">
        <ele>6.87</ele>
        <time>2021-10-17T09:29:43Z</time>
      </trkpt>
      <trkpt lat="47.20278" lon="-1.74985">
        <ele>6.87</ele>
        <time>2021-10-17T09:30:19Z</time>
      </trkpt>
      <trkpt lat="47.20278" lon="-1.74985">
        <ele>6.87</ele>
        <time>2021-10-17T09:30:52Z</time>
      </trkpt>
      <trkpt lat="47.20277" lon="-1.74984">
        <ele>6.87</ele>
        <time>2021-10-17T09:31:30Z</time>
      </trkpt>
      <trkpt lat="47.20276" lon="-1.74987">
        <ele>6.87</ele>
        <time>2021-10-17T09:32:03Z</time>
      </trkpt>
      <trkpt lat="47.20278" lon="-1.74989">
        <ele>6.87</ele>
        <time>2021-10-17T09:32:42Z</time>
      </trkpt>
      <trkpt lat="47.20277" lon="-1.74985">
        <ele>6.39</ele>
        <time>2021-10-17T09:33:15Z</time>
      </trkpt>
      <trkpt lat="47.20275" lon="-1.74984">
        <ele>6.39</ele>
        <time>2021-10-17T09:33:49Z</time>
      </trkpt>
      <trkpt lat="47.20275" lon="-1.74989">
        <ele>6.39</ele>
        <time>2021-10-17T09:34:26Z</time>
      </trkpt>
      <trkpt lat="47.20275" lon="-1.74986">
        <ele>6.39</ele>
        <time>2021-10-17T09:35:03Z</time>
      </trkpt>
      <trkpt lat="47.20275" lon="-1.74985">
        <ele>6.39</ele>
        <time>2021-10-17T09:35:36Z</time>
      </trkpt>
      <trkpt lat="47.20276" lon="-1.74985">
        <ele>5.91</ele>
        <time>2021-10-17T09:36:19Z</time>
      </trkpt>
      <trkpt lat="47.20277" lon="-1.74985">
        <ele>5.91</ele>
        <time>2021-10-17T09:36:56Z</time>
      </trkpt>
      <trkpt lat="47.20275" lon="-1.74983">
        <ele>5.91</ele>
        <time>2021-10-17T09:37:43Z</time>
      </trkpt>
      <trkpt lat="47.20275" lon="-1.74985">
        <ele>5.91</ele>
        <time>2021-10-17T09:38:21Z</time>
      </trkpt>
      <trkpt lat="47.20276" lon="-1.74986">
        <ele>5.91</ele>
        <time>2021-10-17T09:38:57Z</time>
      </trkpt>
      <trkpt lat="47.20277" lon="-1.74985">
        <ele>5.91</ele>
        <time>2021-10-17T09:39:42Z</time>
      </trkpt>
      <trkpt lat="47.20278" lon="-1.74985">
        <ele>5.91</ele>
        <time>2021-10-17T09:40:18Z</time>
      </trkpt>
      <trkpt lat="47.20276" lon="-1.74986">
        <ele>5.91</ele>
        <time>2021-10-17T09:40:54Z</time>
      </trkpt>
      <trkpt lat="47.20275" lon="-1.74985">
        <ele>5.91</ele>
        <time>2021-10-17T09:41:30Z</time>
      </trkpt>
      <trkpt lat="47.20275" lon="-1.74987">
        <ele>5.91</ele>
        <time>2021-10-17T09:42:04Z</time>
      </trkpt>
      <trkpt lat="47.20274" lon="-1.74984">
        <ele>5.91</ele>
        <time>2021-10-17T09:42:42Z</time>
      </trkpt>
      <trkpt lat="47.20276" lon="-1.74985">
        <ele>5.91</ele>
        <time>2021-10-17T09:43:18Z</time>
      </trkpt>
      <trkpt lat="47.20277" lon="-1.74986">
        <ele>5.91</ele>
        <time>2021-10-17T09:43:49Z</time>
      </trkpt>
      <trkpt lat="47.20278" lon="-1.74988">
        <ele>5.91</ele>
        <time>2021-10-17T09:44:32Z</time>
      </trkpt>
      <trkpt lat="47.20276" lon="-1.74986">
        <ele>5.91</ele>
        <time>2021-10-17T09:45:14Z</time>
      </trkpt>
      <trkpt lat="47.20276" lon="-1.74985">
        <ele>5.91</ele>
        <time>2021-10-17T09:45:58Z</time>
      </trkpt>
      <trkpt lat="47.20275" lon="-1.74986">
        <ele>5.42</ele>
        <time>2021-10-17T09:46:38Z</time>
      </trkpt>
      <trkpt lat="47.20277" lon="-1.74989">
        <ele>5.42</ele>
        <time>2021-10-17T09:47:15Z</time>
      </trkpt>
      <trkpt lat="47.20277" lon="-1.74985">
        <ele>5.42</ele>
        <time>2021-10-17T09:47:54Z</time>
      </trkpt>
      <trkpt lat="47.20274" lon="-1.74987">
        <ele>5.42</ele>
        <time>2021-10-17T09:48:46Z</time>
      </trkpt>
      <trkpt lat="47.20275" lon="-1.74988">
        <ele>4.94</ele>
        <time>2021-10-17T09:49:28Z</time>
      </trkpt>
      <trkpt lat="47.20274" lon="-1.74987">
        <ele>4.94</ele>
        <time>2021-10-17T09:50:19Z</time>
      </trkpt>
      <trkpt lat="47.20273" lon="-1.74986">
        <ele>4.94</ele>
        <time>2021-10-17T09:51:05Z</time>
      </trkpt>
      <trkpt lat="47.20275" lon="-1.74986">
        <ele>4.94</ele>
        <time>2021-10-17T09:51:40Z</time>
      </trkpt>
      <trkpt lat="47.20276" lon="-1.74987">
        <ele>4.94</ele>
        <time>2021-10-17T09:52:16Z</time>
      </trkpt>
      <trkpt lat="47.20278" lon="-1.74988">
        <ele>4.94</ele>
        <time>2021-10-17T09:52:52Z</time>
      </trkpt>
      <trkpt lat="47.20275" lon="-1.74986">
        <ele>4.94</ele>
        <time>2021-10-17T09:53:29Z</time>
      </trkpt>
      <trkpt lat="47.20276" lon="-1.74986">
        <ele>5.42</ele>
        <time>2021-10-17T09:54:03Z</time>
      </trkpt>
      <trkpt lat="47.20275" lon="-1.74986">
        <ele>5.42</ele>
        <time>2021-10-17T09:54:28Z</time>
      </trkpt>
      <trkpt lat="47.20275" lon="-1.74983">
        <ele>5.42</ele>
        <time>2021-10-17T09:54:56Z</time>
      </trkpt>
      <trkpt lat="47.20276" lon="-1.74986">
        <ele>5.42</ele>
        <time>2021-10-17T09:55:22Z</time>
      </trkpt>
      <trkpt lat="47.20276" lon="-1.74985">
        <ele>5.42</ele>
        <time>2021-10-17T09:55:53Z</time>
      </trkpt>
      <trkpt lat="47.20277" lon="-1.74986">
        <ele>5.42</ele>
        <time>2021-10-17T09:56:19Z</time>
      </trkpt>
      <trkpt lat="47.20277" lon="-1.74981">
        <ele>5.42</ele>
        <time>2021-10-17T09:56:40Z</time>
      </trkpt>
      <trkpt lat="47.20273" lon="-1.74976">
        <ele>5.42</ele>
        <time>2021-10-17T09:56:48Z</time>
      </trkpt>
      <trkpt lat="47.20271" lon="-1.74976">
        <ele>5.42</ele>
        <time>2021-10-17T09:56:49Z</time>
      </trkpt>
      <trkpt lat="47.2027" lon="-1.74977">
        <ele>5.42</ele>
        <time>2021-10-17T09:56:50Z</time>
      </trkpt>
      <trkpt lat="47.20268" lon="-1.74977">
        <ele>5.42</ele>
        <time>2021-10-17T09:56:51Z</time>
      </trkpt>
      <trkpt lat="47.20267" lon="-1.74978">
        <ele>5.42</ele>
        <time>2021-10-17T09:56:52Z</time>
      </trkpt>
      <trkpt lat="47.20266" lon="-1.7498">
        <ele>5.42</ele>
        <time>2021-10-17T09:56:53Z</time>
      </trkpt>
      <trkpt lat="47.20265" lon="-1.74982">
        <ele>5.42</ele>
        <time>2021-10-17T09:56:54Z</time>
      </trkpt>
      <trkpt lat="47.20247" lon="-1.75034">
        <ele>5.42</ele>
        <time>2021-10-17T09:57:07Z</time>
      </trkpt>
      <trkpt lat="47.20216" lon="-1.75085">
        <ele>5.42</ele>
        <time>2021-10-17T09:57:22Z</time>
      </trkpt>
      <trkpt lat="47.20203" lon="-1.75149">
        <ele>6.39</ele>
        <time>2021-10-17T09:57:39Z</time>
      </trkpt>
      <trkpt lat="47.20203" lon="-1.75163">
        <ele>6.39</ele>
        <time>2021-10-17T09:57:44Z</time>
      </trkpt>
      <trkpt lat="47.20203" lon="-1.75166">
        <ele>6.39</ele>
        <time>2021-10-17T09:57:46Z</time>
      </trkpt>
      <trkpt lat="47.20204" lon="-1.75169">
        <ele>6.39</ele>
        <time>2021-10-17T09:57:47Z</time>
      </trkpt>
      <trkpt lat="47.20204" lon="-1.75171">
        <ele>6.39</ele>
        <time>2021-10-17T09:57:48Z</time>
      </trkpt>
      <trkpt lat="47.2022" lon="-1.75224">
        <ele>6.39</ele>
        <time>2021-10-17T09:58:01Z</time>
      </trkpt>
      <trkpt lat="47.20243" lon="-1.75302">
        <ele>6.39</ele>
        <time>2021-10-17T09:58:19Z</time>
      </trkpt>
      <trkpt lat="47.20262" lon="-1.75375">
        <ele>6.39</ele>
        <time>2021-10-17T09:58:36Z</time>
      </trkpt>
      <trkpt lat="47.20276" lon="-1.75436">
        <ele>5.91</ele>
        <time>2021-10-17T09:58:51Z</time>
      </trkpt>
      <trkpt lat="47.20298" lon="-1.75514">
        <ele>6.39</ele>
        <time>2021-10-17T09:59:08Z</time>
      </trkpt>
      <trkpt lat="47.20317" lon="-1.75589">
        <ele>6.39</ele>
        <time>2021-10-17T09:59:25Z</time>
      </trkpt>
      <trkpt lat="47.2034" lon="-1.75678">
        <ele>6.39</ele>
        <time>2021-10-17T09:59:44Z</time>
      </trkpt>
      <trkpt lat="47.20352" lon="-1.75758">
        <ele>6.87</ele>
        <time>2021-10-17T10:00:00Z</time>
      </trkpt>
      <trkpt lat="47.20375" lon="-1.75851">
        <ele>6.87</ele>
        <time>2021-10-17T10:00:18Z</time>
      </trkpt>
      <trkpt lat="47.20387" lon="-1.75916">
        <ele>6.87</ele>
        <time>2021-10-17T10:00:31Z</time>
      </trkpt>
      <trkpt lat="47.20401" lon="-1.76013">
        <ele>7.83</ele>
        <time>2021-10-17T10:00:48Z</time>
      </trkpt>
      <trkpt lat="47.20404" lon="-1.7606">
        <ele>9.27</ele>
        <time>2021-10-17T10:01:00Z</time>
      </trkpt>
      <trkpt lat="47.20411" lon="-1.76134">
        <ele>10.23</ele>
        <time>2021-10-17T10:01:16Z</time>
      </trkpt>
      <trkpt lat="47.20425" lon="-1.76217">
        <ele>9.75</ele>
        <time>2021-10-17T10:01:32Z</time>
      </trkpt>
      <trkpt lat="47.20435" lon="-1.76264">
        <ele>8.31</ele>
        <time>2021-10-17T10:01:40Z</time>
      </trkpt>
      <trkpt lat="47.20438" lon="-1.76285">
        <ele>7.83</ele>
        <time>2021-10-17T10:01:43Z</time>
      </trkpt>
      <trkpt lat="47.20453" lon="-1.76397">
        <ele>7.35</ele>
        <time>2021-10-17T10:01:58Z</time>
      </trkpt>
      <trkpt lat="47.20465" lon="-1.76492">
        <ele>7.35</ele>
        <time>2021-10-17T10:02:13Z</time>
      </trkpt>
      <trkpt lat="47.20473" lon="-1.76557">
        <ele>7.35</ele>
        <time>2021-10-17T10:02:26Z</time>
      </trkpt>
      <trkpt lat="47.20491" lon="-1.76645">
        <ele>6.87</ele>
        <time>2021-10-17T10:02:42Z</time>
      </trkpt>
      <trkpt lat="47.20501" lon="-1.76705">
        <ele>7.83</ele>
        <time>2021-10-17T10:02:58Z</time>
      </trkpt>
      <trkpt lat="47.205" lon="-1.76725">
        <ele>9.75</ele>
        <time>2021-10-17T10:03:12Z</time>
      </trkpt>
      <trkpt lat="47.20506" lon="-1.76761">
        <ele>10.23</ele>
        <time>2021-10-17T10:03:26Z</time>
      </trkpt>
      <trkpt lat="47.20512" lon="-1.76781">
        <ele>10.71</ele>
        <time>2021-10-17T10:03:33Z</time>
      </trkpt>
      <trkpt lat="47.20517" lon="-1.768">
        <ele>10.71</ele>
        <time>2021-10-17T10:03:46Z</time>
      </trkpt>
      <trkpt lat="47.20516" lon="-1.76806">
        <ele>10.71</ele>
        <time>2021-10-17T10:03:50Z</time>
      </trkpt>
      <trkpt lat="47.20516" lon="-1.76808">
        <ele>10.71</ele>
        <time>2021-10-17T10:03:51Z</time>
      </trkpt>
      <trkpt lat="47.20516" lon="-1.76811">
        <ele>10.71</ele>
        <time>2021-10-17T10:03:52Z</time>
      </trkpt>
      <trkpt lat="47.20532" lon="-1.76869">
        <ele>10.71</ele>
        <time>2021-10-17T10:04:06Z</time>
      </trkpt>
      <trkpt lat="47.20548" lon="-1.76948">
        <ele>11.19</ele>
        <time>2021-10-17T10:04:20Z</time>
      </trkpt>
      <trkpt lat="47.20555" lon="-1.77019">
        <ele>11.67</ele>
        <time>2021-10-17T10:04:34Z</time>
      </trkpt>
      <trkpt lat="47.2056" lon="-1.77084">
        <ele>11.67</ele>
        <time>2021-10-17T10:04:47Z</time>
      </trkpt>
      <trkpt lat="47.20567" lon="-1.77155">
        <ele>11.67</ele>
        <time>2021-10-17T10:05:00Z</time>
      </trkpt>
      <trkpt lat="47.2057" lon="-1.77223">
        <ele>11.67</ele>
        <time>2021-10-17T10:05:13Z</time>
      </trkpt>
      <trkpt lat="47.20571" lon="-1.77272">
        <ele>12.15</ele>
        <time>2021-10-17T10:05:26Z</time>
      </trkpt>
      <trkpt lat="47.20568" lon="-1.77321">
        <ele>12.15</ele>
        <time>2021-10-17T10:05:39Z</time>
      </trkpt>
      <trkpt lat="47.20584" lon="-1.77405">
        <ele>12.15</ele>
        <time>2021-10-17T10:05:55Z</time>
      </trkpt>
      <trkpt lat="47.2059" lon="-1.77454">
        <ele>13.12</ele>
        <time>2021-10-17T10:06:08Z</time>
      </trkpt>
      <trkpt lat="47.20602" lon="-1.77494">
        <ele>10.71</ele>
        <time>2021-10-17T10:06:15Z</time>
      </trkpt>
      <trkpt lat="47.20603" lon="-1.77501">
        <ele>10.71</ele>
        <time>2021-10-17T10:06:16Z</time>
      </trkpt>
      <trkpt lat="47.20604" lon="-1.77508">
        <ele>10.23</ele>
        <time>2021-10-17T10:06:17Z</time>
      </trkpt>
      <trkpt lat="47.20611" lon="-1.77562">
        <ele>9.75</ele>
        <time>2021-10-17T10:06:25Z</time>
      </trkpt>
      <trkpt lat="47.20612" lon="-1.7759">
        <ele>9.27</ele>
        <time>2021-10-17T10:06:29Z</time>
      </trkpt>
      <trkpt lat="47.20609" lon="-1.77633">
        <ele>10.71</ele>
        <time>2021-10-17T10:06:37Z</time>
      </trkpt>
      <trkpt lat="47.20597" lon="-1.77691">
        <ele>13.6</ele>
        <time>2021-10-17T10:06:53Z</time>
      </trkpt>
      <trkpt lat="47.20599" lon="-1.77748">
        <ele>14.56</ele>
        <time>2021-10-17T10:07:09Z</time>
      </trkpt>
      <trkpt lat="47.20598" lon="-1.77791">
        <ele>13.12</ele>
        <time>2021-10-17T10:07:16Z</time>
      </trkpt>
      <trkpt lat="47.20597" lon="-1.77799">
        <ele>12.15</ele>
        <time>2021-10-17T10:07:17Z</time>
      </trkpt>
      <trkpt lat="47.20586" lon="-1.77871">
        <ele>9.27</ele>
        <time>2021-10-17T10:07:25Z</time>
      </trkpt>
      <trkpt lat="47.20581" lon="-1.77939">
        <ele>11.19</ele>
        <time>2021-10-17T10:07:36Z</time>
      </trkpt>
      <trkpt lat="47.20583" lon="-1.78002">
        <ele>9.75</ele>
        <time>2021-10-17T10:07:47Z</time>
      </trkpt>
      <trkpt lat="47.20588" lon="-1.78115">
        <ele>7.35</ele>
        <time>2021-10-17T10:08:00Z</time>
      </trkpt>
      <trkpt lat="47.206" lon="-1.78209">
        <ele>6.39</ele>
        <time>2021-10-17T10:08:13Z</time>
      </trkpt>
      <trkpt lat="47.20607" lon="-1.78263">
        <ele>6.39</ele>
        <time>2021-10-17T10:08:22Z</time>
      </trkpt>
      <trkpt lat="47.2062" lon="-1.78356">
        <ele>6.39</ele>
        <time>2021-10-17T10:08:39Z</time>
      </trkpt>
      <trkpt lat="47.20627" lon="-1.78421">
        <ele>6.39</ele>
        <time>2021-10-17T10:08:53Z</time>
      </trkpt>
      <trkpt lat="47.20626" lon="-1.78489">
        <ele>5.91</ele>
        <time>2021-10-17T10:09:07Z</time>
      </trkpt>
      <trkpt lat="47.20629" lon="-1.78523">
        <ele>7.35</ele>
        <time>2021-10-17T10:09:16Z</time>
      </trkpt>
      <trkpt lat="47.20653" lon="-1.78542">
        <ele>7.83</ele>
        <time>2021-10-17T10:09:28Z</time>
      </trkpt>
      <trkpt lat="47.20673" lon="-1.78568">
        <ele>7.83</ele>
        <time>2021-10-17T10:09:40Z</time>
      </trkpt>
      <trkpt lat="47.20675" lon="-1.78585">
        <ele>6.39</ele>
        <time>2021-10-17T10:09:43Z</time>
      </trkpt>
      <trkpt lat="47.20664" lon="-1.78646">
        <ele>5.42</ele>
        <time>2021-10-17T10:09:54Z</time>
      </trkpt>
      <trkpt lat="47.2064" lon="-1.78747">
        <ele>4.94</ele>
        <time>2021-10-17T10:10:13Z</time>
      </trkpt>
      <trkpt lat="47.20619" lon="-1.78837">
        <ele>4.94</ele>
        <time>2021-10-17T10:10:31Z</time>
      </trkpt>
      <trkpt lat="47.20623" lon="-1.78916">
        <ele>4.94</ele>
        <time>2021-10-17T10:10:46Z</time>
      </trkpt>
      <trkpt lat="47.20638" lon="-1.78993">
        <ele>4.94</ele>
        <time>2021-10-17T10:11:02Z</time>
      </trkpt>
      <trkpt lat="47.20635" lon="-1.79074">
        <ele>4.94</ele>
        <time>2021-10-17T10:11:18Z</time>
      </trkpt>
      <trkpt lat="47.20625" lon="-1.7916">
        <ele>4.94</ele>
        <time>2021-10-17T10:11:37Z</time>
      </trkpt>
      <trkpt lat="47.20617" lon="-1.79244">
        <ele>4.94</ele>
        <time>2021-10-17T10:11:54Z</time>
      </trkpt>
      <trkpt lat="47.20612" lon="-1.79307">
        <ele>4.94</ele>
        <time>2021-10-17T10:12:07Z</time>
      </trkpt>
      <trkpt lat="47.20609" lon="-1.79379">
        <ele>4.94</ele>
        <time>2021-10-17T10:12:22Z</time>
      </trkpt>
      <trkpt lat="47.20605" lon="-1.79465">
        <ele>4.94</ele>
        <time>2021-10-17T10:12:38Z</time>
      </trkpt>
      <trkpt lat="47.20604" lon="-1.79565">
        <ele>4.94</ele>
        <time>2021-10-17T10:12:57Z</time>
      </trkpt>
      <trkpt lat="47.20605" lon="-1.79627">
        <ele>5.91</ele>
        <time>2021-10-17T10:13:09Z</time>
      </trkpt>
      <trkpt lat="47.20609" lon="-1.79704">
        <ele>5.91</ele>
        <time>2021-10-17T10:13:23Z</time>
      </trkpt>
      <trkpt lat="47.20611" lon="-1.79773">
        <ele>5.91</ele>
        <time>2021-10-17T10:13:38Z</time>
      </trkpt>
      <trkpt lat="47.20614" lon="-1.79836">
        <ele>5.91</ele>
        <time>2021-10-17T10:13:51Z</time>
      </trkpt>
      <trkpt lat="47.20622" lon="-1.79935">
        <ele>5.91</ele>
        <time>2021-10-17T10:14:08Z</time>
      </trkpt>
      <trkpt lat="47.20628" lon="-1.8003">
        <ele>5.91</ele>
        <time>2021-10-17T10:14:25Z</time>
      </trkpt>
      <trkpt lat="47.20635" lon="-1.80113">
        <ele>5.91</ele>
        <time>2021-10-17T10:14:40Z</time>
      </trkpt>
      <trkpt lat="47.20641" lon="-1.80201">
        <ele>5.91</ele>
        <time>2021-10-17T10:14:55Z</time>
      </trkpt>
      <trkpt lat="47.20644" lon="-1.80243">
        <ele>5.91</ele>
        <time>2021-10-17T10:15:02Z</time>
      </trkpt>
      <trkpt lat="47.20644" lon="-1.80249">
        <ele>5.91</ele>
        <time>2021-10-17T10:15:03Z</time>
      </trkpt>
      <trkpt lat="47.2065" lon="-1.8034">
        <ele>5.42</ele>
        <time>2021-10-17T10:15:19Z</time>
      </trkpt>
      <trkpt lat="47.20655" lon="-1.80442">
        <ele>5.42</ele>
        <time>2021-10-17T10:15:37Z</time>
      </trkpt>
      <trkpt lat="47.2066" lon="-1.80527">
        <ele>5.42</ele>
        <time>2021-10-17T10:15:53Z</time>
      </trkpt>
      <trkpt lat="47.20668" lon="-1.80603">
        <ele>5.42</ele>
        <time>2021-10-17T10:16:07Z</time>
      </trkpt>
      <trkpt lat="47.20678" lon="-1.80689">
        <ele>5.42</ele>
        <time>2021-10-17T10:16:22Z</time>
      </trkpt>
      <trkpt lat="47.20682" lon="-1.80753">
        <ele>5.42</ele>
        <time>2021-10-17T10:16:37Z</time>
      </trkpt>
      <trkpt lat="47.20681" lon="-1.80779">
        <ele>5.42</ele>
        <time>2021-10-17T10:16:47Z</time>
      </trkpt>
      <trkpt lat="47.20682" lon="-1.80781">
        <ele>5.42</ele>
        <time>2021-10-17T10:16:48Z</time>
      </trkpt>
      <trkpt lat="47.20682" lon="-1.80783">
        <ele>5.42</ele>
        <time>2021-10-17T10:16:49Z</time>
      </trkpt>
      <trkpt lat="47.20685" lon="-1.80791">
        <ele>5.42</ele>
        <time>2021-10-17T10:17:02Z</time>
      </trkpt>
      <trkpt lat="47.20689" lon="-1.80797">
        <ele>5.42</ele>
        <time>2021-10-17T10:17:19Z</time>
      </trkpt>
      <trkpt lat="47.20687" lon="-1.80796">
        <ele>4.94</ele>
        <time>2021-10-17T10:17:55Z</time>
      </trkpt>
      <trkpt lat="47.20689" lon="-1.80795">
        <ele>4.94</ele>
        <time>2021-10-17T10:18:29Z</time>
      </trkpt>
      <trkpt lat="47.20691" lon="-1.80797">
        <ele>3.5</ele>
        <time>2021-10-17T10:19:04Z</time>
      </trkpt>
      <trkpt lat="47.20692" lon="-1.80796">
        <ele>4.94</ele>
        <time>2021-10-17T10:19:28Z</time>
      </trkpt>
      <trkpt lat="47.2069" lon="-1.80797">
        <ele>4.94</ele>
        <time>2021-10-17T10:19:49Z</time>
      </trkpt>
      <trkpt lat="47.2069" lon="-1.808">
        <ele>4.94</ele>
        <time>2021-10-17T10:20:19Z</time>
      </trkpt>
      <trkpt lat="47.20689" lon="-1.80802">
        <ele>4.46</ele>
        <time>2021-10-17T10:20:44Z</time>
      </trkpt>
      <trkpt lat="47.2069" lon="-1.80803">
        <ele>4.46</ele>
        <time>2021-10-17T10:21:20Z</time>
      </trkpt>
      <trkpt lat="47.20692" lon="-1.80801">
        <ele>4.46</ele>
        <time>2021-10-17T10:22:06Z</time>
      </trkpt>
      <trkpt lat="47.20692" lon="-1.80804">
        <ele>4.46</ele>
        <time>2021-10-17T10:22:47Z</time>
      </trkpt>
      <trkpt lat="47.20689" lon="-1.80805">
        <ele>4.46</ele>
        <time>2021-10-17T10:23:27Z</time>
      </trkpt>
      <trkpt lat="47.20691" lon="-1.80804">
        <ele>4.94</ele>
        <time>2021-10-17T10:24:10Z</time>
      </trkpt>
      <trkpt lat="47.20688" lon="-1.808">
        <ele>4.94</ele>
        <time>2021-10-17T10:24:55Z</time>
      </trkpt>
      <trkpt lat="47.20692" lon="-1.80803">
        <ele>4.94</ele>
        <time>2021-10-17T10:25:30Z</time>
      </trkpt>
      <trkpt lat="47.20691" lon="-1.80806">
        <ele>4.94</ele>
        <time>2021-10-17T10:26:09Z</time>
      </trkpt>
      <trkpt lat="47.20693" lon="-1.80801">
        <ele>4.46</ele>
        <time>2021-10-17T10:26:58Z</time>
      </trkpt>
      <trkpt lat="47.20694" lon="-1.80804">
        <ele>4.46</ele>
        <time>2021-10-17T10:27:30Z</time>
      </trkpt>
      <trkpt lat="47.20688" lon="-1.80799">
        <ele>4.46</ele>
        <time>2021-10-17T10:28:08Z</time>
      </trkpt>
      <trkpt lat="47.2069" lon="-1.80794">
        <ele>3.98</ele>
        <time>2021-10-17T10:28:38Z</time>
      </trkpt>
      <trkpt lat="47.20689" lon="-1.80796">
        <ele>3.98</ele>
        <time>2021-10-17T10:29:22Z</time>
      </trkpt>
      <trkpt lat="47.2069" lon="-1.80795">
        <ele>3.98</ele>
        <time>2021-10-17T10:30:06Z</time>
      </trkpt>
      <trkpt lat="47.2069" lon="-1.808">
        <ele>4.46</ele>
        <time>2021-10-17T10:30:47Z</time>
      </trkpt>
      <trkpt lat="47.20694" lon="-1.80803">
        <ele>4.46</ele>
        <time>2021-10-17T10:31:28Z</time>
      </trkpt>
      <trkpt lat="47.20695" lon="-1.808">
        <ele>4.46</ele>
        <time>2021-10-17T10:32:05Z</time>
      </trkpt>
      <trkpt lat="47.20691" lon="-1.80797">
        <ele>4.46</ele>
        <time>2021-10-17T10:32:45Z</time>
      </trkpt>
      <trkpt lat="47.20694" lon="-1.80801">
        <ele>4.46</ele>
        <time>2021-10-17T10:33:19Z</time>
      </trkpt>
      <trkpt lat="47.20693" lon="-1.80801">
        <ele>4.46</ele>
        <time>2021-10-17T10:33:57Z</time>
      </trkpt>
      <trkpt lat="47.2069" lon="-1.80802">
        <ele>4.46</ele>
        <time>2021-10-17T10:34:35Z</time>
      </trkpt>
      <trkpt lat="47.20691" lon="-1.808">
        <ele>4.46</ele>
        <time>2021-10-17T10:35:16Z</time>
      </trkpt>
      <trkpt lat="47.20688" lon="-1.80802">
        <ele>4.46</ele>
        <time>2021-10-17T10:35:51Z</time>
      </trkpt>
      <trkpt lat="47.20691" lon="-1.80802">
        <ele>4.46</ele>
        <time>2021-10-17T10:36:26Z</time>
      </trkpt>
      <trkpt lat="47.20691" lon="-1.808">
        <ele>4.46</ele>
        <time>2021-10-17T10:37:04Z</time>
      </trkpt>
      <trkpt lat="47.20692" lon="-1.808">
        <ele>4.94</ele>
        <time>2021-10-17T10:37:34Z</time>
      </trkpt>
      <trkpt lat="47.20694" lon="-1.80797">
        <ele>4.94</ele>
        <time>2021-10-17T10:38:11Z</time>
      </trkpt>
      <trkpt lat="47.20693" lon="-1.80797">
        <ele>4.94</ele>
        <time>2021-10-17T10:38:50Z</time>
      </trkpt>
      <trkpt lat="47.20693" lon="-1.808">
        <ele>4.94</ele>
        <time>2021-10-17T10:39:37Z</time>
      </trkpt>
      <trkpt lat="47.20689" lon="-1.80797">
        <ele>4.94</ele>
        <time>2021-10-17T10:40:12Z</time>
      </trkpt>
      <trkpt lat="47.2069" lon="-1.80797">
        <ele>4.94</ele>
        <time>2021-10-17T10:40:44Z</time>
      </trkpt>
      <trkpt lat="47.20691" lon="-1.80799">
        <ele>4.94</ele>
        <time>2021-10-17T10:41:12Z</time>
      </trkpt>
      <trkpt lat="47.20691" lon="-1.80799">
        <ele>4.94</ele>
        <time>2021-10-17T10:41:46Z</time>
      </trkpt>
      <trkpt lat="47.20693" lon="-1.80794">
        <ele>4.94</ele>
        <time>2021-10-17T10:42:16Z</time>
      </trkpt>
      <trkpt lat="47.20693" lon="-1.80798">
        <ele>4.94</ele>
        <time>2021-10-17T10:42:48Z</time>
      </trkpt>
      <trkpt lat="47.20694" lon="-1.80795">
        <ele>4.94</ele>
        <time>2021-10-17T10:43:23Z</time>
      </trkpt>
      <trkpt lat="47.20694" lon="-1.80794">
        <ele>4.94</ele>
        <time>2021-10-17T10:44:05Z</time>
      </trkpt>
      <trkpt lat="47.20695" lon="-1.80794">
        <ele>4.94</ele>
        <time>2021-10-17T10:44:44Z</time>
      </trkpt>
      <trkpt lat="47.20695" lon="-1.80799">
        <ele>4.94</ele>
        <time>2021-10-17T10:45:20Z</time>
      </trkpt>
      <trkpt lat="47.20694" lon="-1.80797">
        <ele>4.94</ele>
        <time>2021-10-17T10:45:57Z</time>
      </trkpt>
      <trkpt lat="47.20694" lon="-1.80794">
        <ele>4.94</ele>
        <time>2021-10-17T10:46:33Z</time>
      </trkpt>
      <trkpt lat="47.20692" lon="-1.80801">
        <ele>4.94</ele>
        <time>2021-10-17T10:47:06Z</time>
      </trkpt>
      <trkpt lat="47.20695" lon="-1.808">
        <ele>4.94</ele>
        <time>2021-10-17T10:47:46Z</time>
      </trkpt>
      <trkpt lat="47.20692" lon="-1.80795">
        <ele>4.94</ele>
        <time>2021-10-17T10:48:20Z</time>
      </trkpt>
      <trkpt lat="47.20693" lon="-1.80796">
        <ele>4.94</ele>
        <time>2021-10-17T10:49:03Z</time>
      </trkpt>
      <trkpt lat="47.20691" lon="-1.80795">
        <ele>4.94</ele>
        <time>2021-10-17T10:49:42Z</time>
      </trkpt>
      <trkpt lat="47.20691" lon="-1.80797">
        <ele>4.94</ele>
        <time>2021-10-17T10:50:20Z</time>
      </trkpt>
      <trkpt lat="47.2069" lon="-1.80796">
        <ele>4.94</ele>
        <time>2021-10-17T10:50:54Z</time>
      </trkpt>
      <trkpt lat="47.20691" lon="-1.80794">
        <ele>4.46</ele>
        <time>2021-10-17T10:51:33Z</time>
      </trkpt>
      <trkpt lat="47.20691" lon="-1.80794">
        <ele>4.46</ele>
        <time>2021-10-17T10:52:12Z</time>
      </trkpt>
      <trkpt lat="47.20691" lon="-1.80795">
        <ele>4.46</ele>
        <time>2021-10-17T10:52:53Z</time>
      </trkpt>
      <trkpt lat="47.20693" lon="-1.80794">
        <ele>3.98</ele>
        <time>2021-10-17T10:53:40Z</time>
      </trkpt>
      <trkpt lat="47.20692" lon="-1.80794">
        <ele>3.98</ele>
        <time>2021-10-17T10:54:19Z</time>
      </trkpt>
      <trkpt lat="47.20696" lon="-1.80797">
        <ele>3.98</ele>
        <time>2021-10-17T10:55:01Z</time>
      </trkpt>
      <trkpt lat="47.20695" lon="-1.80795">
        <ele>3.98</ele>
        <time>2021-10-17T10:55:38Z</time>
      </trkpt>
      <trkpt lat="47.20696" lon="-1.80794">
        <ele>4.46</ele>
        <time>2021-10-17T10:56:15Z</time>
      </trkpt>
      <trkpt lat="47.20695" lon="-1.80792">
        <ele>4.46</ele>
        <time>2021-10-17T10:56:57Z</time>
      </trkpt>
      <trkpt lat="47.20695" lon="-1.80799">
        <ele>4.46</ele>
        <time>2021-10-17T10:57:29Z</time>
      </trkpt>
      <trkpt lat="47.20696" lon="-1.808">
        <ele>4.46</ele>
        <time>2021-10-17T10:58:11Z</time>
      </trkpt>
      <trkpt lat="47.20693" lon="-1.80796">
        <ele>3.98</ele>
        <time>2021-10-17T10:58:51Z</time>
      </trkpt>
      <trkpt lat="47.20692" lon="-1.80794">
        <ele>3.98</ele>
        <time>2021-10-17T10:59:41Z</time>
      </trkpt>
      <trkpt lat="47.20698" lon="-1.80796">
        <ele>3.98</ele>
        <time>2021-10-17T11:00:32Z</time>
      </trkpt>
      <trkpt lat="47.20697" lon="-1.80795">
        <ele>3.98</ele>
        <time>2021-10-17T11:01:14Z</time>
      </trkpt>
      <trkpt lat="47.20695" lon="-1.80795">
        <ele>3.98</ele>
        <time>2021-10-17T11:01:59Z</time>
      </trkpt>
      <trkpt lat="47.20694" lon="-1.80795">
        <ele>4.46</ele>
        <time>2021-10-17T11:02:43Z</time>
      </trkpt>
      <trkpt lat="47.20693" lon="-1.808">
        <ele>4.46</ele>
        <time>2021-10-17T11:03:27Z</time>
      </trkpt>
      <trkpt lat="47.20695" lon="-1.80799">
        <ele>3.98</ele>
        <time>2021-10-17T11:04:10Z</time>
      </trkpt>
      <trkpt lat="47.20694" lon="-1.80795">
        <ele>3.98</ele>
        <time>2021-10-17T11:04:53Z</time>
      </trkpt>
      <trkpt lat="47.20691" lon="-1.80797">
        <ele>4.46</ele>
        <time>2021-10-17T11:05:36Z</time>
      </trkpt>
      <trkpt lat="47.20692" lon="-1.80804">
        <ele>4.46</ele>
        <time>2021-10-17T11:06:26Z</time>
      </trkpt>
      <trkpt lat="47.20693" lon="-1.80797">
        <ele>3.98</ele>
        <time>2021-10-17T11:07:11Z</time>
      </trkpt>
      <trkpt lat="47.20694" lon="-1.80801">
        <ele>3.98</ele>
        <time>2021-10-17T11:08:01Z</time>
      </trkpt>
      <trkpt lat="47.20694" lon="-1.80796">
        <ele>3.98</ele>
        <time>2021-10-17T11:08:54Z</time>
      </trkpt>
      <trkpt lat="47.20697" lon="-1.80798">
        <ele>3.98</ele>
        <time>2021-10-17T11:09:44Z</time>
      </trkpt>
      <trkpt lat="47.20694" lon="-1.80794">
        <ele>3.98</ele>
        <time>2021-10-17T11:10:18Z</time>
      </trkpt>
      <trkpt lat="47.20693" lon="-1.808">
        <ele>3.98</ele>
        <time>2021-10-17T11:10:57Z</time>
      </trkpt>
      <trkpt lat="47.20692" lon="-1.80801">
        <ele>3.98</ele>
        <time>2021-10-17T11:11:37Z</time>
      </trkpt>
      <trkpt lat="47.2069" lon="-1.80795">
        <ele>3.98</ele>
        <time>2021-10-17T11:12:17Z</time>
      </trkpt>
      <trkpt lat="47.20692" lon="-1.80795">
        <ele>3.98</ele>
        <time>2021-10-17T11:12:59Z</time>
      </trkpt>
      <trkpt lat="47.20687" lon="-1.80796">
        <ele>4.46</ele>
        <time>2021-10-17T11:13:38Z</time>
      </trkpt>
      <trkpt lat="47.20689" lon="-1.80797">
        <ele>4.46</ele>
        <time>2021-10-17T11:14:18Z</time>
      </trkpt>
      <trkpt lat="47.20688" lon="-1.808">
        <ele>4.46</ele>
        <time>2021-10-17T11:15:03Z</time>
      </trkpt>
      <trkpt lat="47.20689" lon="-1.80798">
        <ele>4.46</ele>
        <time>2021-10-17T11:15:34Z</time>
      </trkpt>
      <trkpt lat="47.20687" lon="-1.80797">
        <ele>4.46</ele>
        <time>2021-10-17T11:16:09Z</time>
      </trkpt>
      <trkpt lat="47.20691" lon="-1.80802">
        <ele>4.94</ele>
        <time>2021-10-17T11:16:50Z</time>
      </trkpt>
      <trkpt lat="47.20694" lon="-1.80802">
        <ele>4.94</ele>
        <time>2021-10-17T11:17:34Z</time>
      </trkpt>
      <trkpt lat="47.20694" lon="-1.80801">
        <ele>4.94</ele>
        <time>2021-10-17T11:18:12Z</time>
      </trkpt>
      <trkpt lat="47.20696" lon="-1.80805">
        <ele>4.94</ele>
        <time>2021-10-17T11:18:46Z</time>
      </trkpt>
      <trkpt lat="47.2069" lon="-1.80794">
        <ele>4.94</ele>
        <time>2021-10-17T11:19:22Z</time>
      </trkpt>
      <trkpt lat="47.2069" lon="-1.808">
        <ele>4.94</ele>
        <time>2021-10-17T11:20:00Z</time>
      </trkpt>
      <trkpt lat="47.20689" lon="-1.80797">
        <ele>4.94</ele>
        <time>2021-10-17T11:20:36Z</time>
      </trkpt>
      <trkpt lat="47.20691" lon="-1.80799">
        <ele>4.46</ele>
        <time>2021-10-17T11:21:10Z</time>
      </trkpt>
      <trkpt lat="47.2069" lon="-1.80799">
        <ele>4.46</ele>
        <time>2021-10-17T11:21:53Z</time>
      </trkpt>
      <trkpt lat="47.20692" lon="-1.80802">
        <ele>4.46</ele>
        <time>2021-10-17T11:22:39Z</time>
      </trkpt>
      <trkpt lat="47.20694" lon="-1.808">
        <ele>4.46</ele>
        <time>2021-10-17T11:23:14Z</time>
      </trkpt>
      <trkpt lat="47.2069" lon="-1.80796">
        <ele>4.46</ele>
        <time>2021-10-17T11:23:55Z</time>
      </trkpt>
      <trkpt lat="47.20693" lon="-1.80797">
        <ele>3.98</ele>
        <time>2021-10-17T11:24:33Z</time>
      </trkpt>
      <trkpt lat="47.20694" lon="-1.80792">
        <ele>3.98</ele>
        <time>2021-10-17T11:25:18Z</time>
      </trkpt>
      <trkpt lat="47.20693" lon="-1.80797">
        <ele>3.98</ele>
        <time>2021-10-17T11:26:00Z</time>
      </trkpt>
      <trkpt lat="47.20694" lon="-1.80799">
        <ele>3.98</ele>
        <time>2021-10-17T11:26:37Z</time>
      </trkpt>
      <trkpt lat="47.20693" lon="-1.80797">
        <ele>3.5</ele>
        <time>2021-10-17T11:27:15Z</time>
      </trkpt>
      <trkpt lat="47.20691" lon="-1.80799">
        <ele>3.5</ele>
        <time>2021-10-17T11:28:01Z</time>
      </trkpt>
      <trkpt lat="47.20694" lon="-1.80798">
        <ele>3.5</ele>
        <time>2021-10-17T11:28:44Z</time>
      </trkpt>
      <trkpt lat="47.20697" lon="-1.80796">
        <ele>3.5</ele>
        <time>2021-10-17T11:29:21Z</time>
      </trkpt>
      <trkpt lat="47.20695" lon="-1.80795">
        <ele>3.5</ele>
        <time>2021-10-17T11:30:01Z</time>
      </trkpt>
      <trkpt lat="47.20699" lon="-1.80791">
        <ele>3.5</ele>
        <time>2021-10-17T11:30:35Z</time>
      </trkpt>
      <trkpt lat="47.20693" lon="-1.80786">
        <ele>3.5</ele>
        <time>2021-10-17T11:31:08Z</time>
      </trkpt>
      <trkpt lat="47.20697" lon="-1.80796">
        <ele>4.94</ele>
        <time>2021-10-17T11:31:46Z</time>
      </trkpt>
      <trkpt lat="47.20697" lon="-1.80796">
        <ele>4.94</ele>
        <time>2021-10-17T11:32:14Z</time>
      </trkpt>
      <trkpt lat="47.20693" lon="-1.80792">
        <ele>4.94</ele>
        <time>2021-10-17T11:32:52Z</time>
      </trkpt>
      <trkpt lat="47.20685" lon="-1.80807">
        <ele>4.94</ele>
        <time>2021-10-17T11:33:33Z</time>
      </trkpt>
      <trkpt lat="47.20684" lon="-1.80806">
        <ele>4.94</ele>
        <time>2021-10-17T11:34:07Z</time>
      </trkpt>
      <trkpt lat="47.20687" lon="-1.80799">
        <ele>5.42</ele>
        <time>2021-10-17T11:34:50Z</time>
      </trkpt>
      <trkpt lat="47.20686" lon="-1.80798">
        <ele>5.42</ele>
        <time>2021-10-17T11:35:28Z</time>
      </trkpt>
      <trkpt lat="47.20687" lon="-1.80801">
        <ele>5.42</ele>
        <time>2021-10-17T11:35:48Z</time>
      </trkpt>
      <trkpt lat="47.20679" lon="-1.808">
        <ele>5.91</ele>
        <time>2021-10-17T11:36:07Z</time>
      </trkpt>
      <trkpt lat="47.20679" lon="-1.80789">
        <ele>5.91</ele>
        <time>2021-10-17T11:36:28Z</time>
      </trkpt>
      <trkpt lat="47.2068" lon="-1.80788">
        <ele>5.91</ele>
        <time>2021-10-17T11:37:06Z</time>
      </trkpt>
      <trkpt lat="47.2068" lon="-1.80788">
        <ele>5.91</ele>
        <time>2021-10-17T11:37:42Z</time>
      </trkpt>
      <trkpt lat="47.20685" lon="-1.80785">
        <ele>5.91</ele>
        <time>2021-10-17T11:38:29Z</time>
      </trkpt>
      <trkpt lat="47.20683" lon="-1.80785">
        <ele>5.91</ele>
        <time>2021-10-17T11:39:09Z</time>
      </trkpt>
      <trkpt lat="47.2068" lon="-1.80788">
        <ele>5.91</ele>
        <time>2021-10-17T11:39:23Z</time>
      </trkpt>
      <trkpt lat="47.20677" lon="-1.80789">
        <ele>5.42</ele>
        <time>2021-10-17T11:39:49Z</time>
      </trkpt>
      <trkpt lat="47.20677" lon="-1.80795">
        <ele>5.42</ele>
        <time>2021-10-17T11:40:05Z</time>
      </trkpt>
      <trkpt lat="47.20677" lon="-1.80803">
        <ele>5.42</ele>
        <time>2021-10-17T11:40:14Z</time>
      </trkpt>
      <trkpt lat="47.20677" lon="-1.80805">
        <ele>5.42</ele>
        <time>2021-10-17T11:40:15Z</time>
      </trkpt>
      <trkpt lat="47.20677" lon="-1.80807">
        <ele>5.42</ele>
        <time>2021-10-17T11:40:16Z</time>
      </trkpt>
      <trkpt lat="47.20679" lon="-1.80859">
        <ele>5.42</ele>
        <time>2021-10-17T11:40:29Z</time>
      </trkpt>
      <trkpt lat="47.20689" lon="-1.80931">
        <ele>5.91</ele>
        <time>2021-10-17T11:40:45Z</time>
      </trkpt>
      <trkpt lat="47.20703" lon="-1.80973">
        <ele>5.91</ele>
        <time>2021-10-17T11:40:56Z</time>
      </trkpt>
      <trkpt lat="47.20716" lon="-1.80989">
        <ele>5.42</ele>
        <time>2021-10-17T11:41:02Z</time>
      </trkpt>
      <trkpt lat="47.20718" lon="-1.80991">
        <ele>5.42</ele>
        <time>2021-10-17T11:41:03Z</time>
      </trkpt>
      <trkpt lat="47.2072" lon="-1.80994">
        <ele>5.42</ele>
        <time>2021-10-17T11:41:04Z</time>
      </trkpt>
      <trkpt lat="47.20723" lon="-1.80996">
        <ele>5.42</ele>
        <time>2021-10-17T11:41:05Z</time>
      </trkpt>
      <trkpt lat="47.20726" lon="-1.80999">
        <ele>5.42</ele>
        <time>2021-10-17T11:41:06Z</time>
      </trkpt>
      <trkpt lat="47.20728" lon="-1.81002">
        <ele>5.42</ele>
        <time>2021-10-17T11:41:07Z</time>
      </trkpt>
      <trkpt lat="47.2073" lon="-1.81005">
        <ele>5.42</ele>
        <time>2021-10-17T11:41:08Z</time>
      </trkpt>
      <trkpt lat="47.20732" lon="-1.81009">
        <ele>5.42</ele>
        <time>2021-10-17T11:41:09Z</time>
      </trkpt>
      <trkpt lat="47.20748" lon="-1.81065">
        <ele>5.42</ele>
        <time>2021-10-17T11:41:22Z</time>
      </trkpt>
      <trkpt lat="47.20765" lon="-1.81132">
        <ele>5.42</ele>
        <time>2021-10-17T11:41:36Z</time>
      </trkpt>
      <trkpt lat="47.2078" lon="-1.81194">
        <ele>5.42</ele>
        <time>2021-10-17T11:41:48Z</time>
      </trkpt>
      <trkpt lat="47.20795" lon="-1.8125">
        <ele>3.98</ele>
        <time>2021-10-17T11:41:59Z</time>
      </trkpt>
      <trkpt lat="47.20813" lon="-1.81316">
        <ele>3.98</ele>
        <time>2021-10-17T11:42:13Z</time>
      </trkpt>
      <trkpt lat="47.20832" lon="-1.81375">
        <ele>3.98</ele>
        <time>2021-10-17T11:42:25Z</time>
      </trkpt>
      <trkpt lat="47.20859" lon="-1.81455">
        <ele>3.98</ele>
        <time>2021-10-17T11:42:41Z</time>
      </trkpt>
      <trkpt lat="47.20882" lon="-1.81523">
        <ele>3.98</ele>
        <time>2021-10-17T11:42:54Z</time>
      </trkpt>
      <trkpt lat="47.20915" lon="-1.81599">
        <ele>3.98</ele>
        <time>2021-10-17T11:43:09Z</time>
      </trkpt>
      <trkpt lat="47.20944" lon="-1.81666">
        <ele>3.98</ele>
        <time>2021-10-17T11:43:22Z</time>
      </trkpt>
      <trkpt lat="47.20979" lon="-1.81742">
        <ele>3.98</ele>
        <time>2021-10-17T11:43:37Z</time>
      </trkpt>
      <trkpt lat="47.21019" lon="-1.81822">
        <ele>3.98</ele>
        <time>2021-10-17T11:43:53Z</time>
      </trkpt>
      <trkpt lat="47.21039" lon="-1.81863">
        <ele>3.98</ele>
        <time>2021-10-17T11:44:01Z</time>
      </trkpt>
      <trkpt lat="47.21042" lon="-1.81867">
        <ele>3.98</ele>
        <time>2021-10-17T11:44:02Z</time>
      </trkpt>
      <trkpt lat="47.21081" lon="-1.81934">
        <ele>3.5</ele>
        <time>2021-10-17T11:44:16Z</time>
      </trkpt>
      <trkpt lat="47.21122" lon="-1.82004">
        <ele>3.5</ele>
        <time>2021-10-17T11:44:32Z</time>
      </trkpt>
      <trkpt lat="47.21151" lon="-1.82052">
        <ele>3.5</ele>
        <time>2021-10-17T11:44:45Z</time>
      </trkpt>
      <trkpt lat="47.21189" lon="-1.82114">
        <ele>3.5</ele>
        <time>2021-10-17T11:45:00Z</time>
      </trkpt>
      <trkpt lat="47.21215" lon="-1.82157">
        <ele>3.5</ele>
        <time>2021-10-17T11:45:11Z</time>
      </trkpt>
      <trkpt lat="47.21241" lon="-1.822">
        <ele>3.5</ele>
        <time>2021-10-17T11:45:22Z</time>
      </trkpt>
      <trkpt lat="47.21271" lon="-1.82251">
        <ele>3.5</ele>
        <time>2021-10-17T11:45:35Z</time>
      </trkpt>
      <trkpt lat="47.21308" lon="-1.82311">
        <ele>3.5</ele>
        <time>2021-10-17T11:45:51Z</time>
      </trkpt>
      <trkpt lat="47.21339" lon="-1.82332">
        <ele>4.46</ele>
        <time>2021-10-17T11:46:03Z</time>
      </trkpt>
      <trkpt lat="47.21342" lon="-1.82329">
        <ele>4.46</ele>
        <time>2021-10-17T11:46:04Z</time>
      </trkpt>
      <trkpt lat="47.21374" lon="-1.82285">
        <ele>4.94</ele>
        <time>2021-10-17T11:46:19Z</time>
      </trkpt>
      <trkpt lat="47.21407" lon="-1.82275">
        <ele>5.42</ele>
        <time>2021-10-17T11:46:30Z</time>
      </trkpt>
      <trkpt lat="47.21432" lon="-1.82306">
        <ele>6.87</ele>
        <time>2021-10-17T11:46:43Z</time>
      </trkpt>
      <trkpt lat="47.2145" lon="-1.82347">
        <ele>6.87</ele>
        <time>2021-10-17T11:46:56Z</time>
      </trkpt>
      <trkpt lat="47.21448" lon="-1.82351">
        <ele>6.87</ele>
        <time>2021-10-17T11:46:57Z</time>
      </trkpt>
      <trkpt lat="47.21446" lon="-1.82355">
        <ele>6.87</ele>
        <time>2021-10-17T11:46:58Z</time>
      </trkpt>
      <trkpt lat="47.21444" lon="-1.82358">
        <ele>6.87</ele>
        <time>2021-10-17T11:46:59Z</time>
      </trkpt>
      <trkpt lat="47.21441" lon="-1.82361">
        <ele>6.87</ele>
        <time>2021-10-17T11:47:00Z</time>
      </trkpt>
      <trkpt lat="47.21438" lon="-1.82363">
        <ele>5.42</ele>
        <time>2021-10-17T11:47:01Z</time>
      </trkpt>
      <trkpt lat="47.214" lon="-1.82404">
        <ele>5.42</ele>
        <time>2021-10-17T11:47:16Z</time>
      </trkpt>
      <trkpt lat="47.21376" lon="-1.82436">
        <ele>5.42</ele>
        <time>2021-10-17T11:47:25Z</time>
      </trkpt>
      <trkpt lat="47.21372" lon="-1.8244">
        <ele>5.42</ele>
        <time>2021-10-17T11:47:26Z</time>
      </trkpt>
      <trkpt lat="47.21297" lon="-1.82512">
        <ele>4.46</ele>
        <time>2021-10-17T11:47:47Z</time>
      </trkpt>
      <trkpt lat="47.21216" lon="-1.82569">
        <ele>4.46</ele>
        <time>2021-10-17T11:48:08Z</time>
      </trkpt>
      <trkpt lat="47.21134" lon="-1.82621">
        <ele>4.46</ele>
        <time>2021-10-17T11:48:30Z</time>
      </trkpt>
      <trkpt lat="47.21056" lon="-1.82682">
        <ele>4.46</ele>
        <time>2021-10-17T11:48:52Z</time>
      </trkpt>
      <trkpt lat="47.21002" lon="-1.82712">
        <ele>4.46</ele>
        <time>2021-10-17T11:49:07Z</time>
      </trkpt>
      <trkpt lat="47.20986" lon="-1.82722">
        <ele>4.46</ele>
        <time>2021-10-17T11:49:11Z</time>
      </trkpt>
      <trkpt lat="47.20981" lon="-1.82725">
        <ele>4.46</ele>
        <time>2021-10-17T11:49:12Z</time>
      </trkpt>
      <trkpt lat="47.20977" lon="-1.82728">
        <ele>4.46</ele>
        <time>2021-10-17T11:49:13Z</time>
      </trkpt>
      <trkpt lat="47.20933" lon="-1.82752">
        <ele>4.46</ele>
        <time>2021-10-17T11:49:24Z</time>
      </trkpt>
      <trkpt lat="47.20862" lon="-1.82795">
        <ele>4.46</ele>
        <time>2021-10-17T11:49:43Z</time>
      </trkpt>
      <trkpt lat="47.20833" lon="-1.82821">
        <ele>5.91</ele>
        <time>2021-10-17T11:49:53Z</time>
      </trkpt>
      <trkpt lat="47.20811" lon="-1.82838">
        <ele>7.35</ele>
        <time>2021-10-17T11:50:07Z</time>
      </trkpt>
      <trkpt lat="47.20807" lon="-1.82837">
        <ele>5.91</ele>
        <time>2021-10-17T11:50:12Z</time>
      </trkpt>
      <trkpt lat="47.20806" lon="-1.82836">
        <ele>5.91</ele>
        <time>2021-10-17T11:50:13Z</time>
      </trkpt>
      <trkpt lat="47.20781" lon="-1.82847">
        <ele>5.42</ele>
        <time>2021-10-17T11:50:26Z</time>
      </trkpt>
      <trkpt lat="47.20753" lon="-1.82863">
        <ele>5.42</ele>
        <time>2021-10-17T11:50:40Z</time>
      </trkpt>
      <trkpt lat="47.20725" lon="-1.82883">
        <ele>4.94</ele>
        <time>2021-10-17T11:50:54Z</time>
      </trkpt>
      <trkpt lat="47.207" lon="-1.82909">
        <ele>3.98</ele>
        <time>2021-10-17T11:51:08Z</time>
      </trkpt>
      <trkpt lat="47.20672" lon="-1.82938">
        <ele>3.98</ele>
        <time>2021-10-17T11:51:22Z</time>
      </trkpt>
      <trkpt lat="47.20652" lon="-1.82962">
        <ele>3.98</ele>
        <time>2021-10-17T11:51:33Z</time>
      </trkpt>
      <trkpt lat="47.20626" lon="-1.82988">
        <ele>3.02</ele>
        <time>2021-10-17T11:51:46Z</time>
      </trkpt>
      <trkpt lat="47.20597" lon="-1.83012">
        <ele>3.02</ele>
        <time>2021-10-17T11:52:00Z</time>
      </trkpt>
      <trkpt lat="47.20562" lon="-1.8305">
        <ele>3.02</ele>
        <time>2021-10-17T11:52:13Z</time>
      </trkpt>
      <trkpt lat="47.20529" lon="-1.83088">
        <ele>2.54</ele>
        <time>2021-10-17T11:52:26Z</time>
      </trkpt>
      <trkpt lat="47.20496" lon="-1.83125">
        <ele>2.54</ele>
        <time>2021-10-17T11:52:40Z</time>
      </trkpt>
      <trkpt lat="47.2046" lon="-1.83175">
        <ele>2.06</ele>
        <time>2021-10-17T11:52:57Z</time>
      </trkpt>
      <trkpt lat="47.20442" lon="-1.83227">
        <ele>2.06</ele>
        <time>2021-10-17T11:53:11Z</time>
      </trkpt>
      <trkpt lat="47.20431" lon="-1.83281">
        <ele>2.06</ele>
        <time>2021-10-17T11:53:25Z</time>
      </trkpt>
      <trkpt lat="47.20426" lon="-1.83315">
        <ele>3.02</ele>
        <time>2021-10-17T11:53:36Z</time>
      </trkpt>
      <trkpt lat="47.20426" lon="-1.83318">
        <ele>3.02</ele>
        <time>2021-10-17T11:53:37Z</time>
      </trkpt>
      <trkpt lat="47.20419" lon="-1.83358">
        <ele>3.5</ele>
        <time>2021-10-17T11:53:52Z</time>
      </trkpt>
      <trkpt lat="47.2041" lon="-1.83412">
        <ele>3.5</ele>
        <time>2021-10-17T11:54:04Z</time>
      </trkpt>
      <trkpt lat="47.20403" lon="-1.83475">
        <ele>3.5</ele>
        <time>2021-10-17T11:54:17Z</time>
      </trkpt>
      <trkpt lat="47.20396" lon="-1.83543">
        <ele>2.54</ele>
        <time>2021-10-17T11:54:30Z</time>
      </trkpt>
      <trkpt lat="47.2039" lon="-1.83607">
        <ele>2.54</ele>
        <time>2021-10-17T11:54:42Z</time>
      </trkpt>
      <trkpt lat="47.20384" lon="-1.83658">
        <ele>2.54</ele>
        <time>2021-10-17T11:54:52Z</time>
      </trkpt>
      <trkpt lat="47.20377" lon="-1.8373">
        <ele>2.54</ele>
        <time>2021-10-17T11:55:05Z</time>
      </trkpt>
      <trkpt lat="47.20369" lon="-1.83805">
        <ele>2.06</ele>
        <time>2021-10-17T11:55:18Z</time>
      </trkpt>
      <trkpt lat="47.20358" lon="-1.83884">
        <ele>2.54</ele>
        <time>2021-10-17T11:55:31Z</time>
      </trkpt>
      <trkpt lat="47.20352" lon="-1.83949">
        <ele>2.06</ele>
        <time>2021-10-17T11:55:43Z</time>
      </trkpt>
      <trkpt lat="47.20339" lon="-1.8402">
        <ele>2.54</ele>
        <time>2021-10-17T11:55:57Z</time>
      </trkpt>
      <trkpt lat="47.20326" lon="-1.84075">
        <ele>2.06</ele>
        <time>2021-10-17T11:56:08Z</time>
      </trkpt>
      <trkpt lat="47.20317" lon="-1.84091">
        <ele>2.06</ele>
        <time>2021-10-17T11:56:17Z</time>
      </trkpt>
      <trkpt lat="47.20315" lon="-1.8409">
        <ele>2.06</ele>
        <time>2021-10-17T11:56:18Z</time>
      </trkpt>
      <trkpt lat="47.20314" lon="-1.84088">
        <ele>2.06</ele>
        <time>2021-10-17T11:56:19Z</time>
      </trkpt>
      <trkpt lat="47.20313" lon="-1.84086">
        <ele>2.06</ele>
        <time>2021-10-17T11:56:20Z</time>
      </trkpt>
      <trkpt lat="47.20311" lon="-1.84084">
        <ele>2.06</ele>
        <time>2021-10-17T11:56:21Z</time>
      </trkpt>
      <trkpt lat="47.20309" lon="-1.84082">
        <ele>2.06</ele>
        <time>2021-10-17T11:56:22Z</time>
      </trkpt>
      <trkpt lat="47.20307" lon="-1.8408">
        <ele>2.06</ele>
        <time>2021-10-17T11:56:23Z</time>
      </trkpt>
      <trkpt lat="47.20306" lon="-1.84078">
        <ele>2.06</ele>
        <time>2021-10-17T11:56:24Z</time>
      </trkpt>
      <trkpt lat="47.2028" lon="-1.84056">
        <ele>3.98</ele>
        <time>2021-10-17T11:56:38Z</time>
      </trkpt>
      <trkpt lat="47.20247" lon="-1.8404">
        <ele>5.91</ele>
        <time>2021-10-17T11:56:54Z</time>
      </trkpt>
      <trkpt lat="47.20229" lon="-1.84035">
        <ele>5.91</ele>
        <time>2021-10-17T11:57:02Z</time>
      </trkpt>
      <trkpt lat="47.20226" lon="-1.8404">
        <ele>5.91</ele>
        <time>2021-10-17T11:57:03Z</time>
      </trkpt>
      <trkpt lat="47.20225" lon="-1.84044">
        <ele>5.91</ele>
        <time>2021-10-17T11:57:04Z</time>
      </trkpt>
      <trkpt lat="47.20223" lon="-1.8405">
        <ele>5.91</ele>
        <time>2021-10-17T11:57:05Z</time>
      </trkpt>
      <trkpt lat="47.20222" lon="-1.84057">
        <ele>4.46</ele>
        <time>2021-10-17T11:57:06Z</time>
      </trkpt>
      <trkpt lat="47.20221" lon="-1.84063">
        <ele>4.46</ele>
        <time>2021-10-17T11:57:07Z</time>
      </trkpt>
      <trkpt lat="47.20219" lon="-1.8407">
        <ele>4.46</ele>
        <time>2021-10-17T11:57:08Z</time>
      </trkpt>
      <trkpt lat="47.20198" lon="-1.84123">
        <ele>3.02</ele>
        <time>2021-10-17T11:57:16Z</time>
      </trkpt>
      <trkpt lat="47.20194" lon="-1.84128">
        <ele>3.02</ele>
        <time>2021-10-17T11:57:17Z</time>
      </trkpt>
      <trkpt lat="47.20182" lon="-1.84142">
        <ele>3.02</ele>
        <time>2021-10-17T11:57:20Z</time>
      </trkpt>
      <trkpt lat="47.20178" lon="-1.84146">
        <ele>3.02</ele>
        <time>2021-10-17T11:57:21Z</time>
      </trkpt>
      <trkpt lat="47.20147" lon="-1.8417">
        <ele>3.02</ele>
        <time>2021-10-17T11:57:29Z</time>
      </trkpt>
      <trkpt lat="47.20103" lon="-1.84214">
        <ele>3.02</ele>
        <time>2021-10-17T11:57:43Z</time>
      </trkpt>
      <trkpt lat="47.20066" lon="-1.84272">
        <ele>3.02</ele>
        <time>2021-10-17T11:57:57Z</time>
      </trkpt>
      <trkpt lat="47.20037" lon="-1.8432">
        <ele>3.98</ele>
        <time>2021-10-17T11:58:11Z</time>
      </trkpt>
      <trkpt lat="47.1999" lon="-1.84397">
        <ele>4.46</ele>
        <time>2021-10-17T11:58:30Z</time>
      </trkpt>
      <trkpt lat="47.19951" lon="-1.84475">
        <ele>4.94</ele>
        <time>2021-10-17T11:58:47Z</time>
      </trkpt>
      <trkpt lat="47.19903" lon="-1.84558">
        <ele>4.94</ele>
        <time>2021-10-17T11:59:06Z</time>
      </trkpt>
      <trkpt lat="47.19852" lon="-1.8464">
        <ele>5.42</ele>
        <time>2021-10-17T11:59:25Z</time>
      </trkpt>
      <trkpt lat="47.19798" lon="-1.84721">
        <ele>5.42</ele>
        <time>2021-10-17T11:59:44Z</time>
      </trkpt>
      <trkpt lat="47.19732" lon="-1.84771">
        <ele>5.42</ele>
        <time>2021-10-17T12:00:01Z</time>
      </trkpt>
      <trkpt lat="47.19712" lon="-1.84782">
        <ele>5.42</ele>
        <time>2021-10-17T12:00:06Z</time>
      </trkpt>
      <trkpt lat="47.19697" lon="-1.84794">
        <ele>3.98</ele>
        <time>2021-10-17T12:00:10Z</time>
      </trkpt>
      <trkpt lat="47.19611" lon="-1.84849">
        <ele>3.5</ele>
        <time>2021-10-17T12:00:30Z</time>
      </trkpt>
      <trkpt lat="47.19538" lon="-1.84903">
        <ele>2.54</ele>
        <time>2021-10-17T12:00:47Z</time>
      </trkpt>
      <trkpt lat="47.19474" lon="-1.84987">
        <ele>2.54</ele>
        <time>2021-10-17T12:01:05Z</time>
      </trkpt>
      <trkpt lat="47.1944" lon="-1.85036">
        <ele>3.5</ele>
        <time>2021-10-17T12:01:18Z</time>
      </trkpt>
      <trkpt lat="47.19412" lon="-1.85075">
        <ele>6.39</ele>
        <time>2021-10-17T12:01:33Z</time>
      </trkpt>
      <trkpt lat="47.19395" lon="-1.85105">
        <ele>7.83</ele>
        <time>2021-10-17T12:01:46Z</time>
      </trkpt>
      <trkpt lat="47.19373" lon="-1.85133">
        <ele>8.31</ele>
        <time>2021-10-17T12:01:58Z</time>
      </trkpt>
      <trkpt lat="47.19342" lon="-1.85167">
        <ele>8.31</ele>
        <time>2021-10-17T12:02:10Z</time>
      </trkpt>
      <trkpt lat="47.19289" lon="-1.85231">
        <ele>6.39</ele>
        <time>2021-10-17T12:02:26Z</time>
      </trkpt>
      <trkpt lat="47.19277" lon="-1.85248">
        <ele>5.42</ele>
        <time>2021-10-17T12:02:29Z</time>
      </trkpt>
      <trkpt lat="47.19273" lon="-1.85255">
        <ele>5.42</ele>
        <time>2021-10-17T12:02:30Z</time>
      </trkpt>
      <trkpt lat="47.19264" lon="-1.85279">
        <ele>4.46</ele>
        <time>2021-10-17T12:02:33Z</time>
      </trkpt>
      <trkpt lat="47.19251" lon="-1.85327">
        <ele>3.98</ele>
        <time>2021-10-17T12:02:39Z</time>
      </trkpt>
      <trkpt lat="47.19248" lon="-1.85333">
        <ele>3.98</ele>
        <time>2021-10-17T12:02:40Z</time>
      </trkpt>
      <trkpt lat="47.19245" lon="-1.85338">
        <ele>3.98</ele>
        <time>2021-10-17T12:02:41Z</time>
      </trkpt>
      <trkpt lat="47.1923" lon="-1.85378">
        <ele>3.98</ele>
        <time>2021-10-17T12:02:51Z</time>
      </trkpt>
      <trkpt lat="47.19232" lon="-1.8538">
        <ele>3.5</ele>
        <time>2021-10-17T12:02:52Z</time>
      </trkpt>
      <trkpt lat="47.19274" lon="-1.85418">
        <ele>2.06</ele>
        <time>2021-10-17T12:03:05Z</time>
      </trkpt>
      <trkpt lat="47.19322" lon="-1.85438">
        <ele>1.58</ele>
        <time>2021-10-17T12:03:18Z</time>
      </trkpt>
      <trkpt lat="47.19357" lon="-1.85436">
        <ele>1.58</ele>
        <time>2021-10-17T12:03:32Z</time>
      </trkpt>
      <trkpt lat="47.19366" lon="-1.85436">
        <ele>1.58</ele>
        <time>2021-10-17T12:03:38Z</time>
      </trkpt>
      <trkpt lat="47.1938" lon="-1.85435">
        <ele>1.58</ele>
        <time>2021-10-17T12:03:56Z</time>
      </trkpt>
      <trkpt lat="47.19382" lon="-1.85444">
        <ele>1.58</ele>
        <time>2021-10-17T12:04:18Z</time>
      </trkpt>
      <trkpt lat="47.19373" lon="-1.8545">
        <ele>1.1</ele>
        <time>2021-10-17T12:04:46Z</time>
      </trkpt>
      <trkpt lat="47.19377" lon="-1.85443">
        <ele>1.1</ele>
        <time>2021-10-17T12:05:14Z</time>
      </trkpt>
      <trkpt lat="47.1938" lon="-1.85442">
        <ele>1.1</ele>
        <time>2021-10-17T12:05:42Z</time>
      </trkpt>
      <trkpt lat="47.19383" lon="-1.85433">
        <ele>1.1</ele>
        <time>2021-10-17T12:06:21Z</time>
      </trkpt>
      <trkpt lat="47.19381" lon="-1.85426">
        <ele>1.58</ele>
        <time>2021-10-17T12:07:01Z</time>
      </trkpt>
      <trkpt lat="47.19384" lon="-1.85421">
        <ele>2.06</ele>
        <time>2021-10-17T12:07:36Z</time>
      </trkpt>
      <trkpt lat="47.19393" lon="-1.8542">
        <ele>2.06</ele>
        <time>2021-10-17T12:08:08Z</time>
      </trkpt>
      <trkpt lat="47.19391" lon="-1.85424">
        <ele>2.54</ele>
        <time>2021-10-17T12:08:44Z</time>
      </trkpt>
      <trkpt lat="47.19387" lon="-1.85428">
        <ele>3.02</ele>
        <time>2021-10-17T12:09:07Z</time>
      </trkpt>
      <trkpt lat="47.19384" lon="-1.85431">
        <ele>3.02</ele>
        <time>2021-10-17T12:09:32Z</time>
      </trkpt>
      <trkpt lat="47.19389" lon="-1.8543">
        <ele>3.02</ele>
        <time>2021-10-17T12:09:55Z</time>
      </trkpt>
      <trkpt lat="47.19388" lon="-1.85438">
        <ele>3.02</ele>
        <time>2021-10-17T12:10:21Z</time>
      </trkpt>
      <trkpt lat="47.19381" lon="-1.85442">
        <ele>3.02</ele>
        <time>2021-10-17T12:10:54Z</time>
      </trkpt>
      <trkpt lat="47.19376" lon="-1.8544">
        <ele>3.02</ele>
        <time>2021-10-17T12:11:20Z</time>
      </trkpt>
      <trkpt lat="47.19375" lon="-1.85442">
        <ele>3.02</ele>
        <time>2021-10-17T12:11:48Z</time>
      </trkpt>
      <trkpt lat="47.19381" lon="-1.85446">
        <ele>3.98</ele>
        <time>2021-10-17T12:12:10Z</time>
      </trkpt>
      <trkpt lat="47.19374" lon="-1.85447">
        <ele>3.98</ele>
        <time>2021-10-17T12:12:36Z</time>
      </trkpt>
      <trkpt lat="47.19378" lon="-1.85444">
        <ele>3.98</ele>
        <time>2021-10-17T12:13:13Z</time>
      </trkpt>
      <trkpt lat="47.19384" lon="-1.8545">
        <ele>3.98</ele>
        <time>2021-10-17T12:13:43Z</time>
      </trkpt>
      <trkpt lat="47.19391" lon="-1.85453">
        <ele>3.98</ele>
        <time>2021-10-17T12:14:15Z</time>
      </trkpt>
      <trkpt lat="47.19386" lon="-1.85446">
        <ele>3.98</ele>
        <time>2021-10-17T12:14:48Z</time>
      </trkpt>
      <trkpt lat="47.19383" lon="-1.8544">
        <ele>3.98</ele>
        <time>2021-10-17T12:15:15Z</time>
      </trkpt>
      <trkpt lat="47.19385" lon="-1.85443">
        <ele>3.98</ele>
        <time>2021-10-17T12:15:52Z</time>
      </trkpt>
      <trkpt lat="47.19385" lon="-1.85438">
        <ele>3.98</ele>
        <time>2021-10-17T12:16:34Z</time>
      </trkpt>
      <trkpt lat="47.19382" lon="-1.85445">
        <ele>3.98</ele>
        <time>2021-10-17T12:17:07Z</time>
      </trkpt>
      <trkpt lat="47.19371" lon="-1.85457">
        <ele>3.5</ele>
        <time>2021-10-17T12:17:50Z</time>
      </trkpt>
      <trkpt lat="47.19379" lon="-1.85445">
        <ele>3.5</ele>
        <time>2021-10-17T12:18:34Z</time>
      </trkpt>
      <trkpt lat="47.19379" lon="-1.85449">
        <ele>3.02</ele>
        <time>2021-10-17T12:19:07Z</time>
      </trkpt>
      <trkpt lat="47.19376" lon="-1.8545">
        <ele>3.02</ele>
        <time>2021-10-17T12:19:40Z</time>
      </trkpt>
      <trkpt lat="47.1938" lon="-1.85453">
        <ele>3.02</ele>
        <time>2021-10-17T12:20:15Z</time>
      </trkpt>
      <trkpt lat="47.1938" lon="-1.85444">
        <ele>3.02</ele>
        <time>2021-10-17T12:20:54Z</time>
      </trkpt>
      <trkpt lat="47.19374" lon="-1.85447">
        <ele>3.02</ele>
        <time>2021-10-17T12:21:30Z</time>
      </trkpt>
      <trkpt lat="47.19376" lon="-1.85446">
        <ele>3.02</ele>
        <time>2021-10-17T12:22:15Z</time>
      </trkpt>
      <trkpt lat="47.19384" lon="-1.85451">
        <ele>3.5</ele>
        <time>2021-10-17T12:22:56Z</time>
      </trkpt>
      <trkpt lat="47.19376" lon="-1.8544">
        <ele>3.98</ele>
        <time>2021-10-17T12:23:35Z</time>
      </trkpt>
      <trkpt lat="47.19379" lon="-1.85444">
        <ele>3.98</ele>
        <time>2021-10-17T12:24:09Z</time>
      </trkpt>
      <trkpt lat="47.19383" lon="-1.85449">
        <ele>4.46</ele>
        <time>2021-10-17T12:24:57Z</time>
      </trkpt>
      <trkpt lat="47.19385" lon="-1.85448">
        <ele>4.46</ele>
        <time>2021-10-17T12:25:32Z</time>
      </trkpt>
      <trkpt lat="47.19381" lon="-1.85448">
        <ele>4.46</ele>
        <time>2021-10-17T12:26:08Z</time>
      </trkpt>
      <trkpt lat="47.19378" lon="-1.85447">
        <ele>4.46</ele>
        <time>2021-10-17T12:26:33Z</time>
      </trkpt>
      <trkpt lat="47.19377" lon="-1.85441">
        <ele>4.46</ele>
        <time>2021-10-17T12:27:09Z</time>
      </trkpt>
      <trkpt lat="47.19373" lon="-1.85447">
        <ele>4.46</ele>
        <time>2021-10-17T12:27:48Z</time>
      </trkpt>
      <trkpt lat="47.19372" lon="-1.85449">
        <ele>4.46</ele>
        <time>2021-10-17T12:28:27Z</time>
      </trkpt>
      <trkpt lat="47.19378" lon="-1.85442">
        <ele>3.98</ele>
        <time>2021-10-17T12:29:01Z</time>
      </trkpt>
      <trkpt lat="47.19383" lon="-1.85445">
        <ele>3.98</ele>
        <time>2021-10-17T12:29:29Z</time>
      </trkpt>
      <trkpt lat="47.1938" lon="-1.85444">
        <ele>3.5</ele>
        <time>2021-10-17T12:30:07Z</time>
      </trkpt>
      <trkpt lat="47.19381" lon="-1.85442">
        <ele>3.5</ele>
        <time>2021-10-17T12:30:45Z</time>
      </trkpt>
      <trkpt lat="47.1939" lon="-1.85431">
        <ele>3.02</ele>
        <time>2021-10-17T12:31:20Z</time>
      </trkpt>
      <trkpt lat="47.19389" lon="-1.85439">
        <ele>3.02</ele>
        <time>2021-10-17T12:31:54Z</time>
      </trkpt>
      <trkpt lat="47.19402" lon="-1.85439">
        <ele>2.54</ele>
        <time>2021-10-17T12:32:28Z</time>
      </trkpt>
      <trkpt lat="47.1939" lon="-1.85442">
        <ele>2.54</ele>
        <time>2021-10-17T12:33:06Z</time>
      </trkpt>
      <trkpt lat="47.19384" lon="-1.85454">
        <ele>2.54</ele>
        <time>2021-10-17T12:33:40Z</time>
      </trkpt>
      <trkpt lat="47.19388" lon="-1.85452">
        <ele>2.54</ele>
        <time>2021-10-17T12:34:07Z</time>
      </trkpt>
      <trkpt lat="47.19387" lon="-1.85447">
        <ele>2.54</ele>
        <time>2021-10-17T12:34:48Z</time>
      </trkpt>
      <trkpt lat="47.19383" lon="-1.85441">
        <ele>2.54</ele>
        <time>2021-10-17T12:35:23Z</time>
      </trkpt>
      <trkpt lat="47.19374" lon="-1.85439">
        <ele>2.54</ele>
        <time>2021-10-17T12:36:03Z</time>
      </trkpt>
      <trkpt lat="47.19379" lon="-1.85439">
        <ele>2.54</ele>
        <time>2021-10-17T12:36:34Z</time>
      </trkpt>
      <trkpt lat="47.19379" lon="-1.85436">
        <ele>2.54</ele>
        <time>2021-10-17T12:37:00Z</time>
      </trkpt>
      <trkpt lat="47.19381" lon="-1.8544">
        <ele>2.54</ele>
        <time>2021-10-17T12:37:22Z</time>
      </trkpt>
      <trkpt lat="47.19381" lon="-1.85441">
        <ele>2.54</ele>
        <time>2021-10-17T12:37:52Z</time>
      </trkpt>
      <trkpt lat="47.19385" lon="-1.85442">
        <ele>2.54</ele>
        <time>2021-10-17T12:38:12Z</time>
      </trkpt>
      <trkpt lat="47.19387" lon="-1.85443">
        <ele>2.54</ele>
        <time>2021-10-17T12:38:34Z</time>
      </trkpt>
      <trkpt lat="47.19376" lon="-1.85442">
        <ele>2.54</ele>
        <time>2021-10-17T12:38:46Z</time>
      </trkpt>
      <trkpt lat="47.19372" lon="-1.85443">
        <ele>2.54</ele>
        <time>2021-10-17T12:38:50Z</time>
      </trkpt>
      <trkpt lat="47.19336" lon="-1.85442">
        <ele>2.54</ele>
        <time>2021-10-17T12:39:09Z</time>
      </trkpt>
      <trkpt lat="47.19299" lon="-1.85429">
        <ele>3.02</ele>
        <time>2021-10-17T12:39:25Z</time>
      </trkpt>
      <trkpt lat="47.19271" lon="-1.85434">
        <ele>3.02</ele>
        <time>2021-10-17T12:39:37Z</time>
      </trkpt>
      <trkpt lat="47.19246" lon="-1.85441">
        <ele>3.5</ele>
        <time>2021-10-17T12:39:48Z</time>
      </trkpt>
      <trkpt lat="47.19227" lon="-1.85394">
        <ele>3.98</ele>
        <time>2021-10-17T12:40:03Z</time>
      </trkpt>
      <trkpt lat="47.19224" lon="-1.85387">
        <ele>3.98</ele>
        <time>2021-10-17T12:40:06Z</time>
      </trkpt>
      <trkpt lat="47.19224" lon="-1.85384">
        <ele>4.46</ele>
        <time>2021-10-17T12:40:07Z</time>
      </trkpt>
      <trkpt lat="47.19224" lon="-1.85381">
        <ele>4.46</ele>
        <time>2021-10-17T12:40:08Z</time>
      </trkpt>
      <trkpt lat="47.19225" lon="-1.85378">
        <ele>4.46</ele>
        <time>2021-10-17T12:40:09Z</time>
      </trkpt>
      <trkpt lat="47.19226" lon="-1.85375">
        <ele>4.94</ele>
        <time>2021-10-17T12:40:10Z</time>
      </trkpt>
      <trkpt lat="47.1925" lon="-1.85324">
        <ele>5.42</ele>
        <time>2021-10-17T12:40:28Z</time>
      </trkpt>
      <trkpt lat="47.19241" lon="-1.85298">
        <ele>3.98</ele>
        <time>2021-10-17T12:40:39Z</time>
      </trkpt>
      <trkpt lat="47.19216" lon="-1.85253">
        <ele>3.5</ele>
        <time>2021-10-17T12:40:50Z</time>
      </trkpt>
      <trkpt lat="47.19188" lon="-1.85173">
        <ele>3.02</ele>
        <time>2021-10-17T12:41:06Z</time>
      </trkpt>
      <trkpt lat="47.19172" lon="-1.85109">
        <ele>3.02</ele>
        <time>2021-10-17T12:41:20Z</time>
      </trkpt>
      <trkpt lat="47.19162" lon="-1.85043">
        <ele>2.54</ele>
        <time>2021-10-17T12:41:35Z</time>
      </trkpt>
      <trkpt lat="47.19158" lon="-1.84996">
        <ele>2.54</ele>
        <time>2021-10-17T12:41:48Z</time>
      </trkpt>
      <trkpt lat="47.19134" lon="-1.84951">
        <ele>2.54</ele>
        <time>2021-10-17T12:42:01Z</time>
      </trkpt>
      <trkpt lat="47.1909" lon="-1.84929">
        <ele>2.54</ele>
        <time>2021-10-17T12:42:14Z</time>
      </trkpt>
      <trkpt lat="47.19057" lon="-1.84892">
        <ele>2.54</ele>
        <time>2021-10-17T12:42:28Z</time>
      </trkpt>
      <trkpt lat="47.19052" lon="-1.84826">
        <ele>3.5</ele>
        <time>2021-10-17T12:42:43Z</time>
      </trkpt>
      <trkpt lat="47.19071" lon="-1.84769">
        <ele>3.5</ele>
        <time>2021-10-17T12:42:57Z</time>
      </trkpt>
      <trkpt lat="47.19111" lon="-1.84748">
        <ele>3.5</ele>
        <time>2021-10-17T12:43:10Z</time>
      </trkpt>
      <trkpt lat="47.19136" lon="-1.84717">
        <ele>3.5</ele>
        <time>2021-10-17T12:43:23Z</time>
      </trkpt>
      <trkpt lat="47.19134" lon="-1.84684">
        <ele>2.06</ele>
        <time>2021-10-17T12:43:34Z</time>
      </trkpt>
      <trkpt lat="47.19133" lon="-1.84677">
        <ele>2.06</ele>
        <time>2021-10-17T12:43:35Z</time>
      </trkpt>
      <trkpt lat="47.19122" lon="-1.84608">
        <ele>2.06</ele>
        <time>2021-10-17T12:43:49Z</time>
      </trkpt>
      <trkpt lat="47.19104" lon="-1.84544">
        <ele>2.06</ele>
        <time>2021-10-17T12:44:05Z</time>
      </trkpt>
      <trkpt lat="47.19101" lon="-1.84483">
        <ele>2.06</ele>
        <time>2021-10-17T12:44:19Z</time>
      </trkpt>
      <trkpt lat="47.19106" lon="-1.84414">
        <ele>2.06</ele>
        <time>2021-10-17T12:44:35Z</time>
      </trkpt>
      <trkpt lat="47.19107" lon="-1.84339">
        <ele>3.02</ele>
        <time>2021-10-17T12:44:52Z</time>
      </trkpt>
      <trkpt lat="47.19097" lon="-1.84251">
        <ele>3.02</ele>
        <time>2021-10-17T12:45:10Z</time>
      </trkpt>
      <trkpt lat="47.19102" lon="-1.84176">
        <ele>3.02</ele>
        <time>2021-10-17T12:45:27Z</time>
      </trkpt>
      <trkpt lat="47.19113" lon="-1.84143">
        <ele>3.02</ele>
        <time>2021-10-17T12:45:37Z</time>
      </trkpt>
      <trkpt lat="47.19115" lon="-1.84143">
        <ele>3.02</ele>
        <time>2021-10-17T12:45:38Z</time>
      </trkpt>
      <trkpt lat="47.19147" lon="-1.84129">
        <ele>3.5</ele>
        <time>2021-10-17T12:45:50Z</time>
      </trkpt>
      <trkpt lat="47.19192" lon="-1.84118">
        <ele>4.46</ele>
        <time>2021-10-17T12:46:07Z</time>
      </trkpt>
      <trkpt lat="47.19198" lon="-1.8411">
        <ele>4.94</ele>
        <time>2021-10-17T12:46:11Z</time>
      </trkpt>
      <trkpt lat="47.192" lon="-1.84103">
        <ele>4.94</ele>
        <time>2021-10-17T12:46:14Z</time>
      </trkpt>
      <trkpt lat="47.19201" lon="-1.841">
        <ele>4.94</ele>
        <time>2021-10-17T12:46:15Z</time>
      </trkpt>
      <trkpt lat="47.19201" lon="-1.84098">
        <ele>4.94</ele>
        <time>2021-10-17T12:46:16Z</time>
      </trkpt>
      <trkpt lat="47.19201" lon="-1.84096">
        <ele>5.42</ele>
        <time>2021-10-17T12:46:17Z</time>
      </trkpt>
      <trkpt lat="47.19205" lon="-1.8407">
        <ele>7.83</ele>
        <time>2021-10-17T12:46:32Z</time>
      </trkpt>
      <trkpt lat="47.19206" lon="-1.84022">
        <ele>10.71</ele>
        <time>2021-10-17T12:46:50Z</time>
      </trkpt>
      <trkpt lat="47.19199" lon="-1.83987">
        <ele>13.12</ele>
        <time>2021-10-17T12:47:07Z</time>
      </trkpt>
      <trkpt lat="47.19193" lon="-1.83954">
        <ele>14.08</ele>
        <time>2021-10-17T12:47:23Z</time>
      </trkpt>
      <trkpt lat="47.19185" lon="-1.83923">
        <ele>14.56</ele>
        <time>2021-10-17T12:47:38Z</time>
      </trkpt>
      <trkpt lat="47.19167" lon="-1.83864">
        <ele>14.56</ele>
        <time>2021-10-17T12:47:56Z</time>
      </trkpt>
      <trkpt lat="47.19153" lon="-1.83812">
        <ele>13.12</ele>
        <time>2021-10-17T12:48:07Z</time>
      </trkpt>
      <trkpt lat="47.19148" lon="-1.83788">
        <ele>12.63</ele>
        <time>2021-10-17T12:48:11Z</time>
      </trkpt>
      <trkpt lat="47.1913" lon="-1.8369">
        <ele>11.19</ele>
        <time>2021-10-17T12:48:25Z</time>
      </trkpt>
      <trkpt lat="47.19127" lon="-1.83644">
        <ele>10.71</ele>
        <time>2021-10-17T12:48:32Z</time>
      </trkpt>
      <trkpt lat="47.19127" lon="-1.83637">
        <ele>10.71</ele>
        <time>2021-10-17T12:48:33Z</time>
      </trkpt>
      <trkpt lat="47.19121" lon="-1.8357">
        <ele>12.15</ele>
        <time>2021-10-17T12:48:47Z</time>
      </trkpt>
      <trkpt lat="47.19119" lon="-1.8352">
        <ele>16</ele>
        <time>2021-10-17T12:49:05Z</time>
      </trkpt>
      <trkpt lat="47.19117" lon="-1.83501">
        <ele>17.44</ele>
        <time>2021-10-17T12:49:14Z</time>
      </trkpt>
      <trkpt lat="47.19108" lon="-1.83495">
        <ele>17.44</ele>
        <time>2021-10-17T12:49:21Z</time>
      </trkpt>
      <trkpt lat="47.19106" lon="-1.83495">
        <ele>17.44</ele>
        <time>2021-10-17T12:49:22Z</time>
      </trkpt>
      <trkpt lat="47.19064" lon="-1.83505">
        <ele>17.44</ele>
        <time>2021-10-17T12:49:38Z</time>
      </trkpt>
      <trkpt lat="47.19031" lon="-1.83512">
        <ele>16</ele>
        <time>2021-10-17T12:49:47Z</time>
      </trkpt>
      <trkpt lat="47.18958" lon="-1.83534">
        <ele>15.04</ele>
        <time>2021-10-17T12:50:06Z</time>
      </trkpt>
      <trkpt lat="47.18888" lon="-1.83555">
        <ele>13.12</ele>
        <time>2021-10-17T12:50:22Z</time>
      </trkpt>
      <trkpt lat="47.18815" lon="-1.8358">
        <ele>14.56</ele>
        <time>2021-10-17T12:50:40Z</time>
      </trkpt>
      <trkpt lat="47.18765" lon="-1.836">
        <ele>15.04</ele>
        <time>2021-10-17T12:50:56Z</time>
      </trkpt>
      <trkpt lat="47.18715" lon="-1.83618">
        <ele>13.6</ele>
        <time>2021-10-17T12:51:09Z</time>
      </trkpt>
      <trkpt lat="47.18643" lon="-1.83638">
        <ele>10.71</ele>
        <time>2021-10-17T12:51:21Z</time>
      </trkpt>
      <trkpt lat="47.18638" lon="-1.83643">
        <ele>10.71</ele>
        <time>2021-10-17T12:51:22Z</time>
      </trkpt>
      <trkpt lat="47.18632" lon="-1.8365">
        <ele>9.75</ele>
        <time>2021-10-17T12:51:23Z</time>
      </trkpt>
      <trkpt lat="47.18629" lon="-1.83658">
        <ele>9.75</ele>
        <time>2021-10-17T12:51:24Z</time>
      </trkpt>
      <trkpt lat="47.18627" lon="-1.83668">
        <ele>9.75</ele>
        <time>2021-10-17T12:51:25Z</time>
      </trkpt>
      <trkpt lat="47.18627" lon="-1.83678">
        <ele>9.75</ele>
        <time>2021-10-17T12:51:26Z</time>
      </trkpt>
      <trkpt lat="47.18627" lon="-1.83688">
        <ele>9.27</ele>
        <time>2021-10-17T12:51:27Z</time>
      </trkpt>
      <trkpt lat="47.18628" lon="-1.83697">
        <ele>9.27</ele>
        <time>2021-10-17T12:51:28Z</time>
      </trkpt>
      <trkpt lat="47.18627" lon="-1.83727">
        <ele>8.31</ele>
        <time>2021-10-17T12:51:31Z</time>
      </trkpt>
      <trkpt lat="47.18626" lon="-1.83737">
        <ele>7.35</ele>
        <time>2021-10-17T12:51:32Z</time>
      </trkpt>
      <trkpt lat="47.18624" lon="-1.83746">
        <ele>7.35</ele>
        <time>2021-10-17T12:51:33Z</time>
      </trkpt>
      <trkpt lat="47.18618" lon="-1.83765">
        <ele>6.87</ele>
        <time>2021-10-17T12:51:35Z</time>
      </trkpt>
      <trkpt lat="47.18615" lon="-1.83773">
        <ele>6.39</ele>
        <time>2021-10-17T12:51:36Z</time>
      </trkpt>
      <trkpt lat="47.18604" lon="-1.83794">
        <ele>6.39</ele>
        <time>2021-10-17T12:51:39Z</time>
      </trkpt>
      <trkpt lat="47.186" lon="-1.838">
        <ele>6.39</ele>
        <time>2021-10-17T12:51:40Z</time>
      </trkpt>
      <trkpt lat="47.18596" lon="-1.83805">
        <ele>6.39</ele>
        <time>2021-10-17T12:51:41Z</time>
      </trkpt>
      <trkpt lat="47.18552" lon="-1.83846">
        <ele>6.39</ele>
        <time>2021-10-17T12:51:54Z</time>
      </trkpt>
      <trkpt lat="47.18511" lon="-1.83886">
        <ele>5.91</ele>
        <time>2021-10-17T12:52:06Z</time>
      </trkpt>
      <trkpt lat="47.18502" lon="-1.83893">
        <ele>4.94</ele>
        <time>2021-10-17T12:52:08Z</time>
      </trkpt>
      <trkpt lat="47.18497" lon="-1.83895">
        <ele>4.46</ele>
        <time>2021-10-17T12:52:09Z</time>
      </trkpt>
      <trkpt lat="47.18492" lon="-1.83895">
        <ele>3.98</ele>
        <time>2021-10-17T12:52:10Z</time>
      </trkpt>
      <trkpt lat="47.18486" lon="-1.83894">
        <ele>3.98</ele>
        <time>2021-10-17T12:52:11Z</time>
      </trkpt>
      <trkpt lat="47.18479" lon="-1.83891">
        <ele>3.98</ele>
        <time>2021-10-17T12:52:12Z</time>
      </trkpt>
      <trkpt lat="47.18473" lon="-1.83887">
        <ele>3.02</ele>
        <time>2021-10-17T12:52:13Z</time>
      </trkpt>
      <trkpt lat="47.18467" lon="-1.83882">
        <ele>3.02</ele>
        <time>2021-10-17T12:52:14Z</time>
      </trkpt>
      <trkpt lat="47.18456" lon="-1.83872">
        <ele>3.02</ele>
        <time>2021-10-17T12:52:16Z</time>
      </trkpt>
      <trkpt lat="47.18404" lon="-1.83807">
        <ele>3.02</ele>
        <time>2021-10-17T12:52:30Z</time>
      </trkpt>
      <trkpt lat="47.18372" lon="-1.83754">
        <ele>2.54</ele>
        <time>2021-10-17T12:52:41Z</time>
      </trkpt>
      <trkpt lat="47.18335" lon="-1.83663">
        <ele>2.54</ele>
        <time>2021-10-17T12:52:58Z</time>
      </trkpt>
      <trkpt lat="47.18329" lon="-1.83614">
        <ele>2.54</ele>
        <time>2021-10-17T12:53:06Z</time>
      </trkpt>
      <trkpt lat="47.1833" lon="-1.83608">
        <ele>2.54</ele>
        <time>2021-10-17T12:53:07Z</time>
      </trkpt>
      <trkpt lat="47.18332" lon="-1.83595">
        <ele>2.54</ele>
        <time>2021-10-17T12:53:09Z</time>
      </trkpt>
      <trkpt lat="47.18342" lon="-1.8357">
        <ele>2.54</ele>
        <time>2021-10-17T12:53:14Z</time>
      </trkpt>
      <trkpt lat="47.18395" lon="-1.83514">
        <ele>2.06</ele>
        <time>2021-10-17T12:53:29Z</time>
      </trkpt>
      <trkpt lat="47.18424" lon="-1.83454">
        <ele>2.06</ele>
        <time>2021-10-17T12:53:42Z</time>
      </trkpt>
      <trkpt lat="47.18437" lon="-1.83424">
        <ele>3.5</ele>
        <time>2021-10-17T12:53:50Z</time>
      </trkpt>
      <trkpt lat="47.18439" lon="-1.83406">
        <ele>3.98</ele>
        <time>2021-10-17T12:53:56Z</time>
      </trkpt>
      <trkpt lat="47.18438" lon="-1.83405">
        <ele>3.98</ele>
        <time>2021-10-17T12:53:57Z</time>
      </trkpt>
      <trkpt lat="47.18436" lon="-1.83405">
        <ele>3.98</ele>
        <time>2021-10-17T12:53:58Z</time>
      </trkpt>
      <trkpt lat="47.18435" lon="-1.83404">
        <ele>3.98</ele>
        <time>2021-10-17T12:53:59Z</time>
      </trkpt>
      <trkpt lat="47.18433" lon="-1.83404">
        <ele>4.46</ele>
        <time>2021-10-17T12:54:00Z</time>
      </trkpt>
      <trkpt lat="47.18404" lon="-1.83407">
        <ele>5.91</ele>
        <time>2021-10-17T12:54:15Z</time>
      </trkpt>
      <trkpt lat="47.18376" lon="-1.83398">
        <ele>7.83</ele>
        <time>2021-10-17T12:54:31Z</time>
      </trkpt>
      <trkpt lat="47.18338" lon="-1.83396">
        <ele>7.83</ele>
        <time>2021-10-17T12:54:48Z</time>
      </trkpt>
      <trkpt lat="47.18314" lon="-1.83405">
        <ele>6.39</ele>
        <time>2021-10-17T12:54:54Z</time>
      </trkpt>
      <trkpt lat="47.18299" lon="-1.83402">
        <ele>5.42</ele>
        <time>2021-10-17T12:54:58Z</time>
      </trkpt>
      <trkpt lat="47.18295" lon="-1.834">
        <ele>4.46</ele>
        <time>2021-10-17T12:54:59Z</time>
      </trkpt>
      <trkpt lat="47.18292" lon="-1.83397">
        <ele>4.46</ele>
        <time>2021-10-17T12:55:00Z</time>
      </trkpt>
      <trkpt lat="47.18288" lon="-1.83395">
        <ele>4.46</ele>
        <time>2021-10-17T12:55:01Z</time>
      </trkpt>
      <trkpt lat="47.18285" lon="-1.83393">
        <ele>4.46</ele>
        <time>2021-10-17T12:55:02Z</time>
      </trkpt>
      <trkpt lat="47.18244" lon="-1.83358">
        <ele>3.5</ele>
        <time>2021-10-17T12:55:15Z</time>
      </trkpt>
      <trkpt lat="47.18217" lon="-1.83307">
        <ele>3.02</ele>
        <time>2021-10-17T12:55:28Z</time>
      </trkpt>
      <trkpt lat="47.18195" lon="-1.83266">
        <ele>3.02</ele>
        <time>2021-10-17T12:55:41Z</time>
      </trkpt>
      <trkpt lat="47.18173" lon="-1.8322">
        <ele>3.02</ele>
        <time>2021-10-17T12:55:55Z</time>
      </trkpt>
      <trkpt lat="47.18163" lon="-1.83177">
        <ele>3.02</ele>
        <time>2021-10-17T12:56:07Z</time>
      </trkpt>
      <trkpt lat="47.18147" lon="-1.8312">
        <ele>2.54</ele>
        <time>2021-10-17T12:56:21Z</time>
      </trkpt>
      <trkpt lat="47.18139" lon="-1.8307">
        <ele>2.54</ele>
        <time>2021-10-17T12:56:33Z</time>
      </trkpt>
      <trkpt lat="47.1815" lon="-1.83015">
        <ele>2.54</ele>
        <time>2021-10-17T12:56:45Z</time>
      </trkpt>
      <trkpt lat="47.18192" lon="-1.82993">
        <ele>2.54</ele>
        <time>2021-10-17T12:57:00Z</time>
      </trkpt>
      <trkpt lat="47.18227" lon="-1.82994">
        <ele>2.54</ele>
        <time>2021-10-17T12:57:12Z</time>
      </trkpt>
      <trkpt lat="47.18266" lon="-1.82984">
        <ele>2.54</ele>
        <time>2021-10-17T12:57:25Z</time>
      </trkpt>
      <trkpt lat="47.18286" lon="-1.82951">
        <ele>2.54</ele>
        <time>2021-10-17T12:57:36Z</time>
      </trkpt>
      <trkpt lat="47.18304" lon="-1.82911">
        <ele>2.54</ele>
        <time>2021-10-17T12:57:47Z</time>
      </trkpt>
      <trkpt lat="47.1832" lon="-1.82896">
        <ele>2.54</ele>
        <time>2021-10-17T12:57:59Z</time>
      </trkpt>
      <trkpt lat="47.18331" lon="-1.82888">
        <ele>3.5</ele>
        <time>2021-10-17T12:58:15Z</time>
      </trkpt>
      <trkpt lat="47.18335" lon="-1.82889">
        <ele>3.5</ele>
        <time>2021-10-17T12:58:38Z</time>
      </trkpt>
      <trkpt lat="47.18337" lon="-1.82885">
        <ele>3.5</ele>
        <time>2021-10-17T12:59:15Z</time>
      </trkpt>
      <trkpt lat="47.18333" lon="-1.82889">
        <ele>3.98</ele>
        <time>2021-10-17T12:59:50Z</time>
      </trkpt>
      <trkpt lat="47.18333" lon="-1.82889">
        <ele>3.98</ele>
        <time>2021-10-17T13:00:29Z</time>
      </trkpt>
      <trkpt lat="47.18337" lon="-1.8289">
        <ele>3.98</ele>
        <time>2021-10-17T13:01:09Z</time>
      </trkpt>
      <trkpt lat="47.18339" lon="-1.82885">
        <ele>3.98</ele>
        <time>2021-10-17T13:01:50Z</time>
      </trkpt>
      <trkpt lat="47.18343" lon="-1.82884">
        <ele>3.98</ele>
        <time>2021-10-17T13:02:25Z</time>
      </trkpt>
      <trkpt lat="47.1834" lon="-1.82881">
        <ele>4.46</ele>
        <time>2021-10-17T13:02:56Z</time>
      </trkpt>
      <trkpt lat="47.18338" lon="-1.82873">
        <ele>4.46</ele>
        <time>2021-10-17T13:03:01Z</time>
      </trkpt>
      <trkpt lat="47.18338" lon="-1.82871">
        <ele>4.46</ele>
        <time>2021-10-17T13:03:02Z</time>
      </trkpt>
      <trkpt lat="47.18338" lon="-1.82869">
        <ele>4.46</ele>
        <time>2021-10-17T13:03:03Z</time>
      </trkpt>
      <trkpt lat="47.18337" lon="-1.82866">
        <ele>4.46</ele>
        <time>2021-10-17T13:03:04Z</time>
      </trkpt>
      <trkpt lat="47.18337" lon="-1.82864">
        <ele>4.46</ele>
        <time>2021-10-17T13:03:05Z</time>
      </trkpt>
      <trkpt lat="47.18337" lon="-1.82862">
        <ele>4.46</ele>
        <time>2021-10-17T13:03:06Z</time>
      </trkpt>
      <trkpt lat="47.18326" lon="-1.82822">
        <ele>3.5</ele>
        <time>2021-10-17T13:03:18Z</time>
      </trkpt>
      <trkpt lat="47.18309" lon="-1.82778">
        <ele>3.02</ele>
        <time>2021-10-17T13:03:33Z</time>
      </trkpt>
      <trkpt lat="47.18307" lon="-1.82773">
        <ele>4.46</ele>
        <time>2021-10-17T13:03:35Z</time>
      </trkpt>
      <trkpt lat="47.18293" lon="-1.82724">
        <ele>3.5</ele>
        <time>2021-10-17T13:03:50Z</time>
      </trkpt>
      <trkpt lat="47.18289" lon="-1.82711">
        <ele>4.46</ele>
        <time>2021-10-17T13:03:54Z</time>
      </trkpt>
      <trkpt lat="47.18273" lon="-1.82661">
        <ele>4.46</ele>
        <time>2021-10-17T13:04:09Z</time>
      </trkpt>
      <trkpt lat="47.18269" lon="-1.8262">
        <ele>3.5</ele>
        <time>2021-10-17T13:04:19Z</time>
      </trkpt>
      <trkpt lat="47.18269" lon="-1.8257">
        <ele>3.5</ele>
        <time>2021-10-17T13:04:32Z</time>
      </trkpt>
      <trkpt lat="47.18274" lon="-1.82527">
        <ele>3.5</ele>
        <time>2021-10-17T13:04:44Z</time>
      </trkpt>
      <trkpt lat="47.18296" lon="-1.82492">
        <ele>3.5</ele>
        <time>2021-10-17T13:04:57Z</time>
      </trkpt>
      <trkpt lat="47.18308" lon="-1.82469">
        <ele>3.5</ele>
        <time>2021-10-17T13:05:06Z</time>
      </trkpt>
      <trkpt lat="47.18308" lon="-1.82467">
        <ele>3.5</ele>
        <time>2021-10-17T13:05:07Z</time>
      </trkpt>
      <trkpt lat="47.18307" lon="-1.82465">
        <ele>3.5</ele>
        <time>2021-10-17T13:05:08Z</time>
      </trkpt>
      <trkpt lat="47.18305" lon="-1.82463">
        <ele>3.5</ele>
        <time>2021-10-17T13:05:09Z</time>
      </trkpt>
      <trkpt lat="47.18304" lon="-1.8246">
        <ele>3.5</ele>
        <time>2021-10-17T13:05:10Z</time>
      </trkpt>
      <trkpt lat="47.18284" lon="-1.82432">
        <ele>3.02</ele>
        <time>2021-10-17T13:05:22Z</time>
      </trkpt>
      <trkpt lat="47.18273" lon="-1.824">
        <ele>3.02</ele>
        <time>2021-10-17T13:05:33Z</time>
      </trkpt>
      <trkpt lat="47.18273" lon="-1.82397">
        <ele>3.02</ele>
        <time>2021-10-17T13:05:34Z</time>
      </trkpt>
      <trkpt lat="47.18286" lon="-1.82366">
        <ele>3.02</ele>
        <time>2021-10-17T13:05:45Z</time>
      </trkpt>
      <trkpt lat="47.18304" lon="-1.82351">
        <ele>3.02</ele>
        <time>2021-10-17T13:05:55Z</time>
      </trkpt>
      <trkpt lat="47.1833" lon="-1.82323">
        <ele>3.02</ele>
        <time>2021-10-17T13:06:09Z</time>
      </trkpt>
      <trkpt lat="47.18338" lon="-1.82287">
        <ele>3.98</ele>
        <time>2021-10-17T13:06:21Z</time>
      </trkpt>
      <trkpt lat="47.18334" lon="-1.82251">
        <ele>4.46</ele>
        <time>2021-10-17T13:06:36Z</time>
      </trkpt>
      <trkpt lat="47.18314" lon="-1.82231">
        <ele>3.5</ele>
        <time>2021-10-17T13:06:47Z</time>
      </trkpt>
      <trkpt lat="47.18312" lon="-1.8223">
        <ele>3.02</ele>
        <time>2021-10-17T13:06:48Z</time>
      </trkpt>
      <trkpt lat="47.18277" lon="-1.82211">
        <ele>2.54</ele>
        <time>2021-10-17T13:07:02Z</time>
      </trkpt>
      <trkpt lat="47.1825" lon="-1.82199">
        <ele>1.58</ele>
        <time>2021-10-17T13:07:15Z</time>
      </trkpt>
      <trkpt lat="47.1823" lon="-1.82194">
        <ele>3.02</ele>
        <time>2021-10-17T13:07:25Z</time>
      </trkpt>
      <trkpt lat="47.18228" lon="-1.82195">
        <ele>3.02</ele>
        <time>2021-10-17T13:07:26Z</time>
      </trkpt>
      <trkpt lat="47.18226" lon="-1.82196">
        <ele>3.02</ele>
        <time>2021-10-17T13:07:27Z</time>
      </trkpt>
      <trkpt lat="47.18225" lon="-1.82198">
        <ele>3.02</ele>
        <time>2021-10-17T13:07:28Z</time>
      </trkpt>
      <trkpt lat="47.18223" lon="-1.822">
        <ele>3.02</ele>
        <time>2021-10-17T13:07:29Z</time>
      </trkpt>
      <trkpt lat="47.18199" lon="-1.82232">
        <ele>3.98</ele>
        <time>2021-10-17T13:07:43Z</time>
      </trkpt>
      <trkpt lat="47.18171" lon="-1.82249">
        <ele>3.98</ele>
        <time>2021-10-17T13:07:54Z</time>
      </trkpt>
      <trkpt lat="47.18134" lon="-1.82247">
        <ele>3.98</ele>
        <time>2021-10-17T13:08:07Z</time>
      </trkpt>
      <trkpt lat="47.18094" lon="-1.82227">
        <ele>2.54</ele>
        <time>2021-10-17T13:08:21Z</time>
      </trkpt>
      <trkpt lat="47.18082" lon="-1.82212">
        <ele>2.06</ele>
        <time>2021-10-17T13:08:28Z</time>
      </trkpt>
      <trkpt lat="47.1808" lon="-1.82201">
        <ele>2.06</ele>
        <time>2021-10-17T13:08:35Z</time>
      </trkpt>
      <trkpt lat="47.18077" lon="-1.82185">
        <ele>2.06</ele>
        <time>2021-10-17T13:08:45Z</time>
      </trkpt>
      <trkpt lat="47.18076" lon="-1.82178">
        <ele>2.06</ele>
        <time>2021-10-17T13:08:49Z</time>
      </trkpt>
      <trkpt lat="47.18074" lon="-1.82171">
        <ele>2.06</ele>
        <time>2021-10-17T13:09:03Z</time>
      </trkpt>
      <trkpt lat="47.18075" lon="-1.82174">
        <ele>2.06</ele>
        <time>2021-10-17T13:09:38Z</time>
      </trkpt>
      <trkpt lat="47.18071" lon="-1.82165">
        <ele>2.54</ele>
        <time>2021-10-17T13:10:12Z</time>
      </trkpt>
      <trkpt lat="47.18078" lon="-1.82167">
        <ele>2.54</ele>
        <time>2021-10-17T13:10:50Z</time>
      </trkpt>
      <trkpt lat="47.18076" lon="-1.82169">
        <ele>2.54</ele>
        <time>2021-10-17T13:11:24Z</time>
      </trkpt>
      <trkpt lat="47.18082" lon="-1.82172">
        <ele>3.02</ele>
        <time>2021-10-17T13:11:59Z</time>
      </trkpt>
      <trkpt lat="47.18083" lon="-1.82176">
        <ele>3.02</ele>
        <time>2021-10-17T13:12:37Z</time>
      </trkpt>
      <trkpt lat="47.18078" lon="-1.82171">
        <ele>3.02</ele>
        <time>2021-10-17T13:13:22Z</time>
      </trkpt>
      <trkpt lat="47.18075" lon="-1.82179">
        <ele>3.02</ele>
        <time>2021-10-17T13:14:07Z</time>
      </trkpt>
      <trkpt lat="47.1807" lon="-1.82174">
        <ele>3.5</ele>
        <time>2021-10-17T13:14:45Z</time>
      </trkpt>
      <trkpt lat="47.18072" lon="-1.82169">
        <ele>3.5</ele>
        <time>2021-10-17T13:15:32Z</time>
      </trkpt>
      <trkpt lat="47.18075" lon="-1.82173">
        <ele>3.5</ele>
        <time>2021-10-17T13:16:08Z</time>
      </trkpt>
      <trkpt lat="47.18078" lon="-1.82171">
        <ele>3.5</ele>
        <time>2021-10-17T13:16:49Z</time>
      </trkpt>
      <trkpt lat="47.1808" lon="-1.82172">
        <ele>3.5</ele>
        <time>2021-10-17T13:17:25Z</time>
      </trkpt>
      <trkpt lat="47.18079" lon="-1.82172">
        <ele>3.5</ele>
        <time>2021-10-17T13:18:02Z</time>
      </trkpt>
      <trkpt lat="47.18081" lon="-1.8217">
        <ele>3.5</ele>
        <time>2021-10-17T13:18:41Z</time>
      </trkpt>
      <trkpt lat="47.18078" lon="-1.82169">
        <ele>3.5</ele>
        <time>2021-10-17T13:19:16Z</time>
      </trkpt>
      <trkpt lat="47.18075" lon="-1.82171">
        <ele>3.5</ele>
        <time>2021-10-17T13:19:57Z</time>
      </trkpt>
      <trkpt lat="47.18076" lon="-1.8217">
        <ele>3.5</ele>
        <time>2021-10-17T13:20:38Z</time>
      </trkpt>
      <trkpt lat="47.18076" lon="-1.82167">
        <ele>3.5</ele>
        <time>2021-10-17T13:21:14Z</time>
      </trkpt>
      <trkpt lat="47.18073" lon="-1.82173">
        <ele>3.98</ele>
        <time>2021-10-17T13:21:54Z</time>
      </trkpt>
      <trkpt lat="47.18072" lon="-1.82175">
        <ele>3.98</ele>
        <time>2021-10-17T13:22:33Z</time>
      </trkpt>
      <trkpt lat="47.18081" lon="-1.82171">
        <ele>3.98</ele>
        <time>2021-10-17T13:23:05Z</time>
      </trkpt>
      <trkpt lat="47.18081" lon="-1.82171">
        <ele>3.98</ele>
        <time>2021-10-17T13:23:46Z</time>
      </trkpt>
      <trkpt lat="47.1808" lon="-1.8217">
        <ele>3.98</ele>
        <time>2021-10-17T13:24:30Z</time>
      </trkpt>
      <trkpt lat="47.18075" lon="-1.82176">
        <ele>4.46</ele>
        <time>2021-10-17T13:25:21Z</time>
      </trkpt>
      <trkpt lat="47.18075" lon="-1.82173">
        <ele>4.46</ele>
        <time>2021-10-17T13:25:58Z</time>
      </trkpt>
      <trkpt lat="47.18076" lon="-1.8217">
        <ele>4.46</ele>
        <time>2021-10-17T13:26:35Z</time>
      </trkpt>
      <trkpt lat="47.18071" lon="-1.82173">
        <ele>4.46</ele>
        <time>2021-10-17T13:27:27Z</time>
      </trkpt>
      <trkpt lat="47.18072" lon="-1.82175">
        <ele>4.46</ele>
        <time>2021-10-17T13:28:10Z</time>
      </trkpt>
      <trkpt lat="47.18075" lon="-1.82174">
        <ele>4.46</ele>
        <time>2021-10-17T13:29:05Z</time>
      </trkpt>
      <trkpt lat="47.18073" lon="-1.82173">
        <ele>4.46</ele>
        <time>2021-10-17T13:29:52Z</time>
      </trkpt>
      <trkpt lat="47.18071" lon="-1.82172">
        <ele>4.46</ele>
        <time>2021-10-17T13:30:40Z</time>
      </trkpt>
      <trkpt lat="47.18072" lon="-1.8217">
        <ele>4.46</ele>
        <time>2021-10-17T13:31:12Z</time>
      </trkpt>
      <trkpt lat="47.18074" lon="-1.82172">
        <ele>4.46</ele>
        <time>2021-10-17T13:31:55Z</time>
      </trkpt>
      <trkpt lat="47.18073" lon="-1.82173">
        <ele>4.46</ele>
        <time>2021-10-17T13:32:44Z</time>
      </trkpt>
      <trkpt lat="47.18072" lon="-1.82168">
        <ele>4.46</ele>
        <time>2021-10-17T13:33:36Z</time>
      </trkpt>
      <trkpt lat="47.18071" lon="-1.82168">
        <ele>4.46</ele>
        <time>2021-10-17T13:34:28Z</time>
      </trkpt>
      <trkpt lat="47.18067" lon="-1.82165">
        <ele>4.94</ele>
        <time>2021-10-17T13:35:16Z</time>
      </trkpt>
      <trkpt lat="47.18067" lon="-1.82171">
        <ele>5.91</ele>
        <time>2021-10-17T13:36:08Z</time>
      </trkpt>
      <trkpt lat="47.18072" lon="-1.82171">
        <ele>5.91</ele>
        <time>2021-10-17T13:37:02Z</time>
      </trkpt>
      <trkpt lat="47.18073" lon="-1.82172">
        <ele>6.39</ele>
        <time>2021-10-17T13:37:38Z</time>
      </trkpt>
      <trkpt lat="47.18078" lon="-1.82169">
        <ele>6.39</ele>
        <time>2021-10-17T13:38:19Z</time>
      </trkpt>
      <trkpt lat="47.18071" lon="-1.82174">
        <ele>6.39</ele>
        <time>2021-10-17T13:39:00Z</time>
      </trkpt>
      <trkpt lat="47.18071" lon="-1.82169">
        <ele>6.39</ele>
        <time>2021-10-17T13:39:39Z</time>
      </trkpt>
      <trkpt lat="47.1807" lon="-1.82171">
        <ele>6.39</ele>
        <time>2021-10-17T13:40:32Z</time>
      </trkpt>
      <trkpt lat="47.18071" lon="-1.82171">
        <ele>6.39</ele>
        <time>2021-10-17T13:41:10Z</time>
      </trkpt>
      <trkpt lat="47.1807" lon="-1.82172">
        <ele>6.39</ele>
        <time>2021-10-17T13:41:52Z</time>
      </trkpt>
      <trkpt lat="47.18073" lon="-1.82171">
        <ele>6.39</ele>
        <time>2021-10-17T13:42:33Z</time>
      </trkpt>
      <trkpt lat="47.1807" lon="-1.82169">
        <ele>6.39</ele>
        <time>2021-10-17T13:43:17Z</time>
      </trkpt>
      <trkpt lat="47.1807" lon="-1.82172">
        <ele>6.39</ele>
        <time>2021-10-17T13:43:57Z</time>
      </trkpt>
      <trkpt lat="47.18067" lon="-1.82172">
        <ele>6.39</ele>
        <time>2021-10-17T13:44:41Z</time>
      </trkpt>
      <trkpt lat="47.18068" lon="-1.82173">
        <ele>6.39</ele>
        <time>2021-10-17T13:45:27Z</time>
      </trkpt>
      <trkpt lat="47.18072" lon="-1.8217">
        <ele>6.39</ele>
        <time>2021-10-17T13:46:14Z</time>
      </trkpt>
      <trkpt lat="47.18071" lon="-1.82172">
        <ele>6.39</ele>
        <time>2021-10-17T13:46:57Z</time>
      </trkpt>
      <trkpt lat="47.18071" lon="-1.82169">
        <ele>6.87</ele>
        <time>2021-10-17T13:47:36Z</time>
      </trkpt>
      <trkpt lat="47.1807" lon="-1.82168">
        <ele>6.87</ele>
        <time>2021-10-17T13:48:23Z</time>
      </trkpt>
      <trkpt lat="47.1807" lon="-1.82169">
        <ele>6.87</ele>
        <time>2021-10-17T13:49:05Z</time>
      </trkpt>
      <trkpt lat="47.18072" lon="-1.82177">
        <ele>5.91</ele>
        <time>2021-10-17T13:49:38Z</time>
      </trkpt>
      <trkpt lat="47.18069" lon="-1.82167">
        <ele>5.91</ele>
        <time>2021-10-17T13:50:15Z</time>
      </trkpt>
      <trkpt lat="47.18069" lon="-1.82167">
        <ele>5.91</ele>
        <time>2021-10-17T13:50:54Z</time>
      </trkpt>
      <trkpt lat="47.18071" lon="-1.82166">
        <ele>5.91</ele>
        <time>2021-10-17T13:51:07Z</time>
      </trkpt>
      <trkpt lat="47.18078" lon="-1.82165">
        <ele>5.91</ele>
        <time>2021-10-17T13:51:37Z</time>
      </trkpt>
      <trkpt lat="47.18077" lon="-1.82166">
        <ele>5.91</ele>
        <time>2021-10-17T13:52:14Z</time>
      </trkpt>
      <trkpt lat="47.18077" lon="-1.82172">
        <ele>5.91</ele>
        <time>2021-10-17T13:52:43Z</time>
      </trkpt>
      <trkpt lat="47.18077" lon="-1.82174">
        <ele>5.91</ele>
        <time>2021-10-17T13:53:23Z</time>
      </trkpt>
      <trkpt lat="47.18075" lon="-1.82172">
        <ele>5.91</ele>
        <time>2021-10-17T13:53:57Z</time>
      </trkpt>
      <trkpt lat="47.18076" lon="-1.82173">
        <ele>5.91</ele>
        <time>2021-10-17T13:54:21Z</time>
      </trkpt>
      <trkpt lat="47.18077" lon="-1.82158">
        <ele>5.91</ele>
        <time>2021-10-17T13:54:34Z</time>
      </trkpt>
      <trkpt lat="47.18077" lon="-1.82156">
        <ele>5.91</ele>
        <time>2021-10-17T13:54:35Z</time>
      </trkpt>
      <trkpt lat="47.18076" lon="-1.82153">
        <ele>5.91</ele>
        <time>2021-10-17T13:54:36Z</time>
      </trkpt>
      <trkpt lat="47.18076" lon="-1.82151">
        <ele>5.91</ele>
        <time>2021-10-17T13:54:37Z</time>
      </trkpt>
      <trkpt lat="47.18076" lon="-1.82148">
        <ele>5.91</ele>
        <time>2021-10-17T13:54:38Z</time>
      </trkpt>
      <trkpt lat="47.18076" lon="-1.82145">
        <ele>5.91</ele>
        <time>2021-10-17T13:54:39Z</time>
      </trkpt>
      <trkpt lat="47.18076" lon="-1.82142">
        <ele>5.91</ele>
        <time>2021-10-17T13:54:40Z</time>
      </trkpt>
      <trkpt lat="47.18076" lon="-1.82139">
        <ele>5.91</ele>
        <time>2021-10-17T13:54:41Z</time>
      </trkpt>
      <trkpt lat="47.18076" lon="-1.82136">
        <ele>5.91</ele>
        <time>2021-10-17T13:54:42Z</time>
      </trkpt>
      <trkpt lat="47.18077" lon="-1.82074">
        <ele>5.91</ele>
        <time>2021-10-17T13:54:58Z</time>
      </trkpt>
      <trkpt lat="47.18077" lon="-1.82019">
        <ele>6.87</ele>
        <time>2021-10-17T13:55:11Z</time>
      </trkpt>
      <trkpt lat="47.18076" lon="-1.81948">
        <ele>7.35</ele>
        <time>2021-10-17T13:55:27Z</time>
      </trkpt>
      <trkpt lat="47.18076" lon="-1.81885">
        <ele>6.87</ele>
        <time>2021-10-17T13:55:41Z</time>
      </trkpt>
      <trkpt lat="47.18066" lon="-1.81813">
        <ele>5.91</ele>
        <time>2021-10-17T13:55:58Z</time>
      </trkpt>
      <trkpt lat="47.18049" lon="-1.81753">
        <ele>5.91</ele>
        <time>2021-10-17T13:56:12Z</time>
      </trkpt>
      <trkpt lat="47.18046" lon="-1.81677">
        <ele>5.42</ele>
        <time>2021-10-17T13:56:27Z</time>
      </trkpt>
      <trkpt lat="47.1805" lon="-1.81644">
        <ele>4.46</ele>
        <time>2021-10-17T13:56:34Z</time>
      </trkpt>
      <trkpt lat="47.18052" lon="-1.81642">
        <ele>5.42</ele>
        <time>2021-10-17T13:56:35Z</time>
      </trkpt>
      <trkpt lat="47.18055" lon="-1.81641">
        <ele>5.42</ele>
        <time>2021-10-17T13:56:36Z</time>
      </trkpt>
      <trkpt lat="47.18057" lon="-1.8164">
        <ele>5.42</ele>
        <time>2021-10-17T13:56:37Z</time>
      </trkpt>
      <trkpt lat="47.18059" lon="-1.81639">
        <ele>5.42</ele>
        <time>2021-10-17T13:56:38Z</time>
      </trkpt>
      <trkpt lat="47.18085" lon="-1.81631">
        <ele>8.31</ele>
        <time>2021-10-17T13:56:51Z</time>
      </trkpt>
      <trkpt lat="47.18105" lon="-1.8163">
        <ele>11.19</ele>
        <time>2021-10-17T13:57:05Z</time>
      </trkpt>
      <trkpt lat="47.18112" lon="-1.81631">
        <ele>12.15</ele>
        <time>2021-10-17T13:57:11Z</time>
      </trkpt>
      <trkpt lat="47.18114" lon="-1.8163">
        <ele>12.15</ele>
        <time>2021-10-17T13:57:12Z</time>
      </trkpt>
      <trkpt lat="47.18117" lon="-1.81627">
        <ele>12.63</ele>
        <time>2021-10-17T13:57:15Z</time>
      </trkpt>
      <trkpt lat="47.18117" lon="-1.81625">
        <ele>13.6</ele>
        <time>2021-10-17T13:57:16Z</time>
      </trkpt>
      <trkpt lat="47.18118" lon="-1.81623">
        <ele>13.6</ele>
        <time>2021-10-17T13:57:17Z</time>
      </trkpt>
      <trkpt lat="47.18118" lon="-1.81621">
        <ele>13.6</ele>
        <time>2021-10-17T13:57:18Z</time>
      </trkpt>
      <trkpt lat="47.18122" lon="-1.81601">
        <ele>15.04</ele>
        <time>2021-10-17T13:57:29Z</time>
      </trkpt>
      <trkpt lat="47.18124" lon="-1.81599">
        <ele>15.04</ele>
        <time>2021-10-17T13:57:30Z</time>
      </trkpt>
      <trkpt lat="47.18128" lon="-1.81595">
        <ele>15.52</ele>
        <time>2021-10-17T13:57:33Z</time>
      </trkpt>
      <trkpt lat="47.18134" lon="-1.81587">
        <ele>16.48</ele>
        <time>2021-10-17T13:57:40Z</time>
      </trkpt>
      <trkpt lat="47.18135" lon="-1.81581">
        <ele>16.96</ele>
        <time>2021-10-17T13:57:44Z</time>
      </trkpt>
      <trkpt lat="47.18138" lon="-1.8155">
        <ele>16.48</ele>
        <time>2021-10-17T13:58:04Z</time>
      </trkpt>
      <trkpt lat="47.1814" lon="-1.81533">
        <ele>16.96</ele>
        <time>2021-10-17T13:58:16Z</time>
      </trkpt>
      <trkpt lat="47.1814" lon="-1.81528">
        <ele>16.96</ele>
        <time>2021-10-17T13:58:20Z</time>
      </trkpt>
      <trkpt lat="47.18141" lon="-1.81527">
        <ele>16.96</ele>
        <time>2021-10-17T13:58:21Z</time>
      </trkpt>
      <trkpt lat="47.18142" lon="-1.81527">
        <ele>16.96</ele>
        <time>2021-10-17T13:58:22Z</time>
      </trkpt>
      <trkpt lat="47.18143" lon="-1.81528">
        <ele>16.96</ele>
        <time>2021-10-17T13:58:23Z</time>
      </trkpt>
      <trkpt lat="47.18145" lon="-1.8153">
        <ele>16.96</ele>
        <time>2021-10-17T13:58:38Z</time>
      </trkpt>
      <trkpt lat="47.18141" lon="-1.81543">
        <ele>16.96</ele>
        <time>2021-10-17T13:58:51Z</time>
      </trkpt>
      <trkpt lat="47.1814" lon="-1.81543">
        <ele>16.96</ele>
        <time>2021-10-17T13:58:52Z</time>
      </trkpt>
      <trkpt lat="47.18139" lon="-1.81541">
        <ele>16.96</ele>
        <time>2021-10-17T13:58:53Z</time>
      </trkpt>
      <trkpt lat="47.1814" lon="-1.81532">
        <ele>16.96</ele>
        <time>2021-10-17T13:59:00Z</time>
      </trkpt>
      <trkpt lat="47.1814" lon="-1.81528">
        <ele>16.96</ele>
        <time>2021-10-17T13:59:03Z</time>
      </trkpt>
      <trkpt lat="47.1814" lon="-1.81527">
        <ele>16.96</ele>
        <time>2021-10-17T13:59:04Z</time>
      </trkpt>
      <trkpt lat="47.18141" lon="-1.81525">
        <ele>16.96</ele>
        <time>2021-10-17T13:59:05Z</time>
      </trkpt>
      <trkpt lat="47.18141" lon="-1.81517">
        <ele>16.96</ele>
        <time>2021-10-17T13:59:10Z</time>
      </trkpt>
      <trkpt lat="47.18144" lon="-1.815">
        <ele>16.96</ele>
        <time>2021-10-17T13:59:24Z</time>
      </trkpt>
      <trkpt lat="47.18145" lon="-1.81498">
        <ele>16.96</ele>
        <time>2021-10-17T13:59:25Z</time>
      </trkpt>
      <trkpt lat="47.18142" lon="-1.81467">
        <ele>17.44</ele>
        <time>2021-10-17T13:59:39Z</time>
      </trkpt>
      <trkpt lat="47.18135" lon="-1.81427">
        <ele>17.44</ele>
        <time>2021-10-17T13:59:56Z</time>
      </trkpt>
      <trkpt lat="47.18111" lon="-1.81388">
        <ele>17.44</ele>
        <time>2021-10-17T14:00:12Z</time>
      </trkpt>
      <trkpt lat="47.18092" lon="-1.81354">
        <ele>17.44</ele>
        <time>2021-10-17T14:00:27Z</time>
      </trkpt>
      <trkpt lat="47.18078" lon="-1.81339">
        <ele>17.44</ele>
        <time>2021-10-17T14:00:40Z</time>
      </trkpt>
      <trkpt lat="47.18066" lon="-1.81315">
        <ele>16</ele>
        <time>2021-10-17T14:00:56Z</time>
      </trkpt>
      <trkpt lat="47.18064" lon="-1.81311">
        <ele>16</ele>
        <time>2021-10-17T14:01:12Z</time>
      </trkpt>
      <trkpt lat="47.18063" lon="-1.81309">
        <ele>15.04</ele>
        <time>2021-10-17T14:01:43Z</time>
      </trkpt>
      <trkpt lat="47.18064" lon="-1.81309">
        <ele>15.04</ele>
        <time>2021-10-17T14:02:19Z</time>
      </trkpt>
      <trkpt lat="47.18063" lon="-1.81306">
        <ele>15.52</ele>
        <time>2021-10-17T14:02:56Z</time>
      </trkpt>
      <trkpt lat="47.18064" lon="-1.81299">
        <ele>15.52</ele>
        <time>2021-10-17T14:03:17Z</time>
      </trkpt>
      <trkpt lat="47.18047" lon="-1.81262">
        <ele>15.52</ele>
        <time>2021-10-17T14:03:33Z</time>
      </trkpt>
      <trkpt lat="47.18018" lon="-1.81188">
        <ele>13.6</ele>
        <time>2021-10-17T14:03:52Z</time>
      </trkpt>
      <trkpt lat="47.17983" lon="-1.81101">
        <ele>12.63</ele>
        <time>2021-10-17T14:04:14Z</time>
      </trkpt>
      <trkpt lat="47.1795" lon="-1.81035">
        <ele>12.63</ele>
        <time>2021-10-17T14:04:31Z</time>
      </trkpt>
      <trkpt lat="47.17903" lon="-1.8098">
        <ele>11.67</ele>
        <time>2021-10-17T14:04:46Z</time>
      </trkpt>
      <trkpt lat="47.17901" lon="-1.80975">
        <ele>11.67</ele>
        <time>2021-10-17T14:04:47Z</time>
      </trkpt>
      <trkpt lat="47.17883" lon="-1.80893">
        <ele>11.67</ele>
        <time>2021-10-17T14:05:02Z</time>
      </trkpt>
      <trkpt lat="47.17871" lon="-1.80787">
        <ele>11.67</ele>
        <time>2021-10-17T14:05:21Z</time>
      </trkpt>
      <trkpt lat="47.17859" lon="-1.80673">
        <ele>11.19</ele>
        <time>2021-10-17T14:05:42Z</time>
      </trkpt>
      <trkpt lat="47.17863" lon="-1.8059">
        <ele>11.19</ele>
        <time>2021-10-17T14:05:59Z</time>
      </trkpt>
      <trkpt lat="47.17871" lon="-1.80511">
        <ele>13.6</ele>
        <time>2021-10-17T14:06:18Z</time>
      </trkpt>
      <trkpt lat="47.17869" lon="-1.80432">
        <ele>14.56</ele>
        <time>2021-10-17T14:06:40Z</time>
      </trkpt>
      <trkpt lat="47.1787" lon="-1.80358">
        <ele>15.04</ele>
        <time>2021-10-17T14:07:00Z</time>
      </trkpt>
      <trkpt lat="47.17893" lon="-1.80318">
        <ele>15.52</ele>
        <time>2021-10-17T14:07:14Z</time>
      </trkpt>
      <trkpt lat="47.17919" lon="-1.80265">
        <ele>16</ele>
        <time>2021-10-17T14:07:31Z</time>
      </trkpt>
      <trkpt lat="47.17921" lon="-1.80194">
        <ele>15.04</ele>
        <time>2021-10-17T14:07:45Z</time>
      </trkpt>
      <trkpt lat="47.17916" lon="-1.80124">
        <ele>11.67</ele>
        <time>2021-10-17T14:07:56Z</time>
      </trkpt>
      <trkpt lat="47.17916" lon="-1.8011">
        <ele>11.67</ele>
        <time>2021-10-17T14:07:58Z</time>
      </trkpt>
      <trkpt lat="47.17917" lon="-1.80098">
        <ele>10.71</ele>
        <time>2021-10-17T14:08:00Z</time>
      </trkpt>
      <trkpt lat="47.17922" lon="-1.80071">
        <ele>10.23</ele>
        <time>2021-10-17T14:08:04Z</time>
      </trkpt>
      <trkpt lat="47.17912" lon="-1.79987">
        <ele>9.27</ele>
        <time>2021-10-17T14:08:18Z</time>
      </trkpt>
      <trkpt lat="47.17896" lon="-1.79904">
        <ele>9.27</ele>
        <time>2021-10-17T14:08:35Z</time>
      </trkpt>
      <trkpt lat="47.17902" lon="-1.79844">
        <ele>8.79</ele>
        <time>2021-10-17T14:08:47Z</time>
      </trkpt>
      <trkpt lat="47.17917" lon="-1.7982">
        <ele>10.71</ele>
        <time>2021-10-17T14:08:55Z</time>
      </trkpt>
      <trkpt lat="47.17954" lon="-1.79778">
        <ele>13.6</ele>
        <time>2021-10-17T14:09:15Z</time>
      </trkpt>
      <trkpt lat="47.17982" lon="-1.79746">
        <ele>15.52</ele>
        <time>2021-10-17T14:09:32Z</time>
      </trkpt>
      <trkpt lat="47.18012" lon="-1.79691">
        <ele>17.44</ele>
        <time>2021-10-17T14:09:52Z</time>
      </trkpt>
      <trkpt lat="47.18028" lon="-1.79624">
        <ele>18.4</ele>
        <time>2021-10-17T14:10:09Z</time>
      </trkpt>
      <trkpt lat="47.18045" lon="-1.79557">
        <ele>18.88</ele>
        <time>2021-10-17T14:10:25Z</time>
      </trkpt>
      <trkpt lat="47.18086" lon="-1.79518">
        <ele>20.32</ele>
        <time>2021-10-17T14:10:41Z</time>
      </trkpt>
      <trkpt lat="47.18134" lon="-1.79466">
        <ele>20.81</ele>
        <time>2021-10-17T14:11:00Z</time>
      </trkpt>
      <trkpt lat="47.18164" lon="-1.79408">
        <ele>20.81</ele>
        <time>2021-10-17T14:11:15Z</time>
      </trkpt>
      <trkpt lat="47.18166" lon="-1.79391">
        <ele>20.81</ele>
        <time>2021-10-17T14:11:18Z</time>
      </trkpt>
      <trkpt lat="47.18165" lon="-1.79385">
        <ele>20.81</ele>
        <time>2021-10-17T14:11:19Z</time>
      </trkpt>
      <trkpt lat="47.18165" lon="-1.79379">
        <ele>19.84</ele>
        <time>2021-10-17T14:11:20Z</time>
      </trkpt>
      <trkpt lat="47.1816" lon="-1.79344">
        <ele>18.88</ele>
        <time>2021-10-17T14:11:26Z</time>
      </trkpt>
      <trkpt lat="47.18161" lon="-1.7934">
        <ele>18.88</ele>
        <time>2021-10-17T14:11:27Z</time>
      </trkpt>
      <trkpt lat="47.18164" lon="-1.79336">
        <ele>18.88</ele>
        <time>2021-10-17T14:11:28Z</time>
      </trkpt>
      <trkpt lat="47.18167" lon="-1.79335">
        <ele>18.88</ele>
        <time>2021-10-17T14:11:29Z</time>
      </trkpt>
      <trkpt lat="47.18169" lon="-1.79333">
        <ele>18.88</ele>
        <time>2021-10-17T14:11:30Z</time>
      </trkpt>
      <trkpt lat="47.18172" lon="-1.79332">
        <ele>18.88</ele>
        <time>2021-10-17T14:11:31Z</time>
      </trkpt>
      <trkpt lat="47.18174" lon="-1.79333">
        <ele>18.4</ele>
        <time>2021-10-17T14:11:32Z</time>
      </trkpt>
      <trkpt lat="47.18176" lon="-1.79334">
        <ele>18.4</ele>
        <time>2021-10-17T14:11:33Z</time>
      </trkpt>
      <trkpt lat="47.18179" lon="-1.79335">
        <ele>18.4</ele>
        <time>2021-10-17T14:11:35Z</time>
      </trkpt>
      <trkpt lat="47.1818" lon="-1.79336">
        <ele>17.92</ele>
        <time>2021-10-17T14:11:36Z</time>
      </trkpt>
      <trkpt lat="47.18182" lon="-1.79337">
        <ele>17.92</ele>
        <time>2021-10-17T14:11:37Z</time>
      </trkpt>
      <trkpt lat="47.18183" lon="-1.79338">
        <ele>17.92</ele>
        <time>2021-10-17T14:11:38Z</time>
      </trkpt>
      <trkpt lat="47.18184" lon="-1.7934">
        <ele>17.92</ele>
        <time>2021-10-17T14:11:39Z</time>
      </trkpt>
      <trkpt lat="47.18186" lon="-1.79341">
        <ele>17.92</ele>
        <time>2021-10-17T14:11:40Z</time>
      </trkpt>
      <trkpt lat="47.18188" lon="-1.79344">
        <ele>19.36</ele>
        <time>2021-10-17T14:11:42Z</time>
      </trkpt>
      <trkpt lat="47.18201" lon="-1.79364">
        <ele>20.81</ele>
        <time>2021-10-17T14:11:55Z</time>
      </trkpt>
      <trkpt lat="47.18203" lon="-1.79368">
        <ele>20.81</ele>
        <time>2021-10-17T14:11:57Z</time>
      </trkpt>
      <trkpt lat="47.18222" lon="-1.79388">
        <ele>21.29</ele>
        <time>2021-10-17T14:12:11Z</time>
      </trkpt>
      <trkpt lat="47.18225" lon="-1.79391">
        <ele>21.77</ele>
        <time>2021-10-17T14:12:13Z</time>
      </trkpt>
      <trkpt lat="47.18247" lon="-1.79414">
        <ele>22.73</ele>
        <time>2021-10-17T14:12:28Z</time>
      </trkpt>
      <trkpt lat="47.18273" lon="-1.79439">
        <ele>24.17</ele>
        <time>2021-10-17T14:12:42Z</time>
      </trkpt>
      <trkpt lat="47.1828" lon="-1.79448">
        <ele>23.69</ele>
        <time>2021-10-17T14:12:47Z</time>
      </trkpt>
      <trkpt lat="47.18315" lon="-1.79474">
        <ele>23.69</ele>
        <time>2021-10-17T14:13:03Z</time>
      </trkpt>
      <trkpt lat="47.18351" lon="-1.79504">
        <ele>23.69</ele>
        <time>2021-10-17T14:13:20Z</time>
      </trkpt>
      <trkpt lat="47.18389" lon="-1.79534">
        <ele>23.69</ele>
        <time>2021-10-17T14:13:36Z</time>
      </trkpt>
      <trkpt lat="47.18422" lon="-1.79559">
        <ele>22.25</ele>
        <time>2021-10-17T14:13:50Z</time>
      </trkpt>
      <trkpt lat="47.18453" lon="-1.79578">
        <ele>22.25</ele>
        <time>2021-10-17T14:14:02Z</time>
      </trkpt>
      <trkpt lat="47.18507" lon="-1.79602">
        <ele>22.25</ele>
        <time>2021-10-17T14:14:17Z</time>
      </trkpt>
      <trkpt lat="47.18565" lon="-1.79632">
        <ele>22.25</ele>
        <time>2021-10-17T14:14:34Z</time>
      </trkpt>
      <trkpt lat="47.18609" lon="-1.79657">
        <ele>21.77</ele>
        <time>2021-10-17T14:14:48Z</time>
      </trkpt>
      <trkpt lat="47.1864" lon="-1.79675">
        <ele>21.29</ele>
        <time>2021-10-17T14:14:58Z</time>
      </trkpt>
      <trkpt lat="47.18642" lon="-1.79673">
        <ele>21.29</ele>
        <time>2021-10-17T14:14:59Z</time>
      </trkpt>
      <trkpt lat="47.18644" lon="-1.79669">
        <ele>21.29</ele>
        <time>2021-10-17T14:15:00Z</time>
      </trkpt>
      <trkpt lat="47.18645" lon="-1.79665">
        <ele>21.29</ele>
        <time>2021-10-17T14:15:01Z</time>
      </trkpt>
      <trkpt lat="47.18645" lon="-1.7966">
        <ele>21.29</ele>
        <time>2021-10-17T14:15:02Z</time>
      </trkpt>
      <trkpt lat="47.18645" lon="-1.79655">
        <ele>21.29</ele>
        <time>2021-10-17T14:15:03Z</time>
      </trkpt>
      <trkpt lat="47.18644" lon="-1.7965">
        <ele>20.81</ele>
        <time>2021-10-17T14:15:04Z</time>
      </trkpt>
      <trkpt lat="47.18641" lon="-1.79583">
        <ele>18.4</ele>
        <time>2021-10-17T14:15:19Z</time>
      </trkpt>
      <trkpt lat="47.18665" lon="-1.79566">
        <ele>16</ele>
        <time>2021-10-17T14:15:27Z</time>
      </trkpt>
      <trkpt lat="47.18709" lon="-1.79556">
        <ele>17.44</ele>
        <time>2021-10-17T14:15:42Z</time>
      </trkpt>
      <trkpt lat="47.18725" lon="-1.79525">
        <ele>19.36</ele>
        <time>2021-10-17T14:15:58Z</time>
      </trkpt>
      <trkpt lat="47.18727" lon="-1.79514">
        <ele>19.36</ele>
        <time>2021-10-17T14:16:04Z</time>
      </trkpt>
      <trkpt lat="47.18727" lon="-1.79512">
        <ele>19.36</ele>
        <time>2021-10-17T14:16:05Z</time>
      </trkpt>
      <trkpt lat="47.18729" lon="-1.795">
        <ele>19.36</ele>
        <time>2021-10-17T14:16:21Z</time>
      </trkpt>
      <trkpt lat="47.1873" lon="-1.79496">
        <ele>19.36</ele>
        <time>2021-10-17T14:16:38Z</time>
      </trkpt>
      <trkpt lat="47.18732" lon="-1.79495">
        <ele>19.36</ele>
        <time>2021-10-17T14:17:01Z</time>
      </trkpt>
      <trkpt lat="47.18732" lon="-1.79491">
        <ele>19.36</ele>
        <time>2021-10-17T14:17:28Z</time>
      </trkpt>
      <trkpt lat="47.18732" lon="-1.7949">
        <ele>19.36</ele>
        <time>2021-10-17T14:17:29Z</time>
      </trkpt>
      <trkpt lat="47.18732" lon="-1.79488">
        <ele>19.36</ele>
        <time>2021-10-17T14:17:30Z</time>
      </trkpt>
      <trkpt lat="47.18732" lon="-1.79486">
        <ele>19.36</ele>
        <time>2021-10-17T14:17:31Z</time>
      </trkpt>
      <trkpt lat="47.18733" lon="-1.79483">
        <ele>19.36</ele>
        <time>2021-10-17T14:17:32Z</time>
      </trkpt>
      <trkpt lat="47.18733" lon="-1.79481">
        <ele>19.36</ele>
        <time>2021-10-17T14:17:33Z</time>
      </trkpt>
      <trkpt lat="47.18733" lon="-1.79479">
        <ele>19.36</ele>
        <time>2021-10-17T14:17:34Z</time>
      </trkpt>
      <trkpt lat="47.18733" lon="-1.79476">
        <ele>19.36</ele>
        <time>2021-10-17T14:17:35Z</time>
      </trkpt>
      <trkpt lat="47.18734" lon="-1.79474">
        <ele>19.36</ele>
        <time>2021-10-17T14:17:36Z</time>
      </trkpt>
      <trkpt lat="47.18734" lon="-1.79471">
        <ele>19.36</ele>
        <time>2021-10-17T14:17:37Z</time>
      </trkpt>
      <trkpt lat="47.18735" lon="-1.79469">
        <ele>19.36</ele>
        <time>2021-10-17T14:17:38Z</time>
      </trkpt>
      <trkpt lat="47.18735" lon="-1.79466">
        <ele>19.36</ele>
        <time>2021-10-17T14:17:39Z</time>
      </trkpt>
      <trkpt lat="47.18736" lon="-1.79464">
        <ele>19.36</ele>
        <time>2021-10-17T14:17:40Z</time>
      </trkpt>
      <trkpt lat="47.18743" lon="-1.79421">
        <ele>19.36</ele>
        <time>2021-10-17T14:17:54Z</time>
      </trkpt>
      <trkpt lat="47.18749" lon="-1.79375">
        <ele>19.36</ele>
        <time>2021-10-17T14:18:09Z</time>
      </trkpt>
      <trkpt lat="47.18752" lon="-1.79354">
        <ele>19.36</ele>
        <time>2021-10-17T14:18:16Z</time>
      </trkpt>
      <trkpt lat="47.18752" lon="-1.79352">
        <ele>19.36</ele>
        <time>2021-10-17T14:18:17Z</time>
      </trkpt>
      <trkpt lat="47.18753" lon="-1.79349">
        <ele>19.36</ele>
        <time>2021-10-17T14:18:18Z</time>
      </trkpt>
      <trkpt lat="47.18761" lon="-1.793">
        <ele>19.84</ele>
        <time>2021-10-17T14:18:33Z</time>
      </trkpt>
      <trkpt lat="47.18768" lon="-1.79258">
        <ele>19.36</ele>
        <time>2021-10-17T14:18:48Z</time>
      </trkpt>
      <trkpt lat="47.18773" lon="-1.79218">
        <ele>19.36</ele>
        <time>2021-10-17T14:19:01Z</time>
      </trkpt>
      <trkpt lat="47.18777" lon="-1.79155">
        <ele>19.84</ele>
        <time>2021-10-17T14:19:19Z</time>
      </trkpt>
      <trkpt lat="47.18778" lon="-1.79108">
        <ele>19.84</ele>
        <time>2021-10-17T14:19:31Z</time>
      </trkpt>
      <trkpt lat="47.18785" lon="-1.7905">
        <ele>19.84</ele>
        <time>2021-10-17T14:19:44Z</time>
      </trkpt>
      <trkpt lat="47.18791" lon="-1.78989">
        <ele>19.84</ele>
        <time>2021-10-17T14:19:58Z</time>
      </trkpt>
      <trkpt lat="47.18797" lon="-1.78928">
        <ele>19.84</ele>
        <time>2021-10-17T14:20:13Z</time>
      </trkpt>
      <trkpt lat="47.18806" lon="-1.7887">
        <ele>18.4</ele>
        <time>2021-10-17T14:20:26Z</time>
      </trkpt>
      <trkpt lat="47.18807" lon="-1.78853">
        <ele>19.84</ele>
        <time>2021-10-17T14:20:30Z</time>
      </trkpt>
      <trkpt lat="47.18813" lon="-1.78804">
        <ele>19.84</ele>
        <time>2021-10-17T14:20:42Z</time>
      </trkpt>
      <trkpt lat="47.18817" lon="-1.78754">
        <ele>18.88</ele>
        <time>2021-10-17T14:20:55Z</time>
      </trkpt>
      <trkpt lat="47.18816" lon="-1.7875">
        <ele>18.88</ele>
        <time>2021-10-17T14:20:56Z</time>
      </trkpt>
      <trkpt lat="47.18817" lon="-1.78745">
        <ele>18.88</ele>
        <time>2021-10-17T14:20:57Z</time>
      </trkpt>
      <trkpt lat="47.18817" lon="-1.78741">
        <ele>18.88</ele>
        <time>2021-10-17T14:20:58Z</time>
      </trkpt>
      <trkpt lat="47.18817" lon="-1.78737">
        <ele>18.88</ele>
        <time>2021-10-17T14:20:59Z</time>
      </trkpt>
      <trkpt lat="47.18818" lon="-1.78733">
        <ele>18.88</ele>
        <time>2021-10-17T14:21:00Z</time>
      </trkpt>
      <trkpt lat="47.18818" lon="-1.78729">
        <ele>18.88</ele>
        <time>2021-10-17T14:21:01Z</time>
      </trkpt>
      <trkpt lat="47.18819" lon="-1.78724">
        <ele>18.88</ele>
        <time>2021-10-17T14:21:02Z</time>
      </trkpt>
      <trkpt lat="47.18819" lon="-1.7872">
        <ele>18.88</ele>
        <time>2021-10-17T14:21:03Z</time>
      </trkpt>
      <trkpt lat="47.18819" lon="-1.78716">
        <ele>18.88</ele>
        <time>2021-10-17T14:21:04Z</time>
      </trkpt>
      <trkpt lat="47.1882" lon="-1.78712">
        <ele>18.88</ele>
        <time>2021-10-17T14:21:05Z</time>
      </trkpt>
      <trkpt lat="47.18821" lon="-1.78709">
        <ele>18.88</ele>
        <time>2021-10-17T14:21:06Z</time>
      </trkpt>
      <trkpt lat="47.18822" lon="-1.78706">
        <ele>18.88</ele>
        <time>2021-10-17T14:21:07Z</time>
      </trkpt>
      <trkpt lat="47.18823" lon="-1.78702">
        <ele>18.88</ele>
        <time>2021-10-17T14:21:08Z</time>
      </trkpt>
      <trkpt lat="47.18823" lon="-1.78698">
        <ele>18.88</ele>
        <time>2021-10-17T14:21:09Z</time>
      </trkpt>
      <trkpt lat="47.18829" lon="-1.78651">
        <ele>18.4</ele>
        <time>2021-10-17T14:21:21Z</time>
      </trkpt>
      <trkpt lat="47.18833" lon="-1.78599">
        <ele>18.4</ele>
        <time>2021-10-17T14:21:34Z</time>
      </trkpt>
      <trkpt lat="47.1884" lon="-1.78551">
        <ele>18.4</ele>
        <time>2021-10-17T14:21:46Z</time>
      </trkpt>
      <trkpt lat="47.18847" lon="-1.78498">
        <ele>18.4</ele>
        <time>2021-10-17T14:21:59Z</time>
      </trkpt>
      <trkpt lat="47.18854" lon="-1.78457">
        <ele>18.4</ele>
        <time>2021-10-17T14:22:10Z</time>
      </trkpt>
      <trkpt lat="47.18862" lon="-1.78412">
        <ele>18.4</ele>
        <time>2021-10-17T14:22:22Z</time>
      </trkpt>
      <trkpt lat="47.18876" lon="-1.78354">
        <ele>18.4</ele>
        <time>2021-10-17T14:22:37Z</time>
      </trkpt>
      <trkpt lat="47.18885" lon="-1.78293">
        <ele>18.4</ele>
        <time>2021-10-17T14:22:53Z</time>
      </trkpt>
      <trkpt lat="47.18895" lon="-1.78247">
        <ele>17.92</ele>
        <time>2021-10-17T14:23:07Z</time>
      </trkpt>
      <trkpt lat="47.18899" lon="-1.78219">
        <ele>16.96</ele>
        <time>2021-10-17T14:23:19Z</time>
      </trkpt>
      <trkpt lat="47.18903" lon="-1.78215">
        <ele>16.96</ele>
        <time>2021-10-17T14:23:41Z</time>
      </trkpt>
      <trkpt lat="47.18903" lon="-1.78209">
        <ele>16.96</ele>
        <time>2021-10-17T14:24:04Z</time>
      </trkpt>
      <trkpt lat="47.18903" lon="-1.78207">
        <ele>16.96</ele>
        <time>2021-10-17T14:24:05Z</time>
      </trkpt>
      <trkpt lat="47.18904" lon="-1.78206">
        <ele>16.96</ele>
        <time>2021-10-17T14:24:06Z</time>
      </trkpt>
      <trkpt lat="47.18905" lon="-1.782">
        <ele>16.96</ele>
        <time>2021-10-17T14:24:19Z</time>
      </trkpt>
      <trkpt lat="47.18909" lon="-1.78179">
        <ele>16</ele>
        <time>2021-10-17T14:24:31Z</time>
      </trkpt>
      <trkpt lat="47.18925" lon="-1.78104">
        <ele>16</ele>
        <time>2021-10-17T14:24:52Z</time>
      </trkpt>
      <trkpt lat="47.18941" lon="-1.7804">
        <ele>15.52</ele>
        <time>2021-10-17T14:25:08Z</time>
      </trkpt>
      <trkpt lat="47.18954" lon="-1.7796">
        <ele>15.04</ele>
        <time>2021-10-17T14:25:25Z</time>
      </trkpt>
      <trkpt lat="47.18958" lon="-1.77868">
        <ele>14.56</ele>
        <time>2021-10-17T14:25:44Z</time>
      </trkpt>
      <trkpt lat="47.18961" lon="-1.77796">
        <ele>13.6</ele>
        <time>2021-10-17T14:25:58Z</time>
      </trkpt>
      <trkpt lat="47.18974" lon="-1.77707">
        <ele>12.63</ele>
        <time>2021-10-17T14:26:15Z</time>
      </trkpt>
      <trkpt lat="47.18981" lon="-1.7765">
        <ele>11.67</ele>
        <time>2021-10-17T14:26:25Z</time>
      </trkpt>
      <trkpt lat="47.18995" lon="-1.77574">
        <ele>11.67</ele>
        <time>2021-10-17T14:26:40Z</time>
      </trkpt>
      <trkpt lat="47.19004" lon="-1.77519">
        <ele>13.6</ele>
        <time>2021-10-17T14:26:54Z</time>
      </trkpt>
      <trkpt lat="47.19012" lon="-1.77458">
        <ele>14.56</ele>
        <time>2021-10-17T14:27:12Z</time>
      </trkpt>
      <trkpt lat="47.19018" lon="-1.77404">
        <ele>15.04</ele>
        <time>2021-10-17T14:27:27Z</time>
      </trkpt>
      <trkpt lat="47.19023" lon="-1.77358">
        <ele>15.52</ele>
        <time>2021-10-17T14:27:41Z</time>
      </trkpt>
      <trkpt lat="47.1903" lon="-1.77303">
        <ele>15.52</ele>
        <time>2021-10-17T14:27:56Z</time>
      </trkpt>
      <trkpt lat="47.1904" lon="-1.77252">
        <ele>16</ele>
        <time>2021-10-17T14:28:10Z</time>
      </trkpt>
      <trkpt lat="47.19062" lon="-1.77186">
        <ele>16</ele>
        <time>2021-10-17T14:28:27Z</time>
      </trkpt>
      <trkpt lat="47.19091" lon="-1.77106">
        <ele>16</ele>
        <time>2021-10-17T14:28:46Z</time>
      </trkpt>
      <trkpt lat="47.19101" lon="-1.77064">
        <ele>15.04</ele>
        <time>2021-10-17T14:28:54Z</time>
      </trkpt>
      <trkpt lat="47.19115" lon="-1.76986">
        <ele>14.08</ele>
        <time>2021-10-17T14:29:09Z</time>
      </trkpt>
      <trkpt lat="47.19125" lon="-1.76916">
        <ele>13.6</ele>
        <time>2021-10-17T14:29:23Z</time>
      </trkpt>
      <trkpt lat="47.19134" lon="-1.76836">
        <ele>14.08</ele>
        <time>2021-10-17T14:29:40Z</time>
      </trkpt>
      <trkpt lat="47.19143" lon="-1.76773">
        <ele>14.08</ele>
        <time>2021-10-17T14:29:56Z</time>
      </trkpt>
      <trkpt lat="47.19139" lon="-1.76724">
        <ele>14.08</ele>
        <time>2021-10-17T14:30:12Z</time>
      </trkpt>
      <trkpt lat="47.19137" lon="-1.76714">
        <ele>15.04</ele>
        <time>2021-10-17T14:30:18Z</time>
      </trkpt>
      <trkpt lat="47.19137" lon="-1.76711">
        <ele>15.04</ele>
        <time>2021-10-17T14:30:19Z</time>
      </trkpt>
      <trkpt lat="47.19135" lon="-1.76669">
        <ele>16</ele>
        <time>2021-10-17T14:30:33Z</time>
      </trkpt>
      <trkpt lat="47.19106" lon="-1.76625">
        <ele>16</ele>
        <time>2021-10-17T14:30:49Z</time>
      </trkpt>
      <trkpt lat="47.19068" lon="-1.76603">
        <ele>16.96</ele>
        <time>2021-10-17T14:31:03Z</time>
      </trkpt>
      <trkpt lat="47.19033" lon="-1.76584">
        <ele>16.96</ele>
        <time>2021-10-17T14:31:18Z</time>
      </trkpt>
      <trkpt lat="47.19005" lon="-1.7657">
        <ele>17.44</ele>
        <time>2021-10-17T14:31:33Z</time>
      </trkpt>
      <trkpt lat="47.18977" lon="-1.76554">
        <ele>17.44</ele>
        <time>2021-10-17T14:31:48Z</time>
      </trkpt>
      <trkpt lat="47.1894" lon="-1.76532">
        <ele>17.44</ele>
        <time>2021-10-17T14:32:05Z</time>
      </trkpt>
      <trkpt lat="47.18901" lon="-1.76513">
        <ele>17.92</ele>
        <time>2021-10-17T14:32:21Z</time>
      </trkpt>
      <trkpt lat="47.1889" lon="-1.76509">
        <ele>16.48</ele>
        <time>2021-10-17T14:32:25Z</time>
      </trkpt>
      <trkpt lat="47.18839" lon="-1.76509">
        <ele>16.48</ele>
        <time>2021-10-17T14:32:42Z</time>
      </trkpt>
      <trkpt lat="47.18793" lon="-1.76498">
        <ele>16</ele>
        <time>2021-10-17T14:32:58Z</time>
      </trkpt>
      <trkpt lat="47.18752" lon="-1.76476">
        <ele>16</ele>
        <time>2021-10-17T14:33:12Z</time>
      </trkpt>
      <trkpt lat="47.18703" lon="-1.76449">
        <ele>15.52</ele>
        <time>2021-10-17T14:33:28Z</time>
      </trkpt>
      <trkpt lat="47.18656" lon="-1.76421">
        <ele>15.52</ele>
        <time>2021-10-17T14:33:43Z</time>
      </trkpt>
      <trkpt lat="47.1861" lon="-1.764">
        <ele>16</ele>
        <time>2021-10-17T14:33:58Z</time>
      </trkpt>
      <trkpt lat="47.18599" lon="-1.76392">
        <ele>14.56</ele>
        <time>2021-10-17T14:34:03Z</time>
      </trkpt>
      <trkpt lat="47.18597" lon="-1.76383">
        <ele>16</ele>
        <time>2021-10-17T14:34:06Z</time>
      </trkpt>
      <trkpt lat="47.18597" lon="-1.76376">
        <ele>16</ele>
        <time>2021-10-17T14:34:09Z</time>
      </trkpt>
      <trkpt lat="47.18598" lon="-1.76373">
        <ele>16</ele>
        <time>2021-10-17T14:34:10Z</time>
      </trkpt>
      <trkpt lat="47.186" lon="-1.76371">
        <ele>16</ele>
        <time>2021-10-17T14:34:11Z</time>
      </trkpt>
      <trkpt lat="47.18601" lon="-1.76369">
        <ele>16</ele>
        <time>2021-10-17T14:34:12Z</time>
      </trkpt>
      <trkpt lat="47.18603" lon="-1.76366">
        <ele>16</ele>
        <time>2021-10-17T14:34:13Z</time>
      </trkpt>
      <trkpt lat="47.18604" lon="-1.76363">
        <ele>16</ele>
        <time>2021-10-17T14:34:14Z</time>
      </trkpt>
      <trkpt lat="47.18605" lon="-1.7636">
        <ele>16</ele>
        <time>2021-10-17T14:34:15Z</time>
      </trkpt>
      <trkpt lat="47.18607" lon="-1.76357">
        <ele>16</ele>
        <time>2021-10-17T14:34:16Z</time>
      </trkpt>
      <trkpt lat="47.18621" lon="-1.76323">
        <ele>16.48</ele>
        <time>2021-10-17T14:34:29Z</time>
      </trkpt>
      <trkpt lat="47.18641" lon="-1.76277">
        <ele>14.56</ele>
        <time>2021-10-17T14:34:41Z</time>
      </trkpt>
      <trkpt lat="47.1867" lon="-1.7621">
        <ele>13.6</ele>
        <time>2021-10-17T14:34:53Z</time>
      </trkpt>
      <trkpt lat="47.18691" lon="-1.76158">
        <ele>13.12</ele>
        <time>2021-10-17T14:35:04Z</time>
      </trkpt>
      <trkpt lat="47.18712" lon="-1.76108">
        <ele>14.56</ele>
        <time>2021-10-17T14:35:14Z</time>
      </trkpt>
      <trkpt lat="47.18737" lon="-1.76049">
        <ele>16.48</ele>
        <time>2021-10-17T14:35:29Z</time>
      </trkpt>
      <trkpt lat="47.18764" lon="-1.75986">
        <ele>16.48</ele>
        <time>2021-10-17T14:35:45Z</time>
      </trkpt>
      <trkpt lat="47.18797" lon="-1.75912">
        <ele>16.96</ele>
        <time>2021-10-17T14:36:02Z</time>
      </trkpt>
      <trkpt lat="47.18814" lon="-1.75874">
        <ele>17.44</ele>
        <time>2021-10-17T14:36:15Z</time>
      </trkpt>
      <trkpt lat="47.18818" lon="-1.75821">
        <ele>17.92</ele>
        <time>2021-10-17T14:36:28Z</time>
      </trkpt>
      <trkpt lat="47.18825" lon="-1.75773">
        <ele>17.92</ele>
        <time>2021-10-17T14:36:41Z</time>
      </trkpt>
      <trkpt lat="47.18834" lon="-1.75737">
        <ele>18.4</ele>
        <time>2021-10-17T14:36:53Z</time>
      </trkpt>
      <trkpt lat="47.18842" lon="-1.75686">
        <ele>18.88</ele>
        <time>2021-10-17T14:37:06Z</time>
      </trkpt>
      <trkpt lat="47.18848" lon="-1.75645">
        <ele>19.36</ele>
        <time>2021-10-17T14:37:18Z</time>
      </trkpt>
      <trkpt lat="47.18849" lon="-1.75642">
        <ele>19.36</ele>
        <time>2021-10-17T14:37:19Z</time>
      </trkpt>
      <trkpt lat="47.18849" lon="-1.75639">
        <ele>19.36</ele>
        <time>2021-10-17T14:37:20Z</time>
      </trkpt>
      <trkpt lat="47.18856" lon="-1.75595">
        <ele>20.32</ele>
        <time>2021-10-17T14:37:32Z</time>
      </trkpt>
      <trkpt lat="47.18865" lon="-1.75549">
        <ele>20.32</ele>
        <time>2021-10-17T14:37:44Z</time>
      </trkpt>
      <trkpt lat="47.18868" lon="-1.75504">
        <ele>20.32</ele>
        <time>2021-10-17T14:37:57Z</time>
      </trkpt>
      <trkpt lat="47.18868" lon="-1.755">
        <ele>20.32</ele>
        <time>2021-10-17T14:37:58Z</time>
      </trkpt>
      <trkpt lat="47.18875" lon="-1.75442">
        <ele>18.88</ele>
        <time>2021-10-17T14:38:13Z</time>
      </trkpt>
      <trkpt lat="47.18876" lon="-1.75392">
        <ele>20.81</ele>
        <time>2021-10-17T14:38:26Z</time>
      </trkpt>
      <trkpt lat="47.18878" lon="-1.75368">
        <ele>19.36</ele>
        <time>2021-10-17T14:38:33Z</time>
      </trkpt>
      <trkpt lat="47.18882" lon="-1.7529">
        <ele>19.36</ele>
        <time>2021-10-17T14:38:50Z</time>
      </trkpt>
      <trkpt lat="47.1888" lon="-1.75205">
        <ele>18.88</ele>
        <time>2021-10-17T14:39:07Z</time>
      </trkpt>
      <trkpt lat="47.18883" lon="-1.75144">
        <ele>18.4</ele>
        <time>2021-10-17T14:39:20Z</time>
      </trkpt>
      <trkpt lat="47.18882" lon="-1.75088">
        <ele>18.4</ele>
        <time>2021-10-17T14:39:32Z</time>
      </trkpt>
      <trkpt lat="47.18882" lon="-1.75037">
        <ele>19.36</ele>
        <time>2021-10-17T14:39:46Z</time>
      </trkpt>
      <trkpt lat="47.18882" lon="-1.7498">
        <ele>19.36</ele>
        <time>2021-10-17T14:40:00Z</time>
      </trkpt>
      <trkpt lat="47.18881" lon="-1.74928">
        <ele>19.36</ele>
        <time>2021-10-17T14:40:13Z</time>
      </trkpt>
      <trkpt lat="47.18881" lon="-1.74918">
        <ele>17.92</ele>
        <time>2021-10-17T14:40:16Z</time>
      </trkpt>
      <trkpt lat="47.18884" lon="-1.74873">
        <ele>18.88</ele>
        <time>2021-10-17T14:40:31Z</time>
      </trkpt>
      <trkpt lat="47.18885" lon="-1.74868">
        <ele>18.88</ele>
        <time>2021-10-17T14:40:35Z</time>
      </trkpt>
      <trkpt lat="47.18886" lon="-1.74867">
        <ele>18.88</ele>
        <time>2021-10-17T14:40:36Z</time>
      </trkpt>
      <trkpt lat="47.18887" lon="-1.74865">
        <ele>18.88</ele>
        <time>2021-10-17T14:40:37Z</time>
      </trkpt>
      <trkpt lat="47.18888" lon="-1.74864">
        <ele>18.88</ele>
        <time>2021-10-17T14:40:38Z</time>
      </trkpt>
      <trkpt lat="47.18889" lon="-1.74864">
        <ele>18.88</ele>
        <time>2021-10-17T14:40:39Z</time>
      </trkpt>
      <trkpt lat="47.1891" lon="-1.74868">
        <ele>18.88</ele>
        <time>2021-10-17T14:40:52Z</time>
      </trkpt>
      <trkpt lat="47.18924" lon="-1.74862">
        <ele>17.92</ele>
        <time>2021-10-17T14:40:59Z</time>
      </trkpt>
      <trkpt lat="47.18926" lon="-1.74863">
        <ele>17.92</ele>
        <time>2021-10-17T14:41:13Z</time>
      </trkpt>
      <trkpt lat="47.18931" lon="-1.74865">
        <ele>17.92</ele>
        <time>2021-10-17T14:41:39Z</time>
      </trkpt>
      <trkpt lat="47.18975" lon="-1.74851">
        <ele>17.92</ele>
        <time>2021-10-17T14:41:55Z</time>
      </trkpt>
      <trkpt lat="47.19034" lon="-1.74837">
        <ele>17.44</ele>
        <time>2021-10-17T14:42:11Z</time>
      </trkpt>
      <trkpt lat="47.19054" lon="-1.74793">
        <ele>17.44</ele>
        <time>2021-10-17T14:42:21Z</time>
      </trkpt>
      <trkpt lat="47.19076" lon="-1.74694">
        <ele>17.92</ele>
        <time>2021-10-17T14:42:40Z</time>
      </trkpt>
      <trkpt lat="47.19086" lon="-1.74595">
        <ele>18.88</ele>
        <time>2021-10-17T14:42:58Z</time>
      </trkpt>
      <trkpt lat="47.19096" lon="-1.74508">
        <ele>19.36</ele>
        <time>2021-10-17T14:43:15Z</time>
      </trkpt>
      <trkpt lat="47.19101" lon="-1.74457">
        <ele>19.84</ele>
        <time>2021-10-17T14:43:30Z</time>
      </trkpt>
      <trkpt lat="47.19102" lon="-1.74454">
        <ele>19.84</ele>
        <time>2021-10-17T14:43:31Z</time>
      </trkpt>
      <trkpt lat="47.19103" lon="-1.74452">
        <ele>19.84</ele>
        <time>2021-10-17T14:43:32Z</time>
      </trkpt>
      <trkpt lat="47.19104" lon="-1.7445">
        <ele>19.84</ele>
        <time>2021-10-17T14:43:33Z</time>
      </trkpt>
      <trkpt lat="47.19105" lon="-1.74448">
        <ele>20.32</ele>
        <time>2021-10-17T14:43:34Z</time>
      </trkpt>
      <trkpt lat="47.19106" lon="-1.74447">
        <ele>20.32</ele>
        <time>2021-10-17T14:43:35Z</time>
      </trkpt>
      <trkpt lat="47.1912" lon="-1.74407">
        <ele>20.32</ele>
        <time>2021-10-17T14:43:47Z</time>
      </trkpt>
      <trkpt lat="47.19135" lon="-1.74344">
        <ele>21.29</ele>
        <time>2021-10-17T14:44:05Z</time>
      </trkpt>
      <trkpt lat="47.19147" lon="-1.74301">
        <ele>22.25</ele>
        <time>2021-10-17T14:44:19Z</time>
      </trkpt>
      <trkpt lat="47.19157" lon="-1.74249">
        <ele>22.25</ele>
        <time>2021-10-17T14:44:32Z</time>
      </trkpt>
      <trkpt lat="47.19167" lon="-1.74203">
        <ele>22.25</ele>
        <time>2021-10-17T14:44:44Z</time>
      </trkpt>
      <trkpt lat="47.19181" lon="-1.74142">
        <ele>22.25</ele>
        <time>2021-10-17T14:44:58Z</time>
      </trkpt>
      <trkpt lat="47.19191" lon="-1.74094">
        <ele>22.25</ele>
        <time>2021-10-17T14:45:12Z</time>
      </trkpt>
      <trkpt lat="47.19216" lon="-1.74057">
        <ele>22.25</ele>
        <time>2021-10-17T14:45:25Z</time>
      </trkpt>
      <trkpt lat="47.1922" lon="-1.74052">
        <ele>22.25</ele>
        <time>2021-10-17T14:45:27Z</time>
      </trkpt>
      <trkpt lat="47.19217" lon="-1.74029">
        <ele>20.81</ele>
        <time>2021-10-17T14:45:38Z</time>
      </trkpt>
      <trkpt lat="47.19217" lon="-1.74023">
        <ele>20.81</ele>
        <time>2021-10-17T14:45:40Z</time>
      </trkpt>
      <trkpt lat="47.19217" lon="-1.73977">
        <ele>21.29</ele>
        <time>2021-10-17T14:45:54Z</time>
      </trkpt>
      <trkpt lat="47.19219" lon="-1.73936">
        <ele>20.32</ele>
        <time>2021-10-17T14:46:06Z</time>
      </trkpt>
      <trkpt lat="47.19219" lon="-1.73889">
        <ele>19.84</ele>
        <time>2021-10-17T14:46:20Z</time>
      </trkpt>
      <trkpt lat="47.19221" lon="-1.73882">
        <ele>19.84</ele>
        <time>2021-10-17T14:46:42Z</time>
      </trkpt>
      <trkpt lat="47.19208" lon="-1.7384">
        <ele>19.84</ele>
        <time>2021-10-17T14:46:55Z</time>
      </trkpt>
      <trkpt lat="47.19186" lon="-1.73766">
        <ele>19.36</ele>
        <time>2021-10-17T14:47:11Z</time>
      </trkpt>
      <trkpt lat="47.19168" lon="-1.737">
        <ele>18.88</ele>
        <time>2021-10-17T14:47:24Z</time>
      </trkpt>
      <trkpt lat="47.19148" lon="-1.7363">
        <ele>19.84</ele>
        <time>2021-10-17T14:47:39Z</time>
      </trkpt>
      <trkpt lat="47.19125" lon="-1.73554">
        <ele>20.81</ele>
        <time>2021-10-17T14:47:56Z</time>
      </trkpt>
      <trkpt lat="47.19106" lon="-1.73477">
        <ele>20.81</ele>
        <time>2021-10-17T14:48:15Z</time>
      </trkpt>
      <trkpt lat="47.19094" lon="-1.73382">
        <ele>19.36</ele>
        <time>2021-10-17T14:48:33Z</time>
      </trkpt>
      <trkpt lat="47.19075" lon="-1.73278">
        <ele>18.4</ele>
        <time>2021-10-17T14:48:50Z</time>
      </trkpt>
      <trkpt lat="47.19043" lon="-1.73159">
        <ele>15.52</ele>
        <time>2021-10-17T14:49:08Z</time>
      </trkpt>
      <trkpt lat="47.19014" lon="-1.73085">
        <ele>13.6</ele>
        <time>2021-10-17T14:49:21Z</time>
      </trkpt>
      <trkpt lat="47.19012" lon="-1.73079">
        <ele>13.12</ele>
        <time>2021-10-17T14:49:22Z</time>
      </trkpt>
      <trkpt lat="47.19011" lon="-1.73072">
        <ele>13.12</ele>
        <time>2021-10-17T14:49:23Z</time>
      </trkpt>
      <trkpt lat="47.19011" lon="-1.73066">
        <ele>12.63</ele>
        <time>2021-10-17T14:49:24Z</time>
      </trkpt>
      <trkpt lat="47.19012" lon="-1.7306">
        <ele>12.63</ele>
        <time>2021-10-17T14:49:25Z</time>
      </trkpt>
      <trkpt lat="47.19014" lon="-1.73053">
        <ele>12.63</ele>
        <time>2021-10-17T14:49:26Z</time>
      </trkpt>
      <trkpt lat="47.19016" lon="-1.73048">
        <ele>12.63</ele>
        <time>2021-10-17T14:49:27Z</time>
      </trkpt>
      <trkpt lat="47.19019" lon="-1.73043">
        <ele>12.63</ele>
        <time>2021-10-17T14:49:28Z</time>
      </trkpt>
      <trkpt lat="47.19021" lon="-1.73038">
        <ele>12.63</ele>
        <time>2021-10-17T14:49:29Z</time>
      </trkpt>
      <trkpt lat="47.19033" lon="-1.73018">
        <ele>12.63</ele>
        <time>2021-10-17T14:49:33Z</time>
      </trkpt>
      <trkpt lat="47.19035" lon="-1.73013">
        <ele>12.63</ele>
        <time>2021-10-17T14:49:34Z</time>
      </trkpt>
      <trkpt lat="47.19053" lon="-1.72981">
        <ele>12.15</ele>
        <time>2021-10-17T14:49:41Z</time>
      </trkpt>
      <trkpt lat="47.19056" lon="-1.72976">
        <ele>12.15</ele>
        <time>2021-10-17T14:49:42Z</time>
      </trkpt>
      <trkpt lat="47.19059" lon="-1.72971">
        <ele>12.15</ele>
        <time>2021-10-17T14:49:43Z</time>
      </trkpt>
      <trkpt lat="47.19095" lon="-1.72912">
        <ele>11.19</ele>
        <time>2021-10-17T14:49:58Z</time>
      </trkpt>
      <trkpt lat="47.19099" lon="-1.72908">
        <ele>11.19</ele>
        <time>2021-10-17T14:50:07Z</time>
      </trkpt>
      <trkpt lat="47.19104" lon="-1.72896">
        <ele>10.71</ele>
        <time>2021-10-17T14:50:21Z</time>
      </trkpt>
      <trkpt lat="47.19102" lon="-1.72882">
        <ele>10.71</ele>
        <time>2021-10-17T14:50:37Z</time>
      </trkpt>
      <trkpt lat="47.191" lon="-1.7287">
        <ele>10.71</ele>
        <time>2021-10-17T14:50:52Z</time>
      </trkpt>
      <trkpt lat="47.19101" lon="-1.72847">
        <ele>12.15</ele>
        <time>2021-10-17T14:51:08Z</time>
      </trkpt>
      <trkpt lat="47.19101" lon="-1.72826">
        <ele>12.63</ele>
        <time>2021-10-17T14:51:23Z</time>
      </trkpt>
      <trkpt lat="47.19103" lon="-1.72818">
        <ele>12.63</ele>
        <time>2021-10-17T14:51:28Z</time>
      </trkpt>
      <trkpt lat="47.19101" lon="-1.72791">
        <ele>14.08</ele>
        <time>2021-10-17T14:51:44Z</time>
      </trkpt>
      <trkpt lat="47.191" lon="-1.72766">
        <ele>14.56</ele>
        <time>2021-10-17T14:52:00Z</time>
      </trkpt>
      <trkpt lat="47.19099" lon="-1.72756">
        <ele>15.04</ele>
        <time>2021-10-17T14:52:15Z</time>
      </trkpt>
      <trkpt lat="47.19104" lon="-1.72754">
        <ele>15.04</ele>
        <time>2021-10-17T14:52:21Z</time>
      </trkpt>
      <trkpt lat="47.19108" lon="-1.72752">
        <ele>15.04</ele>
        <time>2021-10-17T14:52:26Z</time>
      </trkpt>
      <trkpt lat="47.19109" lon="-1.72751">
        <ele>15.04</ele>
        <time>2021-10-17T14:52:27Z</time>
      </trkpt>
      <trkpt lat="47.19111" lon="-1.7275">
        <ele>15.04</ele>
        <time>2021-10-17T14:52:29Z</time>
      </trkpt>
      <trkpt lat="47.19113" lon="-1.72748">
        <ele>15.04</ele>
        <time>2021-10-17T14:52:31Z</time>
      </trkpt>
      <trkpt lat="47.19114" lon="-1.72746">
        <ele>15.04</ele>
        <time>2021-10-17T14:52:32Z</time>
      </trkpt>
      <trkpt lat="47.19115" lon="-1.72744">
        <ele>16</ele>
        <time>2021-10-17T14:52:33Z</time>
      </trkpt>
      <trkpt lat="47.19116" lon="-1.72742">
        <ele>16</ele>
        <time>2021-10-17T14:52:34Z</time>
      </trkpt>
      <trkpt lat="47.19117" lon="-1.7274">
        <ele>16</ele>
        <time>2021-10-17T14:52:35Z</time>
      </trkpt>
      <trkpt lat="47.19118" lon="-1.72738">
        <ele>16</ele>
        <time>2021-10-17T14:52:36Z</time>
      </trkpt>
      <trkpt lat="47.19119" lon="-1.72735">
        <ele>16</ele>
        <time>2021-10-17T14:52:37Z</time>
      </trkpt>
      <trkpt lat="47.1912" lon="-1.72732">
        <ele>16</ele>
        <time>2021-10-17T14:52:38Z</time>
      </trkpt>
      <trkpt lat="47.1912" lon="-1.7273">
        <ele>16</ele>
        <time>2021-10-17T14:52:39Z</time>
      </trkpt>
      <trkpt lat="47.19123" lon="-1.72677">
        <ele>17.44</ele>
        <time>2021-10-17T14:52:56Z</time>
      </trkpt>
      <trkpt lat="47.19123" lon="-1.72637">
        <ele>17.92</ele>
        <time>2021-10-17T14:53:09Z</time>
      </trkpt>
      <trkpt lat="47.19122" lon="-1.72585">
        <ele>18.4</ele>
        <time>2021-10-17T14:53:24Z</time>
      </trkpt>
      <trkpt lat="47.19119" lon="-1.72533">
        <ele>18.88</ele>
        <time>2021-10-17T14:53:41Z</time>
      </trkpt>
      <trkpt lat="47.19122" lon="-1.72491">
        <ele>18.88</ele>
        <time>2021-10-17T14:53:55Z</time>
      </trkpt>
      <trkpt lat="47.19123" lon="-1.72481">
        <ele>18.88</ele>
        <time>2021-10-17T14:54:08Z</time>
      </trkpt>
      <trkpt lat="47.19122" lon="-1.72479">
        <ele>18.88</ele>
        <time>2021-10-17T14:54:32Z</time>
      </trkpt>
      <trkpt lat="47.19123" lon="-1.72457">
        <ele>18.88</ele>
        <time>2021-10-17T14:54:46Z</time>
      </trkpt>
      <trkpt lat="47.19126" lon="-1.724">
        <ele>19.84</ele>
        <time>2021-10-17T14:55:01Z</time>
      </trkpt>
      <trkpt lat="47.19126" lon="-1.72335">
        <ele>19.84</ele>
        <time>2021-10-17T14:55:16Z</time>
      </trkpt>
      <trkpt lat="47.19125" lon="-1.7232">
        <ele>19.84</ele>
        <time>2021-10-17T14:55:20Z</time>
      </trkpt>
      <trkpt lat="47.1909" lon="-1.72309">
        <ele>19.84</ele>
        <time>2021-10-17T14:55:33Z</time>
      </trkpt>
      <trkpt lat="47.19063" lon="-1.72304">
        <ele>19.84</ele>
        <time>2021-10-17T14:55:45Z</time>
      </trkpt>
      <trkpt lat="47.19033" lon="-1.72292">
        <ele>20.32</ele>
        <time>2021-10-17T14:56:00Z</time>
      </trkpt>
      <trkpt lat="47.18994" lon="-1.72278">
        <ele>21.29</ele>
        <time>2021-10-17T14:56:16Z</time>
      </trkpt>
      <trkpt lat="47.18958" lon="-1.72259">
        <ele>22.25</ele>
        <time>2021-10-17T14:56:31Z</time>
      </trkpt>
      <trkpt lat="47.18935" lon="-1.72218">
        <ele>22.25</ele>
        <time>2021-10-17T14:56:44Z</time>
      </trkpt>
      <trkpt lat="47.1889" lon="-1.72161">
        <ele>22.73</ele>
        <time>2021-10-17T14:57:03Z</time>
      </trkpt>
      <trkpt lat="47.18867" lon="-1.72125">
        <ele>23.21</ele>
        <time>2021-10-17T14:57:18Z</time>
      </trkpt>
      <trkpt lat="47.18864" lon="-1.72117">
        <ele>23.21</ele>
        <time>2021-10-17T14:57:21Z</time>
      </trkpt>
      <trkpt lat="47.18863" lon="-1.72117">
        <ele>23.21</ele>
        <time>2021-10-17T14:57:22Z</time>
      </trkpt>
      <trkpt lat="47.18862" lon="-1.72117">
        <ele>23.69</ele>
        <time>2021-10-17T14:57:23Z</time>
      </trkpt>
      <trkpt lat="47.18861" lon="-1.72117">
        <ele>23.69</ele>
        <time>2021-10-17T14:57:24Z</time>
      </trkpt>
      <trkpt lat="47.1886" lon="-1.72117">
        <ele>23.69</ele>
        <time>2021-10-17T14:57:25Z</time>
      </trkpt>
      <trkpt lat="47.18859" lon="-1.72115">
        <ele>23.69</ele>
        <time>2021-10-17T14:57:26Z</time>
      </trkpt>
      <trkpt lat="47.18858" lon="-1.72113">
        <ele>23.69</ele>
        <time>2021-10-17T14:57:27Z</time>
      </trkpt>
      <trkpt lat="47.18857" lon="-1.72111">
        <ele>23.69</ele>
        <time>2021-10-17T14:57:28Z</time>
      </trkpt>
      <trkpt lat="47.18856" lon="-1.72108">
        <ele>23.69</ele>
        <time>2021-10-17T14:57:29Z</time>
      </trkpt>
      <trkpt lat="47.18856" lon="-1.72106">
        <ele>23.69</ele>
        <time>2021-10-17T14:57:30Z</time>
      </trkpt>
      <trkpt lat="47.18856" lon="-1.72103">
        <ele>23.69</ele>
        <time>2021-10-17T14:57:31Z</time>
      </trkpt>
      <trkpt lat="47.18855" lon="-1.72101">
        <ele>23.69</ele>
        <time>2021-10-17T14:57:32Z</time>
      </trkpt>
      <trkpt lat="47.18854" lon="-1.72099">
        <ele>23.69</ele>
        <time>2021-10-17T14:57:33Z</time>
      </trkpt>
      <trkpt lat="47.18851" lon="-1.72098">
        <ele>23.69</ele>
        <time>2021-10-17T14:57:34Z</time>
      </trkpt>
      <trkpt lat="47.18849" lon="-1.72096">
        <ele>23.69</ele>
        <time>2021-10-17T14:57:35Z</time>
      </trkpt>
      <trkpt lat="47.18847" lon="-1.72094">
        <ele>23.69</ele>
        <time>2021-10-17T14:57:36Z</time>
      </trkpt>
      <trkpt lat="47.18822" lon="-1.72054">
        <ele>23.69</ele>
        <time>2021-10-17T14:57:49Z</time>
      </trkpt>
      <trkpt lat="47.18791" lon="-1.72003">
        <ele>23.69</ele>
        <time>2021-10-17T14:58:06Z</time>
      </trkpt>
      <trkpt lat="47.18771" lon="-1.71968">
        <ele>23.69</ele>
        <time>2021-10-17T14:58:18Z</time>
      </trkpt>
      <trkpt lat="47.18739" lon="-1.71908">
        <ele>23.69</ele>
        <time>2021-10-17T14:58:34Z</time>
      </trkpt>
      <trkpt lat="47.18709" lon="-1.7185">
        <ele>23.69</ele>
        <time>2021-10-17T14:58:48Z</time>
      </trkpt>
      <trkpt lat="47.18674" lon="-1.71784">
        <ele>24.17</ele>
        <time>2021-10-17T14:59:04Z</time>
      </trkpt>
      <trkpt lat="47.18642" lon="-1.71721">
        <ele>24.65</ele>
        <time>2021-10-17T14:59:18Z</time>
      </trkpt>
      <trkpt lat="47.18603" lon="-1.71645">
        <ele>24.65</ele>
        <time>2021-10-17T14:59:36Z</time>
      </trkpt>
      <trkpt lat="47.18565" lon="-1.71572">
        <ele>25.13</ele>
        <time>2021-10-17T14:59:54Z</time>
      </trkpt>
      <trkpt lat="47.18535" lon="-1.71515">
        <ele>25.13</ele>
        <time>2021-10-17T15:00:10Z</time>
      </trkpt>
      <trkpt lat="47.18531" lon="-1.71506">
        <ele>25.13</ele>
        <time>2021-10-17T15:00:22Z</time>
      </trkpt>
      <trkpt lat="47.1852" lon="-1.71483">
        <ele>25.13</ele>
        <time>2021-10-17T15:00:33Z</time>
      </trkpt>
      <trkpt lat="47.18479" lon="-1.71408">
        <ele>25.13</ele>
        <time>2021-10-17T15:00:53Z</time>
      </trkpt>
      <trkpt lat="47.1844" lon="-1.71338">
        <ele>23.69</ele>
        <time>2021-10-17T15:01:09Z</time>
      </trkpt>
      <trkpt lat="47.18415" lon="-1.71289">
        <ele>23.21</ele>
        <time>2021-10-17T15:01:18Z</time>
      </trkpt>
      <trkpt lat="47.18412" lon="-1.71283">
        <ele>23.21</ele>
        <time>2021-10-17T15:01:19Z</time>
      </trkpt>
      <trkpt lat="47.1837" lon="-1.71202">
        <ele>21.29</ele>
        <time>2021-10-17T15:01:33Z</time>
      </trkpt>
      <trkpt lat="47.18361" lon="-1.71185">
        <ele>21.29</ele>
        <time>2021-10-17T15:01:36Z</time>
      </trkpt>
      <trkpt lat="47.18359" lon="-1.7118">
        <ele>21.29</ele>
        <time>2021-10-17T15:01:37Z</time>
      </trkpt>
      <trkpt lat="47.18357" lon="-1.71175">
        <ele>21.29</ele>
        <time>2021-10-17T15:01:38Z</time>
      </trkpt>
      <trkpt lat="47.18353" lon="-1.71152">
        <ele>21.29</ele>
        <time>2021-10-17T15:01:42Z</time>
      </trkpt>
      <trkpt lat="47.18354" lon="-1.71146">
        <ele>21.29</ele>
        <time>2021-10-17T15:01:43Z</time>
      </trkpt>
      <trkpt lat="47.18356" lon="-1.7114">
        <ele>21.29</ele>
        <time>2021-10-17T15:01:44Z</time>
      </trkpt>
      <trkpt lat="47.18358" lon="-1.71134">
        <ele>21.29</ele>
        <time>2021-10-17T15:01:45Z</time>
      </trkpt>
      <trkpt lat="47.18361" lon="-1.71129">
        <ele>21.29</ele>
        <time>2021-10-17T15:01:46Z</time>
      </trkpt>
      <trkpt lat="47.18365" lon="-1.71124">
        <ele>21.29</ele>
        <time>2021-10-17T15:01:47Z</time>
      </trkpt>
      <trkpt lat="47.18369" lon="-1.7112">
        <ele>20.81</ele>
        <time>2021-10-17T15:01:48Z</time>
      </trkpt>
      <trkpt lat="47.18374" lon="-1.71117">
        <ele>20.81</ele>
        <time>2021-10-17T15:01:49Z</time>
      </trkpt>
      <trkpt lat="47.18378" lon="-1.71113">
        <ele>20.81</ele>
        <time>2021-10-17T15:01:50Z</time>
      </trkpt>
      <trkpt lat="47.18451" lon="-1.71067">
        <ele>20.32</ele>
        <time>2021-10-17T15:02:07Z</time>
      </trkpt>
      <trkpt lat="47.18529" lon="-1.71019">
        <ele>20.32</ele>
        <time>2021-10-17T15:02:27Z</time>
      </trkpt>
      <trkpt lat="47.1861" lon="-1.70964">
        <ele>20.32</ele>
        <time>2021-10-17T15:02:48Z</time>
      </trkpt>
      <trkpt lat="47.18614" lon="-1.7096">
        <ele>20.32</ele>
        <time>2021-10-17T15:02:49Z</time>
      </trkpt>
      <trkpt lat="47.18617" lon="-1.70955">
        <ele>20.32</ele>
        <time>2021-10-17T15:02:50Z</time>
      </trkpt>
      <trkpt lat="47.1862" lon="-1.7095">
        <ele>20.32</ele>
        <time>2021-10-17T15:02:51Z</time>
      </trkpt>
      <trkpt lat="47.18622" lon="-1.70944">
        <ele>20.32</ele>
        <time>2021-10-17T15:02:52Z</time>
      </trkpt>
      <trkpt lat="47.18624" lon="-1.70938">
        <ele>20.32</ele>
        <time>2021-10-17T15:02:53Z</time>
      </trkpt>
      <trkpt lat="47.18625" lon="-1.70932">
        <ele>20.32</ele>
        <time>2021-10-17T15:02:54Z</time>
      </trkpt>
      <trkpt lat="47.18625" lon="-1.70925">
        <ele>20.32</ele>
        <time>2021-10-17T15:02:55Z</time>
      </trkpt>
      <trkpt lat="47.18625" lon="-1.70919">
        <ele>20.32</ele>
        <time>2021-10-17T15:02:56Z</time>
      </trkpt>
      <trkpt lat="47.18624" lon="-1.70913">
        <ele>19.84</ele>
        <time>2021-10-17T15:02:57Z</time>
      </trkpt>
      <trkpt lat="47.18623" lon="-1.70907">
        <ele>19.84</ele>
        <time>2021-10-17T15:02:58Z</time>
      </trkpt>
      <trkpt lat="47.18615" lon="-1.70881">
        <ele>19.84</ele>
        <time>2021-10-17T15:03:09Z</time>
      </trkpt>
      <trkpt lat="47.18612" lon="-1.70873">
        <ele>20.32</ele>
        <time>2021-10-17T15:03:14Z</time>
      </trkpt>
      <trkpt lat="47.18611" lon="-1.70871">
        <ele>20.32</ele>
        <time>2021-10-17T15:03:15Z</time>
      </trkpt>
      <trkpt lat="47.18611" lon="-1.7087">
        <ele>20.32</ele>
        <time>2021-10-17T15:03:16Z</time>
      </trkpt>
      <trkpt lat="47.18611" lon="-1.70866">
        <ele>20.32</ele>
        <time>2021-10-17T15:03:18Z</time>
      </trkpt>
      <trkpt lat="47.18607" lon="-1.70828">
        <ele>19.84</ele>
        <time>2021-10-17T15:03:30Z</time>
      </trkpt>
      <trkpt lat="47.18589" lon="-1.70739">
        <ele>18.4</ele>
        <time>2021-10-17T15:03:44Z</time>
      </trkpt>
      <trkpt lat="47.18571" lon="-1.70654">
        <ele>18.4</ele>
        <time>2021-10-17T15:04:00Z</time>
      </trkpt>
      <trkpt lat="47.18574" lon="-1.70624">
        <ele>17.92</ele>
        <time>2021-10-17T15:04:09Z</time>
      </trkpt>
      <trkpt lat="47.18575" lon="-1.70624">
        <ele>17.92</ele>
        <time>2021-10-17T15:04:10Z</time>
      </trkpt>
      <trkpt lat="47.18578" lon="-1.70624">
        <ele>17.92</ele>
        <time>2021-10-17T15:04:11Z</time>
      </trkpt>
      <trkpt lat="47.1858" lon="-1.70624">
        <ele>17.92</ele>
        <time>2021-10-17T15:04:12Z</time>
      </trkpt>
      <trkpt lat="47.18582" lon="-1.70623">
        <ele>17.92</ele>
        <time>2021-10-17T15:04:13Z</time>
      </trkpt>
      <trkpt lat="47.18619" lon="-1.70619">
        <ele>17.92</ele>
        <time>2021-10-17T15:04:27Z</time>
      </trkpt>
      <trkpt lat="47.18671" lon="-1.70596">
        <ele>20.32</ele>
        <time>2021-10-17T15:04:47Z</time>
      </trkpt>
      <trkpt lat="47.18721" lon="-1.70579">
        <ele>21.29</ele>
        <time>2021-10-17T15:05:05Z</time>
      </trkpt>
      <trkpt lat="47.18767" lon="-1.70555">
        <ele>22.25</ele>
        <time>2021-10-17T15:05:21Z</time>
      </trkpt>
      <trkpt lat="47.18804" lon="-1.70533">
        <ele>22.25</ele>
        <time>2021-10-17T15:05:34Z</time>
      </trkpt>
      <trkpt lat="47.18843" lon="-1.70502">
        <ele>22.25</ele>
        <time>2021-10-17T15:05:47Z</time>
      </trkpt>
      <trkpt lat="47.18861" lon="-1.70482">
        <ele>20.81</ele>
        <time>2021-10-17T15:05:53Z</time>
      </trkpt>
      <trkpt lat="47.1891" lon="-1.70424">
        <ele>17.44</ele>
        <time>2021-10-17T15:06:04Z</time>
      </trkpt>
      <trkpt lat="47.18927" lon="-1.704">
        <ele>16.48</ele>
        <time>2021-10-17T15:06:08Z</time>
      </trkpt>
      <trkpt lat="47.18931" lon="-1.70392">
        <ele>15.52</ele>
        <time>2021-10-17T15:06:09Z</time>
      </trkpt>
      <trkpt lat="47.18941" lon="-1.70365">
        <ele>14.08</ele>
        <time>2021-10-17T15:06:12Z</time>
      </trkpt>
      <trkpt lat="47.18943" lon="-1.70355">
        <ele>14.08</ele>
        <time>2021-10-17T15:06:13Z</time>
      </trkpt>
      <trkpt lat="47.18952" lon="-1.70302">
        <ele>12.15</ele>
        <time>2021-10-17T15:06:18Z</time>
      </trkpt>
      <trkpt lat="47.18968" lon="-1.70224">
        <ele>9.27</ele>
        <time>2021-10-17T15:06:29Z</time>
      </trkpt>
      <trkpt lat="47.18974" lon="-1.70202">
        <ele>8.79</ele>
        <time>2021-10-17T15:06:41Z</time>
      </trkpt>
      <trkpt lat="47.18974" lon="-1.70202">
        <ele>8.79</ele>
        <time>2021-10-17T15:07:02Z</time>
      </trkpt>
      <trkpt lat="47.18976" lon="-1.70199">
        <ele>8.79</ele>
        <time>2021-10-17T15:07:13Z</time>
      </trkpt>
      <trkpt lat="47.18978" lon="-1.70198">
        <ele>8.79</ele>
        <time>2021-10-17T15:07:14Z</time>
      </trkpt>
      <trkpt lat="47.19002" lon="-1.70164">
        <ele>8.31</ele>
        <time>2021-10-17T15:07:26Z</time>
      </trkpt>
      <trkpt lat="47.19019" lon="-1.70144">
        <ele>7.35</ele>
        <time>2021-10-17T15:07:31Z</time>
      </trkpt>
      <trkpt lat="47.19023" lon="-1.7014">
        <ele>7.35</ele>
        <time>2021-10-17T15:07:32Z</time>
      </trkpt>
      <trkpt lat="47.19061" lon="-1.70116">
        <ele>6.39</ele>
        <time>2021-10-17T15:07:44Z</time>
      </trkpt>
      <trkpt lat="47.19085" lon="-1.70097">
        <ele>5.91</ele>
        <time>2021-10-17T15:07:56Z</time>
      </trkpt>
      <trkpt lat="47.19119" lon="-1.70041">
        <ele>5.42</ele>
        <time>2021-10-17T15:08:11Z</time>
      </trkpt>
      <trkpt lat="47.19164" lon="-1.69963">
        <ele>4.94</ele>
        <time>2021-10-17T15:08:30Z</time>
      </trkpt>
      <trkpt lat="47.19177" lon="-1.69926">
        <ele>4.94</ele>
        <time>2021-10-17T15:08:41Z</time>
      </trkpt>
      <trkpt lat="47.19185" lon="-1.69848">
        <ele>4.94</ele>
        <time>2021-10-17T15:08:56Z</time>
      </trkpt>
      <trkpt lat="47.19192" lon="-1.69768">
        <ele>4.94</ele>
        <time>2021-10-17T15:09:12Z</time>
      </trkpt>
      <trkpt lat="47.192" lon="-1.69723">
        <ele>4.46</ele>
        <time>2021-10-17T15:09:24Z</time>
      </trkpt>
      <trkpt lat="47.19209" lon="-1.69679">
        <ele>4.46</ele>
        <time>2021-10-17T15:09:37Z</time>
      </trkpt>
      <trkpt lat="47.19217" lon="-1.69623">
        <ele>4.46</ele>
        <time>2021-10-17T15:09:55Z</time>
      </trkpt>
      <trkpt lat="47.19212" lon="-1.69586">
        <ele>5.42</ele>
        <time>2021-10-17T15:10:07Z</time>
      </trkpt>
      <trkpt lat="47.19223" lon="-1.69547">
        <ele>5.91</ele>
        <time>2021-10-17T15:10:20Z</time>
      </trkpt>
      <trkpt lat="47.19263" lon="-1.69497">
        <ele>3.5</ele>
        <time>2021-10-17T15:10:34Z</time>
      </trkpt>
      <trkpt lat="47.19284" lon="-1.6949">
        <ele>3.02</ele>
        <time>2021-10-17T15:10:45Z</time>
      </trkpt>
      <trkpt lat="47.19299" lon="-1.69483">
        <ele>3.02</ele>
        <time>2021-10-17T15:10:55Z</time>
      </trkpt>
      <trkpt lat="47.193" lon="-1.69483">
        <ele>3.02</ele>
        <time>2021-10-17T15:10:56Z</time>
      </trkpt>
      <trkpt lat="47.19302" lon="-1.69483">
        <ele>3.02</ele>
        <time>2021-10-17T15:10:57Z</time>
      </trkpt>
      <trkpt lat="47.19303" lon="-1.69482">
        <ele>3.02</ele>
        <time>2021-10-17T15:10:58Z</time>
      </trkpt>
      <trkpt lat="47.19307" lon="-1.69483">
        <ele>3.02</ele>
        <time>2021-10-17T15:11:11Z</time>
      </trkpt>
      <trkpt lat="47.19308" lon="-1.69485">
        <ele>3.98</ele>
        <time>2021-10-17T15:11:42Z</time>
      </trkpt>
      <trkpt lat="47.19309" lon="-1.69478">
        <ele>3.98</ele>
        <time>2021-10-17T15:12:00Z</time>
      </trkpt>
      <trkpt lat="47.19315" lon="-1.69467">
        <ele>3.98</ele>
        <time>2021-10-17T15:12:28Z</time>
      </trkpt>
      <trkpt lat="47.1932" lon="-1.69473">
        <ele>3.98</ele>
        <time>2021-10-17T15:12:58Z</time>
      </trkpt>
      <trkpt lat="47.19315" lon="-1.69477">
        <ele>3.98</ele>
        <time>2021-10-17T15:13:27Z</time>
      </trkpt>
      <trkpt lat="47.19315" lon="-1.69477">
        <ele>4.46</ele>
        <time>2021-10-17T15:14:09Z</time>
      </trkpt>
      <trkpt lat="47.19312" lon="-1.69472">
        <ele>3.98</ele>
        <time>2021-10-17T15:14:44Z</time>
      </trkpt>
      <trkpt lat="47.19311" lon="-1.69477">
        <ele>4.46</ele>
        <time>2021-10-17T15:15:09Z</time>
      </trkpt>
      <trkpt lat="47.19312" lon="-1.69475">
        <ele>4.46</ele>
        <time>2021-10-17T15:15:46Z</time>
      </trkpt>
      <trkpt lat="47.1931" lon="-1.6948">
        <ele>4.46</ele>
        <time>2021-10-17T15:16:16Z</time>
      </trkpt>
      <trkpt lat="47.19311" lon="-1.69481">
        <ele>4.46</ele>
        <time>2021-10-17T15:16:50Z</time>
      </trkpt>
      <trkpt lat="47.19306" lon="-1.69477">
        <ele>3.98</ele>
        <time>2021-10-17T15:17:22Z</time>
      </trkpt>
      <trkpt lat="47.19304" lon="-1.6948">
        <ele>3.98</ele>
        <time>2021-10-17T15:17:44Z</time>
      </trkpt>
      <trkpt lat="47.19308" lon="-1.69478">
        <ele>3.98</ele>
        <time>2021-10-17T15:18:14Z</time>
      </trkpt>
      <trkpt lat="47.19313" lon="-1.6948">
        <ele>3.5</ele>
        <time>2021-10-17T15:18:47Z</time>
      </trkpt>
      <trkpt lat="47.19309" lon="-1.69476">
        <ele>3.02</ele>
        <time>2021-10-17T15:19:29Z</time>
      </trkpt>
      <trkpt lat="47.1931" lon="-1.69477">
        <ele>3.02</ele>
        <time>2021-10-17T15:20:08Z</time>
      </trkpt>
      <trkpt lat="47.19308" lon="-1.69476">
        <ele>3.02</ele>
        <time>2021-10-17T15:20:57Z</time>
      </trkpt>
      <trkpt lat="47.19311" lon="-1.69477">
        <ele>2.54</ele>
        <time>2021-10-17T15:21:40Z</time>
      </trkpt>
      <trkpt lat="47.19308" lon="-1.69477">
        <ele>2.54</ele>
        <time>2021-10-17T15:22:21Z</time>
      </trkpt>
      <trkpt lat="47.19308" lon="-1.69477">
        <ele>2.54</ele>
        <time>2021-10-17T15:22:59Z</time>
      </trkpt>
      <trkpt lat="47.19311" lon="-1.69478">
        <ele>2.06</ele>
        <time>2021-10-17T15:23:40Z</time>
      </trkpt>
      <trkpt lat="47.19309" lon="-1.69481">
        <ele>2.06</ele>
        <time>2021-10-17T15:24:19Z</time>
      </trkpt>
      <trkpt lat="47.19307" lon="-1.69481">
        <ele>2.06</ele>
        <time>2021-10-17T15:24:53Z</time>
      </trkpt>
      <trkpt lat="47.19309" lon="-1.69483">
        <ele>1.58</ele>
        <time>2021-10-17T15:25:36Z</time>
      </trkpt>
      <trkpt lat="47.19307" lon="-1.69481">
        <ele>1.1</ele>
        <time>2021-10-17T15:26:19Z</time>
      </trkpt>
      <trkpt lat="47.19309" lon="-1.69476">
        <ele>1.1</ele>
        <time>2021-10-17T15:26:57Z</time>
      </trkpt>
      <trkpt lat="47.19304" lon="-1.69471">
        <ele>1.1</ele>
        <time>2021-10-17T15:27:38Z</time>
      </trkpt>
      <trkpt lat="47.19307" lon="-1.6947">
        <ele>1.1</ele>
        <time>2021-10-17T15:28:24Z</time>
      </trkpt>
      <trkpt lat="47.19307" lon="-1.6947">
        <ele>2.06</ele>
        <time>2021-10-17T15:29:13Z</time>
      </trkpt>
      <trkpt lat="47.19304" lon="-1.69469">
        <ele>2.06</ele>
        <time>2021-10-17T15:29:50Z</time>
      </trkpt>
      <trkpt lat="47.19306" lon="-1.69468">
        <ele>2.06</ele>
        <time>2021-10-17T15:30:13Z</time>
      </trkpt>
      <trkpt lat="47.19305" lon="-1.69474">
        <ele>2.06</ele>
        <time>2021-10-17T15:30:44Z</time>
      </trkpt>
      <trkpt lat="47.19305" lon="-1.69475">
        <ele>2.06</ele>
        <time>2021-10-17T15:30:52Z</time>
      </trkpt>
      <trkpt lat="47.19304" lon="-1.69473">
        <ele>2.06</ele>
        <time>2021-10-17T15:30:53Z</time>
      </trkpt>
      <trkpt lat="47.19298" lon="-1.69474">
        <ele>2.06</ele>
        <time>2021-10-17T15:30:56Z</time>
      </trkpt>
      <trkpt lat="47.19295" lon="-1.69475">
        <ele>2.06</ele>
        <time>2021-10-17T15:30:57Z</time>
      </trkpt>
      <trkpt lat="47.19293" lon="-1.69477">
        <ele>2.06</ele>
        <time>2021-10-17T15:30:58Z</time>
      </trkpt>
      <trkpt lat="47.19269" lon="-1.69485">
        <ele>0.62</ele>
        <time>2021-10-17T15:31:11Z</time>
      </trkpt>
      <trkpt lat="47.19264" lon="-1.69484">
        <ele>0.62</ele>
        <time>2021-10-17T15:31:14Z</time>
      </trkpt>
      <trkpt lat="47.19262" lon="-1.69485">
        <ele>0.62</ele>
        <time>2021-10-17T15:31:15Z</time>
      </trkpt>
      <trkpt lat="47.19258" lon="-1.69489">
        <ele>0.62</ele>
        <time>2021-10-17T15:31:16Z</time>
      </trkpt>
      <trkpt lat="47.19248" lon="-1.69502">
        <ele>2.06</ele>
        <time>2021-10-17T15:31:19Z</time>
      </trkpt>
      <trkpt lat="47.19209" lon="-1.69552">
        <ele>3.98</ele>
        <time>2021-10-17T15:31:27Z</time>
      </trkpt>
      <trkpt lat="47.19206" lon="-1.69558">
        <ele>4.46</ele>
        <time>2021-10-17T15:31:28Z</time>
      </trkpt>
      <trkpt lat="47.19204" lon="-1.69564">
        <ele>4.46</ele>
        <time>2021-10-17T15:31:29Z</time>
      </trkpt>
      <trkpt lat="47.19203" lon="-1.6957">
        <ele>4.46</ele>
        <time>2021-10-17T15:31:30Z</time>
      </trkpt>
      <trkpt lat="47.19201" lon="-1.69577">
        <ele>4.46</ele>
        <time>2021-10-17T15:31:31Z</time>
      </trkpt>
      <trkpt lat="47.19201" lon="-1.69584">
        <ele>4.46</ele>
        <time>2021-10-17T15:31:32Z</time>
      </trkpt>
      <trkpt lat="47.19201" lon="-1.69591">
        <ele>4.46</ele>
        <time>2021-10-17T15:31:33Z</time>
      </trkpt>
      <trkpt lat="47.19202" lon="-1.696">
        <ele>4.46</ele>
        <time>2021-10-17T15:31:34Z</time>
      </trkpt>
      <trkpt lat="47.19201" lon="-1.69607">
        <ele>4.46</ele>
        <time>2021-10-17T15:31:35Z</time>
      </trkpt>
      <trkpt lat="47.192" lon="-1.69612">
        <ele>4.46</ele>
        <time>2021-10-17T15:31:36Z</time>
      </trkpt>
      <trkpt lat="47.19197" lon="-1.69616">
        <ele>4.46</ele>
        <time>2021-10-17T15:31:37Z</time>
      </trkpt>
      <trkpt lat="47.19192" lon="-1.69616">
        <ele>4.46</ele>
        <time>2021-10-17T15:31:38Z</time>
      </trkpt>
      <trkpt lat="47.19188" lon="-1.69614">
        <ele>4.46</ele>
        <time>2021-10-17T15:31:39Z</time>
      </trkpt>
      <trkpt lat="47.19183" lon="-1.6961">
        <ele>4.46</ele>
        <time>2021-10-17T15:31:40Z</time>
      </trkpt>
      <trkpt lat="47.19179" lon="-1.69603">
        <ele>4.46</ele>
        <time>2021-10-17T15:31:41Z</time>
      </trkpt>
      <trkpt lat="47.19176" lon="-1.69596">
        <ele>5.42</ele>
        <time>2021-10-17T15:31:42Z</time>
      </trkpt>
      <trkpt lat="47.19174" lon="-1.69588">
        <ele>5.91</ele>
        <time>2021-10-17T15:31:43Z</time>
      </trkpt>
      <trkpt lat="47.19163" lon="-1.6956">
        <ele>6.87</ele>
        <time>2021-10-17T15:31:46Z</time>
      </trkpt>
      <trkpt lat="47.19135" lon="-1.69515">
        <ele>10.23</ele>
        <time>2021-10-17T15:31:51Z</time>
      </trkpt>
      <trkpt lat="47.19082" lon="-1.69431">
        <ele>13.6</ele>
        <time>2021-10-17T15:32:01Z</time>
      </trkpt>
      <trkpt lat="47.19047" lon="-1.69377">
        <ele>16.96</ele>
        <time>2021-10-17T15:32:11Z</time>
      </trkpt>
      <trkpt lat="47.19013" lon="-1.69322">
        <ele>19.84</ele>
        <time>2021-10-17T15:32:18Z</time>
      </trkpt>
      <trkpt lat="47.18984" lon="-1.6924">
        <ele>21.29</ele>
        <time>2021-10-17T15:32:28Z</time>
      </trkpt>
      <trkpt lat="47.18944" lon="-1.69134">
        <ele>19.84</ele>
        <time>2021-10-17T15:32:40Z</time>
      </trkpt>
      <trkpt lat="47.18919" lon="-1.6909">
        <ele>18.4</ele>
        <time>2021-10-17T15:32:50Z</time>
      </trkpt>
      <trkpt lat="47.18883" lon="-1.69034">
        <ele>16.48</ele>
        <time>2021-10-17T15:32:58Z</time>
      </trkpt>
      <trkpt lat="47.18877" lon="-1.69029">
        <ele>16.48</ele>
        <time>2021-10-17T15:32:59Z</time>
      </trkpt>
      <trkpt lat="47.18871" lon="-1.69026">
        <ele>16.48</ele>
        <time>2021-10-17T15:33:00Z</time>
      </trkpt>
      <trkpt lat="47.18865" lon="-1.69025">
        <ele>15.52</ele>
        <time>2021-10-17T15:33:01Z</time>
      </trkpt>
      <trkpt lat="47.18858" lon="-1.69025">
        <ele>15.52</ele>
        <time>2021-10-17T15:33:02Z</time>
      </trkpt>
      <trkpt lat="47.18851" lon="-1.69025">
        <ele>15.52</ele>
        <time>2021-10-17T15:33:03Z</time>
      </trkpt>
      <trkpt lat="47.18762" lon="-1.69066">
        <ele>14.56</ele>
        <time>2021-10-17T15:33:14Z</time>
      </trkpt>
      <trkpt lat="47.18659" lon="-1.69145">
        <ele>14.56</ele>
        <time>2021-10-17T15:33:26Z</time>
      </trkpt>
      <trkpt lat="47.18618" lon="-1.69179">
        <ele>17.92</ele>
        <time>2021-10-17T15:33:35Z</time>
      </trkpt>
      <trkpt lat="47.18543" lon="-1.69226">
        <ele>21.29</ele>
        <time>2021-10-17T15:33:43Z</time>
      </trkpt>
      <trkpt lat="47.18463" lon="-1.69275">
        <ele>24.65</ele>
        <time>2021-10-17T15:33:50Z</time>
      </trkpt>
      <trkpt lat="47.18332" lon="-1.69363">
        <ele>27.53</ele>
        <time>2021-10-17T15:34:03Z</time>
      </trkpt>
      <trkpt lat="47.1831" lon="-1.69382">
        <ele>27.53</ele>
        <time>2021-10-17T15:34:07Z</time>
      </trkpt>
      <trkpt lat="47.18304" lon="-1.69385">
        <ele>27.53</ele>
        <time>2021-10-17T15:34:08Z</time>
      </trkpt>
      <trkpt lat="47.1823" lon="-1.69409">
        <ele>27.53</ele>
        <time>2021-10-17T15:34:16Z</time>
      </trkpt>
      <trkpt lat="47.18059" lon="-1.69463">
        <ele>28.02</ele>
        <time>2021-10-17T15:34:30Z</time>
      </trkpt>
      <trkpt lat="47.17932" lon="-1.69482">
        <ele>28.5</ele>
        <time>2021-10-17T15:34:40Z</time>
      </trkpt>
      <trkpt lat="47.17803" lon="-1.69513">
        <ele>29.46</ele>
        <time>2021-10-17T15:34:50Z</time>
      </trkpt>
      <trkpt lat="47.17612" lon="-1.69587">
        <ele>28.98</ele>
        <time>2021-10-17T15:35:04Z</time>
      </trkpt>
      <trkpt lat="47.1757" lon="-1.6961">
        <ele>28.02</ele>
        <time>2021-10-17T15:35:09Z</time>
      </trkpt>
      <trkpt lat="47.17568" lon="-1.69611">
        <ele>28.02</ele>
        <time>2021-10-17T15:35:15Z</time>
      </trkpt>
      <trkpt lat="47.17571" lon="-1.69606">
        <ele>28.02</ele>
        <time>2021-10-17T15:35:17Z</time>
      </trkpt>
      <trkpt lat="47.1757" lon="-1.69603">
        <ele>28.02</ele>
        <time>2021-10-17T15:35:18Z</time>
      </trkpt>
      <trkpt lat="47.1757" lon="-1.69597">
        <ele>28.02</ele>
        <time>2021-10-17T15:35:19Z</time>
      </trkpt>
      <trkpt lat="47.17573" lon="-1.69584">
        <ele>28.02</ele>
        <time>2021-10-17T15:35:20Z</time>
      </trkpt>
      <trkpt lat="47.17574" lon="-1.69575">
        <ele>28.02</ele>
        <time>2021-10-17T15:35:21Z</time>
      </trkpt>
      <trkpt lat="47.17574" lon="-1.69564">
        <ele>28.02</ele>
        <time>2021-10-17T15:35:22Z</time>
      </trkpt>
      <trkpt lat="47.17575" lon="-1.69552">
        <ele>28.02</ele>
        <time>2021-10-17T15:35:23Z</time>
      </trkpt>
      <trkpt lat="47.17574" lon="-1.6951">
        <ele>29.46</ele>
        <time>2021-10-17T15:35:26Z</time>
      </trkpt>
      <trkpt lat="47.17573" lon="-1.6933">
        <ele>30.42</ele>
        <time>2021-10-17T15:35:35Z</time>
      </trkpt>
      <trkpt lat="47.17571" lon="-1.69034">
        <ele>29.94</ele>
        <time>2021-10-17T15:35:48Z</time>
      </trkpt>
      <trkpt lat="47.17563" lon="-1.68765">
        <ele>30.9</ele>
        <time>2021-10-17T15:35:59Z</time>
      </trkpt>
      <trkpt lat="47.17595" lon="-1.68542">
        <ele>30.9</ele>
        <time>2021-10-17T15:36:08Z</time>
      </trkpt>
      <trkpt lat="47.17637" lon="-1.68354">
        <ele>30.42</ele>
        <time>2021-10-17T15:36:17Z</time>
      </trkpt>
      <trkpt lat="47.17638" lon="-1.68338">
        <ele>30.42</ele>
        <time>2021-10-17T15:36:18Z</time>
      </trkpt>
      <trkpt lat="47.17637" lon="-1.68323">
        <ele>30.42</ele>
        <time>2021-10-17T15:36:19Z</time>
      </trkpt>
      <trkpt lat="47.17635" lon="-1.68308">
        <ele>30.42</ele>
        <time>2021-10-17T15:36:20Z</time>
      </trkpt>
      <trkpt lat="47.17632" lon="-1.68292">
        <ele>30.42</ele>
        <time>2021-10-17T15:36:21Z</time>
      </trkpt>
      <trkpt lat="47.17628" lon="-1.68276">
        <ele>30.42</ele>
        <time>2021-10-17T15:36:22Z</time>
      </trkpt>
      <trkpt lat="47.17622" lon="-1.68262">
        <ele>30.42</ele>
        <time>2021-10-17T15:36:23Z</time>
      </trkpt>
      <trkpt lat="47.17616" lon="-1.68248">
        <ele>30.42</ele>
        <time>2021-10-17T15:36:24Z</time>
      </trkpt>
      <trkpt lat="47.17609" lon="-1.68235">
        <ele>30.42</ele>
        <time>2021-10-17T15:36:25Z</time>
      </trkpt>
      <trkpt lat="47.176" lon="-1.68225">
        <ele>30.42</ele>
        <time>2021-10-17T15:36:26Z</time>
      </trkpt>
      <trkpt lat="47.17591" lon="-1.68216">
        <ele>30.42</ele>
        <time>2021-10-17T15:36:27Z</time>
      </trkpt>
      <trkpt lat="47.17582" lon="-1.6821">
        <ele>30.42</ele>
        <time>2021-10-17T15:36:28Z</time>
      </trkpt>
      <trkpt lat="47.17575" lon="-1.68206">
        <ele>30.42</ele>
        <time>2021-10-17T15:36:29Z</time>
      </trkpt>
      <trkpt lat="47.17569" lon="-1.68204">
        <ele>30.42</ele>
        <time>2021-10-17T15:36:30Z</time>
      </trkpt>
      <trkpt lat="47.17565" lon="-1.68203">
        <ele>30.42</ele>
        <time>2021-10-17T15:36:31Z</time>
      </trkpt>
      <trkpt lat="47.17563" lon="-1.68203">
        <ele>30.42</ele>
        <time>2021-10-17T15:36:32Z</time>
      </trkpt>
      <trkpt lat="47.17561" lon="-1.68206">
        <ele>30.42</ele>
        <time>2021-10-17T15:36:35Z</time>
      </trkpt>
      <trkpt lat="47.1756" lon="-1.68207">
        <ele>30.42</ele>
        <time>2021-10-17T15:36:36Z</time>
      </trkpt>
      <trkpt lat="47.17557" lon="-1.68208">
        <ele>30.42</ele>
        <time>2021-10-17T15:36:37Z</time>
      </trkpt>
      <trkpt lat="47.17554" lon="-1.68209">
        <ele>31.38</ele>
        <time>2021-10-17T15:36:38Z</time>
      </trkpt>
      <trkpt lat="47.1755" lon="-1.68212">
        <ele>31.38</ele>
        <time>2021-10-17T15:36:39Z</time>
      </trkpt>
      <trkpt lat="47.17541" lon="-1.68217">
        <ele>31.86</ele>
        <time>2021-10-17T15:36:41Z</time>
      </trkpt>
      <trkpt lat="47.17535" lon="-1.68223">
        <ele>31.86</ele>
        <time>2021-10-17T15:36:42Z</time>
      </trkpt>
      <trkpt lat="47.1753" lon="-1.68231">
        <ele>31.86</ele>
        <time>2021-10-17T15:36:43Z</time>
      </trkpt>
      <trkpt lat="47.17524" lon="-1.68244">
        <ele>31.86</ele>
        <time>2021-10-17T15:36:44Z</time>
      </trkpt>
      <trkpt lat="47.17518" lon="-1.68257">
        <ele>32.34</ele>
        <time>2021-10-17T15:36:45Z</time>
      </trkpt>
      <trkpt lat="47.17493" lon="-1.68313">
        <ele>33.78</ele>
        <time>2021-10-17T15:36:49Z</time>
      </trkpt>
      <trkpt lat="47.17486" lon="-1.68324">
        <ele>33.78</ele>
        <time>2021-10-17T15:36:50Z</time>
      </trkpt>
      <trkpt lat="47.17477" lon="-1.68334">
        <ele>34.74</ele>
        <time>2021-10-17T15:36:51Z</time>
      </trkpt>
      <trkpt lat="47.17469" lon="-1.68343">
        <ele>34.74</ele>
        <time>2021-10-17T15:36:52Z</time>
      </trkpt>
      <trkpt lat="47.17461" lon="-1.68351">
        <ele>35.23</ele>
        <time>2021-10-17T15:36:53Z</time>
      </trkpt>
      <trkpt lat="47.17452" lon="-1.68358">
        <ele>35.23</ele>
        <time>2021-10-17T15:36:54Z</time>
      </trkpt>
      <trkpt lat="47.17442" lon="-1.68363">
        <ele>35.71</ele>
        <time>2021-10-17T15:36:55Z</time>
      </trkpt>
      <trkpt lat="47.17431" lon="-1.68368">
        <ele>35.71</ele>
        <time>2021-10-17T15:36:56Z</time>
      </trkpt>
      <trkpt lat="47.17395" lon="-1.68385">
        <ele>35.71</ele>
        <time>2021-10-17T15:37:00Z</time>
      </trkpt>
      <trkpt lat="47.17389" lon="-1.6839">
        <ele>35.71</ele>
        <time>2021-10-17T15:37:01Z</time>
      </trkpt>
      <trkpt lat="47.17384" lon="-1.68396">
        <ele>35.71</ele>
        <time>2021-10-17T15:37:02Z</time>
      </trkpt>
      <trkpt lat="47.1738" lon="-1.68403">
        <ele>35.71</ele>
        <time>2021-10-17T15:37:03Z</time>
      </trkpt>
      <trkpt lat="47.17376" lon="-1.6841">
        <ele>35.71</ele>
        <time>2021-10-17T15:37:04Z</time>
      </trkpt>
      <trkpt lat="47.17372" lon="-1.68415">
        <ele>35.71</ele>
        <time>2021-10-17T15:37:05Z</time>
      </trkpt>
      <trkpt lat="47.17366" lon="-1.68418">
        <ele>35.71</ele>
        <time>2021-10-17T15:37:06Z</time>
      </trkpt>
      <trkpt lat="47.1736" lon="-1.68419">
        <ele>35.71</ele>
        <time>2021-10-17T15:37:07Z</time>
      </trkpt>
      <trkpt lat="47.17354" lon="-1.68417">
        <ele>35.71</ele>
        <time>2021-10-17T15:37:08Z</time>
      </trkpt>
      <trkpt lat="47.1735" lon="-1.68412">
        <ele>35.71</ele>
        <time>2021-10-17T15:37:09Z</time>
      </trkpt>
      <trkpt lat="47.17347" lon="-1.68406">
        <ele>35.71</ele>
        <time>2021-10-17T15:37:10Z</time>
      </trkpt>
      <trkpt lat="47.17344" lon="-1.68399">
        <ele>35.71</ele>
        <time>2021-10-17T15:37:11Z</time>
      </trkpt>
      <trkpt lat="47.17343" lon="-1.68393">
        <ele>35.71</ele>
        <time>2021-10-17T15:37:12Z</time>
      </trkpt>
      <trkpt lat="47.17344" lon="-1.68387">
        <ele>35.71</ele>
        <time>2021-10-17T15:37:13Z</time>
      </trkpt>
      <trkpt lat="47.17345" lon="-1.68382">
        <ele>35.71</ele>
        <time>2021-10-17T15:37:14Z</time>
      </trkpt>
      <trkpt lat="47.17348" lon="-1.68376">
        <ele>35.71</ele>
        <time>2021-10-17T15:37:15Z</time>
      </trkpt>
      <trkpt lat="47.17355" lon="-1.68363">
        <ele>35.71</ele>
        <time>2021-10-17T15:37:16Z</time>
      </trkpt>
      <trkpt lat="47.17361" lon="-1.68348">
        <ele>35.71</ele>
        <time>2021-10-17T15:37:17Z</time>
      </trkpt>
      <trkpt lat="47.17366" lon="-1.68332">
        <ele>35.71</ele>
        <time>2021-10-17T15:37:18Z</time>
      </trkpt>
      <trkpt lat="47.17368" lon="-1.68316">
        <ele>35.71</ele>
        <time>2021-10-17T15:37:19Z</time>
      </trkpt>
      <trkpt lat="47.17374" lon="-1.68234">
        <ele>32.34</ele>
        <time>2021-10-17T15:37:23Z</time>
      </trkpt>
      <trkpt lat="47.17352" lon="-1.68062">
        <ele>31.38</ele>
        <time>2021-10-17T15:37:30Z</time>
      </trkpt>
      <trkpt lat="47.1731" lon="-1.6779">
        <ele>32.82</ele>
        <time>2021-10-17T15:37:40Z</time>
      </trkpt>
      <trkpt lat="47.17276" lon="-1.67442">
        <ele>32.82</ele>
        <time>2021-10-17T15:37:53Z</time>
      </trkpt>
      <trkpt lat="47.17248" lon="-1.67013">
        <ele>32.82</ele>
        <time>2021-10-17T15:38:09Z</time>
      </trkpt>
      <trkpt lat="47.17218" lon="-1.66609">
        <ele>32.82</ele>
        <time>2021-10-17T15:38:22Z</time>
      </trkpt>
      <trkpt lat="47.17173" lon="-1.66138">
        <ele>32.82</ele>
        <time>2021-10-17T15:38:36Z</time>
      </trkpt>
      <trkpt lat="47.17105" lon="-1.65765">
        <ele>33.3</ele>
        <time>2021-10-17T15:38:47Z</time>
      </trkpt>
      <trkpt lat="47.16964" lon="-1.65262">
        <ele>31.86</ele>
        <time>2021-10-17T15:39:02Z</time>
      </trkpt>
      <trkpt lat="47.16917" lon="-1.65098">
        <ele>33.3</ele>
        <time>2021-10-17T15:39:07Z</time>
      </trkpt>
      <trkpt lat="47.16898" lon="-1.65033">
        <ele>31.86</ele>
        <time>2021-10-17T15:39:09Z</time>
      </trkpt>
      <trkpt lat="47.16705" lon="-1.64367">
        <ele>29.94</ele>
        <time>2021-10-17T15:39:29Z</time>
      </trkpt>
      <trkpt lat="47.16525" lon="-1.63838">
        <ele>28.02</ele>
        <time>2021-10-17T15:39:46Z</time>
      </trkpt>
      <trkpt lat="47.1637" lon="-1.63363">
        <ele>25.61</ele>
        <time>2021-10-17T15:40:02Z</time>
      </trkpt>
      <trkpt lat="47.16343" lon="-1.63126">
        <ele>25.13</ele>
        <time>2021-10-17T15:40:10Z</time>
      </trkpt>
      <trkpt lat="47.1636" lon="-1.62887">
        <ele>23.21</ele>
        <time>2021-10-17T15:40:18Z</time>
      </trkpt>
      <trkpt lat="47.1642" lon="-1.62679">
        <ele>21.77</ele>
        <time>2021-10-17T15:40:26Z</time>
      </trkpt>
      <trkpt lat="47.1648" lon="-1.62554">
        <ele>20.32</ele>
        <time>2021-10-17T15:40:33Z</time>
      </trkpt>
      <trkpt lat="47.16516" lon="-1.62493">
        <ele>19.36</ele>
        <time>2021-10-17T15:40:40Z</time>
      </trkpt>
      <trkpt lat="47.16549" lon="-1.6244">
        <ele>18.4</ele>
        <time>2021-10-17T15:40:53Z</time>
      </trkpt>
      <trkpt lat="47.16606" lon="-1.62348">
        <ele>18.88</ele>
        <time>2021-10-17T15:41:04Z</time>
      </trkpt>
      <trkpt lat="47.1671" lon="-1.62184">
        <ele>18.4</ele>
        <time>2021-10-17T15:41:17Z</time>
      </trkpt>
      <trkpt lat="47.16873" lon="-1.61926">
        <ele>19.36</ele>
        <time>2021-10-17T15:41:33Z</time>
      </trkpt>
      <trkpt lat="47.16913" lon="-1.61866">
        <ele>17.92</ele>
        <time>2021-10-17T15:41:37Z</time>
      </trkpt>
      <trkpt lat="47.17054" lon="-1.61658">
        <ele>16.48</ele>
        <time>2021-10-17T15:41:53Z</time>
      </trkpt>
      <trkpt lat="47.17215" lon="-1.61437">
        <ele>15.52</ele>
        <time>2021-10-17T15:42:09Z</time>
      </trkpt>
      <trkpt lat="47.17295" lon="-1.61349">
        <ele>13.6</ele>
        <time>2021-10-17T15:42:16Z</time>
      </trkpt>
      <trkpt lat="47.17366" lon="-1.61281">
        <ele>10.23</ele>
        <time>2021-10-17T15:42:22Z</time>
      </trkpt>
      <trkpt lat="47.17427" lon="-1.61227">
        <ele>6.87</ele>
        <time>2021-10-17T15:42:27Z</time>
      </trkpt>
      <trkpt lat="47.17581" lon="-1.61092">
        <ele>3.98</ele>
        <time>2021-10-17T15:42:38Z</time>
      </trkpt>
      <trkpt lat="47.17628" lon="-1.61051">
        <ele>5.91</ele>
        <time>2021-10-17T15:42:41Z</time>
      </trkpt>
      <trkpt lat="47.17833" lon="-1.60892">
        <ele>6.39</ele>
        <time>2021-10-17T15:42:52Z</time>
      </trkpt>
      <trkpt lat="47.17986" lon="-1.60773">
        <ele>4.94</ele>
        <time>2021-10-17T15:43:00Z</time>
      </trkpt>
      <trkpt lat="47.18264" lon="-1.60549">
        <ele>4.94</ele>
        <time>2021-10-17T15:43:16Z</time>
      </trkpt>
      <trkpt lat="47.18435" lon="-1.60337">
        <ele>4.94</ele>
        <time>2021-10-17T15:43:27Z</time>
      </trkpt>
      <trkpt lat="47.18556" lon="-1.601">
        <ele>4.94</ele>
        <time>2021-10-17T15:43:38Z</time>
      </trkpt>
      <trkpt lat="47.18607" lon="-1.59952">
        <ele>3.98</ele>
        <time>2021-10-17T15:43:46Z</time>
      </trkpt>
      <trkpt lat="47.18639" lon="-1.59859">
        <ele>3.5</ele>
        <time>2021-10-17T15:43:54Z</time>
      </trkpt>
      <trkpt lat="47.18641" lon="-1.59851">
        <ele>3.5</ele>
        <time>2021-10-17T15:43:55Z</time>
      </trkpt>
      <trkpt lat="47.18641" lon="-1.59845">
        <ele>3.5</ele>
        <time>2021-10-17T15:43:56Z</time>
      </trkpt>
      <trkpt lat="47.18641" lon="-1.59838">
        <ele>3.5</ele>
        <time>2021-10-17T15:43:57Z</time>
      </trkpt>
      <trkpt lat="47.18639" lon="-1.5983">
        <ele>3.5</ele>
        <time>2021-10-17T15:43:58Z</time>
      </trkpt>
      <trkpt lat="47.18637" lon="-1.59821">
        <ele>3.5</ele>
        <time>2021-10-17T15:43:59Z</time>
      </trkpt>
      <trkpt lat="47.18633" lon="-1.59802">
        <ele>3.02</ele>
        <time>2021-10-17T15:44:01Z</time>
      </trkpt>
      <trkpt lat="47.18633" lon="-1.59789">
        <ele>3.02</ele>
        <time>2021-10-17T15:44:02Z</time>
      </trkpt>
      <trkpt lat="47.18634" lon="-1.59779">
        <ele>3.02</ele>
        <time>2021-10-17T15:44:03Z</time>
      </trkpt>
      <trkpt lat="47.18638" lon="-1.59769">
        <ele>3.02</ele>
        <time>2021-10-17T15:44:04Z</time>
      </trkpt>
      <trkpt lat="47.18643" lon="-1.59759">
        <ele>3.02</ele>
        <time>2021-10-17T15:44:05Z</time>
      </trkpt>
      <trkpt lat="47.18648" lon="-1.59751">
        <ele>3.02</ele>
        <time>2021-10-17T15:44:06Z</time>
      </trkpt>
      <trkpt lat="47.1866" lon="-1.59731">
        <ele>3.02</ele>
        <time>2021-10-17T15:44:08Z</time>
      </trkpt>
      <trkpt lat="47.18664" lon="-1.59719">
        <ele>3.02</ele>
        <time>2021-10-17T15:44:09Z</time>
      </trkpt>
      <trkpt lat="47.18668" lon="-1.59705">
        <ele>4.46</ele>
        <time>2021-10-17T15:44:10Z</time>
      </trkpt>
      <trkpt lat="47.18671" lon="-1.59691">
        <ele>4.46</ele>
        <time>2021-10-17T15:44:11Z</time>
      </trkpt>
      <trkpt lat="47.18673" lon="-1.59674">
        <ele>4.46</ele>
        <time>2021-10-17T15:44:12Z</time>
      </trkpt>
      <trkpt lat="47.18694" lon="-1.59504">
        <ele>4.94</ele>
        <time>2021-10-17T15:44:20Z</time>
      </trkpt>
      <trkpt lat="47.18723" lon="-1.59231">
        <ele>6.87</ele>
        <time>2021-10-17T15:44:30Z</time>
      </trkpt>
      <trkpt lat="47.18766" lon="-1.58849">
        <ele>4.94</ele>
        <time>2021-10-17T15:44:44Z</time>
      </trkpt>
      <trkpt lat="47.1877" lon="-1.58781">
        <ele>3.98</ele>
        <time>2021-10-17T15:44:49Z</time>
      </trkpt>
      <trkpt lat="47.18766" lon="-1.58758">
        <ele>3.98</ele>
        <time>2021-10-17T15:44:51Z</time>
      </trkpt>
      <trkpt lat="47.18764" lon="-1.58747">
        <ele>3.98</ele>
        <time>2021-10-17T15:44:52Z</time>
      </trkpt>
      <trkpt lat="47.18764" lon="-1.58737">
        <ele>3.5</ele>
        <time>2021-10-17T15:44:53Z</time>
      </trkpt>
      <trkpt lat="47.18765" lon="-1.58726">
        <ele>3.5</ele>
        <time>2021-10-17T15:44:54Z</time>
      </trkpt>
      <trkpt lat="47.18768" lon="-1.58714">
        <ele>3.5</ele>
        <time>2021-10-17T15:44:55Z</time>
      </trkpt>
      <trkpt lat="47.18772" lon="-1.58704">
        <ele>3.5</ele>
        <time>2021-10-17T15:44:56Z</time>
      </trkpt>
      <trkpt lat="47.18778" lon="-1.58693">
        <ele>3.5</ele>
        <time>2021-10-17T15:44:57Z</time>
      </trkpt>
      <trkpt lat="47.18795" lon="-1.58655">
        <ele>4.94</ele>
        <time>2021-10-17T15:45:00Z</time>
      </trkpt>
      <trkpt lat="47.188" lon="-1.58638">
        <ele>4.94</ele>
        <time>2021-10-17T15:45:01Z</time>
      </trkpt>
      <trkpt lat="47.18857" lon="-1.58432">
        <ele>5.91</ele>
        <time>2021-10-17T15:45:11Z</time>
      </trkpt>
      <trkpt lat="47.18942" lon="-1.58179">
        <ele>6.39</ele>
        <time>2021-10-17T15:45:21Z</time>
      </trkpt>
      <trkpt lat="47.19096" lon="-1.57749">
        <ele>6.87</ele>
        <time>2021-10-17T15:45:38Z</time>
      </trkpt>
      <trkpt lat="47.19224" lon="-1.57378">
        <ele>5.42</ele>
        <time>2021-10-17T15:45:53Z</time>
      </trkpt>
      <trkpt lat="47.1928" lon="-1.57106">
        <ele>8.79</ele>
        <time>2021-10-17T15:46:04Z</time>
      </trkpt>
      <trkpt lat="47.19302" lon="-1.56832">
        <ele>6.39</ele>
        <time>2021-10-17T15:46:15Z</time>
      </trkpt>
      <trkpt lat="47.19281" lon="-1.56526">
        <ele>5.42</ele>
        <time>2021-10-17T15:46:27Z</time>
      </trkpt>
      <trkpt lat="47.19264" lon="-1.56375">
        <ele>3.98</ele>
        <time>2021-10-17T15:46:35Z</time>
      </trkpt>
      <trkpt lat="47.19256" lon="-1.56333">
        <ele>3.98</ele>
        <time>2021-10-17T15:46:39Z</time>
      </trkpt>
      <trkpt lat="47.19253" lon="-1.56325">
        <ele>3.98</ele>
        <time>2021-10-17T15:46:40Z</time>
      </trkpt>
      <trkpt lat="47.1925" lon="-1.56318">
        <ele>3.98</ele>
        <time>2021-10-17T15:46:41Z</time>
      </trkpt>
      <trkpt lat="47.19244" lon="-1.56311">
        <ele>3.98</ele>
        <time>2021-10-17T15:46:42Z</time>
      </trkpt>
      <trkpt lat="47.1924" lon="-1.56304">
        <ele>3.98</ele>
        <time>2021-10-17T15:46:43Z</time>
      </trkpt>
      <trkpt lat="47.19236" lon="-1.56295">
        <ele>3.98</ele>
        <time>2021-10-17T15:46:44Z</time>
      </trkpt>
      <trkpt lat="47.19234" lon="-1.56286">
        <ele>3.98</ele>
        <time>2021-10-17T15:46:45Z</time>
      </trkpt>
      <trkpt lat="47.19233" lon="-1.56278">
        <ele>3.98</ele>
        <time>2021-10-17T15:46:46Z</time>
      </trkpt>
      <trkpt lat="47.19234" lon="-1.56268">
        <ele>3.98</ele>
        <time>2021-10-17T15:46:47Z</time>
      </trkpt>
      <trkpt lat="47.19236" lon="-1.56259">
        <ele>3.98</ele>
        <time>2021-10-17T15:46:48Z</time>
      </trkpt>
      <trkpt lat="47.19239" lon="-1.56248">
        <ele>3.98</ele>
        <time>2021-10-17T15:46:49Z</time>
      </trkpt>
      <trkpt lat="47.19244" lon="-1.56227">
        <ele>3.98</ele>
        <time>2021-10-17T15:46:51Z</time>
      </trkpt>
      <trkpt lat="47.19245" lon="-1.56212">
        <ele>3.98</ele>
        <time>2021-10-17T15:46:52Z</time>
      </trkpt>
      <trkpt lat="47.19245" lon="-1.56073">
        <ele>3.98</ele>
        <time>2021-10-17T15:47:00Z</time>
      </trkpt>
      <trkpt lat="47.19224" lon="-1.55822">
        <ele>5.42</ele>
        <time>2021-10-17T15:47:11Z</time>
      </trkpt>
      <trkpt lat="47.19233" lon="-1.55546">
        <ele>5.42</ele>
        <time>2021-10-17T15:47:23Z</time>
      </trkpt>
      <trkpt lat="47.19237" lon="-1.55485">
        <ele>3.98</ele>
        <time>2021-10-17T15:47:27Z</time>
      </trkpt>
      <trkpt lat="47.19224" lon="-1.55449">
        <ele>3.5</ele>
        <time>2021-10-17T15:47:33Z</time>
      </trkpt>
      <trkpt lat="47.19221" lon="-1.55441">
        <ele>3.5</ele>
        <time>2021-10-17T15:47:34Z</time>
      </trkpt>
      <trkpt lat="47.19219" lon="-1.55434">
        <ele>3.5</ele>
        <time>2021-10-17T15:47:35Z</time>
      </trkpt>
      <trkpt lat="47.19218" lon="-1.55425">
        <ele>3.5</ele>
        <time>2021-10-17T15:47:36Z</time>
      </trkpt>
      <trkpt lat="47.19219" lon="-1.55416">
        <ele>3.5</ele>
        <time>2021-10-17T15:47:37Z</time>
      </trkpt>
      <trkpt lat="47.1922" lon="-1.55408">
        <ele>3.5</ele>
        <time>2021-10-17T15:47:38Z</time>
      </trkpt>
      <trkpt lat="47.19224" lon="-1.554">
        <ele>3.5</ele>
        <time>2021-10-17T15:47:39Z</time>
      </trkpt>
      <trkpt lat="47.19228" lon="-1.55392">
        <ele>3.5</ele>
        <time>2021-10-17T15:47:40Z</time>
      </trkpt>
      <trkpt lat="47.19232" lon="-1.55383">
        <ele>3.5</ele>
        <time>2021-10-17T15:47:41Z</time>
      </trkpt>
      <trkpt lat="47.1926" lon="-1.55301">
        <ele>4.94</ele>
        <time>2021-10-17T15:47:47Z</time>
      </trkpt>
      <trkpt lat="47.19308" lon="-1.55113">
        <ele>7.83</ele>
        <time>2021-10-17T15:47:56Z</time>
      </trkpt>
      <trkpt lat="47.19338" lon="-1.55003">
        <ele>10.71</ele>
        <time>2021-10-17T15:48:01Z</time>
      </trkpt>
      <trkpt lat="47.19397" lon="-1.54775">
        <ele>6.87</ele>
        <time>2021-10-17T15:48:12Z</time>
      </trkpt>
      <trkpt lat="47.1941" lon="-1.54722">
        <ele>3.98</ele>
        <time>2021-10-17T15:48:16Z</time>
      </trkpt>
      <trkpt lat="47.19412" lon="-1.54712">
        <ele>3.5</ele>
        <time>2021-10-17T15:48:17Z</time>
      </trkpt>
      <trkpt lat="47.19414" lon="-1.54704">
        <ele>3.02</ele>
        <time>2021-10-17T15:48:18Z</time>
      </trkpt>
      <trkpt lat="47.19433" lon="-1.54631">
        <ele>2.54</ele>
        <time>2021-10-17T15:48:28Z</time>
      </trkpt>
      <trkpt lat="47.19436" lon="-1.54619">
        <ele>2.54</ele>
        <time>2021-10-17T15:48:30Z</time>
      </trkpt>
      <trkpt lat="47.19435" lon="-1.54613">
        <ele>2.54</ele>
        <time>2021-10-17T15:48:31Z</time>
      </trkpt>
      <trkpt lat="47.19433" lon="-1.54608">
        <ele>2.54</ele>
        <time>2021-10-17T15:48:32Z</time>
      </trkpt>
      <trkpt lat="47.1943" lon="-1.54604">
        <ele>2.54</ele>
        <time>2021-10-17T15:48:33Z</time>
      </trkpt>
      <trkpt lat="47.19427" lon="-1.54598">
        <ele>2.54</ele>
        <time>2021-10-17T15:48:34Z</time>
      </trkpt>
      <trkpt lat="47.19425" lon="-1.54592">
        <ele>2.54</ele>
        <time>2021-10-17T15:48:35Z</time>
      </trkpt>
      <trkpt lat="47.19424" lon="-1.54585">
        <ele>2.54</ele>
        <time>2021-10-17T15:48:36Z</time>
      </trkpt>
      <trkpt lat="47.19425" lon="-1.5458">
        <ele>2.54</ele>
        <time>2021-10-17T15:48:37Z</time>
      </trkpt>
      <trkpt lat="47.19426" lon="-1.54573">
        <ele>3.02</ele>
        <time>2021-10-17T15:48:38Z</time>
      </trkpt>
      <trkpt lat="47.19429" lon="-1.54567">
        <ele>3.02</ele>
        <time>2021-10-17T15:48:39Z</time>
      </trkpt>
      <trkpt lat="47.19432" lon="-1.54561">
        <ele>2.54</ele>
        <time>2021-10-17T15:48:40Z</time>
      </trkpt>
      <trkpt lat="47.19436" lon="-1.54556">
        <ele>3.02</ele>
        <time>2021-10-17T15:48:41Z</time>
      </trkpt>
      <trkpt lat="47.19441" lon="-1.54551">
        <ele>3.02</ele>
        <time>2021-10-17T15:48:42Z</time>
      </trkpt>
      <trkpt lat="47.19446" lon="-1.54545">
        <ele>3.02</ele>
        <time>2021-10-17T15:48:43Z</time>
      </trkpt>
      <trkpt lat="47.19452" lon="-1.54538">
        <ele>3.02</ele>
        <time>2021-10-17T15:48:44Z</time>
      </trkpt>
      <trkpt lat="47.19455" lon="-1.54533">
        <ele>3.02</ele>
        <time>2021-10-17T15:48:45Z</time>
      </trkpt>
      <trkpt lat="47.19459" lon="-1.54524">
        <ele>3.02</ele>
        <time>2021-10-17T15:48:46Z</time>
      </trkpt>
      <trkpt lat="47.19462" lon="-1.54515">
        <ele>3.02</ele>
        <time>2021-10-17T15:48:47Z</time>
      </trkpt>
      <trkpt lat="47.19466" lon="-1.54505">
        <ele>3.02</ele>
        <time>2021-10-17T15:48:48Z</time>
      </trkpt>
      <trkpt lat="47.19476" lon="-1.54476">
        <ele>3.02</ele>
        <time>2021-10-17T15:48:51Z</time>
      </trkpt>
      <trkpt lat="47.19481" lon="-1.54468">
        <ele>3.98</ele>
        <time>2021-10-17T15:48:52Z</time>
      </trkpt>
      <trkpt lat="47.19487" lon="-1.5446">
        <ele>3.98</ele>
        <time>2021-10-17T15:48:53Z</time>
      </trkpt>
      <trkpt lat="47.19494" lon="-1.54452">
        <ele>4.94</ele>
        <time>2021-10-17T15:48:54Z</time>
      </trkpt>
      <trkpt lat="47.19502" lon="-1.54446">
        <ele>4.94</ele>
        <time>2021-10-17T15:48:55Z</time>
      </trkpt>
      <trkpt lat="47.19612" lon="-1.54366">
        <ele>5.42</ele>
        <time>2021-10-17T15:49:08Z</time>
      </trkpt>
      <trkpt lat="47.19718" lon="-1.54273">
        <ele>3.5</ele>
        <time>2021-10-17T15:49:18Z</time>
      </trkpt>
      <trkpt lat="47.19758" lon="-1.54245">
        <ele>3.5</ele>
        <time>2021-10-17T15:49:25Z</time>
      </trkpt>
      <trkpt lat="47.19761" lon="-1.54244">
        <ele>3.5</ele>
        <time>2021-10-17T15:49:35Z</time>
      </trkpt>
      <trkpt lat="47.19758" lon="-1.54246">
        <ele>3.5</ele>
        <time>2021-10-17T15:50:15Z</time>
      </trkpt>
      <trkpt lat="47.19761" lon="-1.54245">
        <ele>3.5</ele>
        <time>2021-10-17T15:50:19Z</time>
      </trkpt>
      <trkpt lat="47.19765" lon="-1.54243">
        <ele>3.5</ele>
        <time>2021-10-17T15:50:20Z</time>
      </trkpt>
      <trkpt lat="47.19771" lon="-1.54241">
        <ele>3.5</ele>
        <time>2021-10-17T15:50:21Z</time>
      </trkpt>
      <trkpt lat="47.19777" lon="-1.5424">
        <ele>3.5</ele>
        <time>2021-10-17T15:50:22Z</time>
      </trkpt>
      <trkpt lat="47.19784" lon="-1.54241">
        <ele>3.5</ele>
        <time>2021-10-17T15:50:23Z</time>
      </trkpt>
      <trkpt lat="47.19791" lon="-1.54244">
        <ele>4.94</ele>
        <time>2021-10-17T15:50:24Z</time>
      </trkpt>
      <trkpt lat="47.19799" lon="-1.54249">
        <ele>4.94</ele>
        <time>2021-10-17T15:50:25Z</time>
      </trkpt>
      <trkpt lat="47.19807" lon="-1.54254">
        <ele>5.91</ele>
        <time>2021-10-17T15:50:26Z</time>
      </trkpt>
      <trkpt lat="47.19928" lon="-1.54336">
        <ele>8.79</ele>
        <time>2021-10-17T15:50:37Z</time>
      </trkpt>
      <trkpt lat="47.20038" lon="-1.54407">
        <ele>5.91</ele>
        <time>2021-10-17T15:50:47Z</time>
      </trkpt>
      <trkpt lat="47.20121" lon="-1.54452">
        <ele>3.98</ele>
        <time>2021-10-17T15:50:58Z</time>
      </trkpt>
      <trkpt lat="47.20244" lon="-1.54532">
        <ele>3.5</ele>
        <time>2021-10-17T15:51:12Z</time>
      </trkpt>
      <trkpt lat="47.20382" lon="-1.54619">
        <ele>3.98</ele>
        <time>2021-10-17T15:51:26Z</time>
      </trkpt>
      <trkpt lat="47.20425" lon="-1.54645">
        <ele>3.5</ele>
        <time>2021-10-17T15:51:34Z</time>
      </trkpt>
      <trkpt lat="47.20435" lon="-1.54643">
        <ele>3.5</ele>
        <time>2021-10-17T15:51:37Z</time>
      </trkpt>
      <trkpt lat="47.20437" lon="-1.5464">
        <ele>3.5</ele>
        <time>2021-10-17T15:51:38Z</time>
      </trkpt>
      <trkpt lat="47.20438" lon="-1.54637">
        <ele>3.5</ele>
        <time>2021-10-17T15:51:39Z</time>
      </trkpt>
      <trkpt lat="47.2044" lon="-1.54633">
        <ele>3.5</ele>
        <time>2021-10-17T15:51:40Z</time>
      </trkpt>
      <trkpt lat="47.20441" lon="-1.54629">
        <ele>3.5</ele>
        <time>2021-10-17T15:51:41Z</time>
      </trkpt>
      <trkpt lat="47.20443" lon="-1.54606">
        <ele>3.02</ele>
        <time>2021-10-17T15:51:53Z</time>
      </trkpt>
      <trkpt lat="47.20447" lon="-1.54604">
        <ele>3.02</ele>
        <time>2021-10-17T15:52:19Z</time>
      </trkpt>
      <trkpt lat="47.20447" lon="-1.54605">
        <ele>3.02</ele>
        <time>2021-10-17T15:52:47Z</time>
      </trkpt>
      <trkpt lat="47.20443" lon="-1.54603">
        <ele>3.5</ele>
        <time>2021-10-17T15:53:21Z</time>
      </trkpt>
      <trkpt lat="47.20445" lon="-1.54605">
        <ele>3.5</ele>
        <time>2021-10-17T15:53:49Z</time>
      </trkpt>
      <trkpt lat="47.20443" lon="-1.54602">
        <ele>5.42</ele>
        <time>2021-10-17T15:54:23Z</time>
      </trkpt>
      <trkpt lat="47.20446" lon="-1.54599">
        <ele>5.91</ele>
        <time>2021-10-17T15:55:00Z</time>
      </trkpt>
      <trkpt lat="47.20447" lon="-1.54598">
        <ele>6.39</ele>
        <time>2021-10-17T15:55:17Z</time>
      </trkpt>
      <trkpt lat="47.20447" lon="-1.54596">
        <ele>6.39</ele>
        <time>2021-10-17T15:55:18Z</time>
      </trkpt>
      <trkpt lat="47.20455" lon="-1.5454">
        <ele>6.39</ele>
        <time>2021-10-17T15:55:29Z</time>
      </trkpt>
      <trkpt lat="47.20465" lon="-1.54437">
        <ele>6.87</ele>
        <time>2021-10-17T15:55:43Z</time>
      </trkpt>
      <trkpt lat="47.20473" lon="-1.54364">
        <ele>6.87</ele>
        <time>2021-10-17T15:55:54Z</time>
      </trkpt>
      <trkpt lat="47.20475" lon="-1.54357">
        <ele>6.87</ele>
        <time>2021-10-17T15:55:56Z</time>
      </trkpt>
      <trkpt lat="47.20478" lon="-1.54355">
        <ele>6.87</ele>
        <time>2021-10-17T15:55:57Z</time>
      </trkpt>
      <trkpt lat="47.20481" lon="-1.54355">
        <ele>6.87</ele>
        <time>2021-10-17T15:55:58Z</time>
      </trkpt>
      <trkpt lat="47.20485" lon="-1.54355">
        <ele>6.87</ele>
        <time>2021-10-17T15:55:59Z</time>
      </trkpt>
      <trkpt lat="47.2049" lon="-1.54356">
        <ele>6.87</ele>
        <time>2021-10-17T15:56:00Z</time>
      </trkpt>
      <trkpt lat="47.20554" lon="-1.54369">
        <ele>5.91</ele>
        <time>2021-10-17T15:56:13Z</time>
      </trkpt>
      <trkpt lat="47.20563" lon="-1.54357">
        <ele>5.91</ele>
        <time>2021-10-17T15:56:19Z</time>
      </trkpt>
      <trkpt lat="47.20565" lon="-1.5435">
        <ele>5.91</ele>
        <time>2021-10-17T15:56:20Z</time>
      </trkpt>
      <trkpt lat="47.20566" lon="-1.54344">
        <ele>5.91</ele>
        <time>2021-10-17T15:56:21Z</time>
      </trkpt>
      <trkpt lat="47.2057" lon="-1.54303">
        <ele>5.91</ele>
        <time>2021-10-17T15:56:26Z</time>
      </trkpt>
      <trkpt lat="47.2057" lon="-1.54295">
        <ele>6.39</ele>
        <time>2021-10-17T15:56:27Z</time>
      </trkpt>
      <trkpt lat="47.20566" lon="-1.54275">
        <ele>6.39</ele>
        <time>2021-10-17T15:56:34Z</time>
      </trkpt>
      <trkpt lat="47.20566" lon="-1.54272">
        <ele>6.39</ele>
        <time>2021-10-17T15:56:36Z</time>
      </trkpt>
      <trkpt lat="47.20565" lon="-1.54268">
        <ele>7.35</ele>
        <time>2021-10-17T15:56:37Z</time>
      </trkpt>
      <trkpt lat="47.2056" lon="-1.5424">
        <ele>7.35</ele>
        <time>2021-10-17T15:56:42Z</time>
      </trkpt>
      <trkpt lat="47.20557" lon="-1.54235">
        <ele>7.35</ele>
        <time>2021-10-17T15:56:43Z</time>
      </trkpt>
      <trkpt lat="47.20554" lon="-1.54231">
        <ele>7.35</ele>
        <time>2021-10-17T15:56:44Z</time>
      </trkpt>
      <trkpt lat="47.20552" lon="-1.54227">
        <ele>7.35</ele>
        <time>2021-10-17T15:56:45Z</time>
      </trkpt>
      <trkpt lat="47.20551" lon="-1.54222">
        <ele>7.35</ele>
        <time>2021-10-17T15:56:46Z</time>
      </trkpt>
      <trkpt lat="47.20552" lon="-1.54218">
        <ele>7.35</ele>
        <time>2021-10-17T15:56:47Z</time>
      </trkpt>
      <trkpt lat="47.20553" lon="-1.54215">
        <ele>7.35</ele>
        <time>2021-10-17T15:56:48Z</time>
      </trkpt>
      <trkpt lat="47.20556" lon="-1.54213">
        <ele>7.83</ele>
        <time>2021-10-17T15:56:49Z</time>
      </trkpt>
      <trkpt lat="47.20559" lon="-1.54212">
        <ele>7.83</ele>
        <time>2021-10-17T15:56:50Z</time>
      </trkpt>
      <trkpt lat="47.20569" lon="-1.54215">
        <ele>7.83</ele>
        <time>2021-10-17T15:56:53Z</time>
      </trkpt>
      <trkpt lat="47.20587" lon="-1.54227">
        <ele>7.83</ele>
        <time>2021-10-17T15:56:57Z</time>
      </trkpt>
      <trkpt lat="47.20594" lon="-1.5423">
        <ele>7.83</ele>
        <time>2021-10-17T15:56:58Z</time>
      </trkpt>
      <trkpt lat="47.20641" lon="-1.54226">
        <ele>7.83</ele>
        <time>2021-10-17T15:57:07Z</time>
      </trkpt>
      <trkpt lat="47.20656" lon="-1.54194">
        <ele>8.31</ele>
        <time>2021-10-17T15:57:15Z</time>
      </trkpt>
      <trkpt lat="47.20668" lon="-1.54078">
        <ele>8.31</ele>
        <time>2021-10-17T15:57:24Z</time>
      </trkpt>
      <trkpt lat="47.20678" lon="-1.53967">
        <ele>8.31</ele>
        <time>2021-10-17T15:57:35Z</time>
      </trkpt>
      <trkpt lat="47.20678" lon="-1.53952">
        <ele>8.31</ele>
        <time>2021-10-17T15:57:40Z</time>
      </trkpt>
      <trkpt lat="47.20676" lon="-1.53949">
        <ele>8.31</ele>
        <time>2021-10-17T15:57:41Z</time>
      </trkpt>
      <trkpt lat="47.20672" lon="-1.53944">
        <ele>8.31</ele>
        <time>2021-10-17T15:57:42Z</time>
      </trkpt>
      <trkpt lat="47.20668" lon="-1.5394">
        <ele>8.31</ele>
        <time>2021-10-17T15:57:43Z</time>
      </trkpt>
      <trkpt lat="47.20664" lon="-1.53937">
        <ele>8.31</ele>
        <time>2021-10-17T15:57:44Z</time>
      </trkpt>
      <trkpt lat="47.20584" lon="-1.53876">
        <ele>7.35</ele>
        <time>2021-10-17T15:57:56Z</time>
      </trkpt>
      <trkpt lat="47.20578" lon="-1.53871">
        <ele>7.35</ele>
        <time>2021-10-17T15:57:57Z</time>
      </trkpt>
      <trkpt lat="47.20525" lon="-1.53829">
        <ele>7.35</ele>
        <time>2021-10-17T15:58:09Z</time>
      </trkpt>
      <trkpt lat="47.20489" lon="-1.53793">
        <ele>8.79</ele>
        <time>2021-10-17T15:58:19Z</time>
      </trkpt>
      <trkpt lat="47.2049" lon="-1.53787">
        <ele>8.79</ele>
        <time>2021-10-17T15:58:20Z</time>
      </trkpt>
      <trkpt lat="47.20492" lon="-1.53782">
        <ele>8.79</ele>
        <time>2021-10-17T15:58:21Z</time>
      </trkpt>
      <trkpt lat="47.20495" lon="-1.53777">
        <ele>9.27</ele>
        <time>2021-10-17T15:58:22Z</time>
      </trkpt>
      <trkpt lat="47.20501" lon="-1.53771">
        <ele>9.27</ele>
        <time>2021-10-17T15:58:23Z</time>
      </trkpt>
      <trkpt lat="47.20506" lon="-1.53766">
        <ele>9.27</ele>
        <time>2021-10-17T15:58:24Z</time>
      </trkpt>
      <trkpt lat="47.20517" lon="-1.53752">
        <ele>9.27</ele>
        <time>2021-10-17T15:58:26Z</time>
      </trkpt>
      <trkpt lat="47.20522" lon="-1.53745">
        <ele>9.27</ele>
        <time>2021-10-17T15:58:27Z</time>
      </trkpt>
      <trkpt lat="47.20577" lon="-1.5361">
        <ele>9.75</ele>
        <time>2021-10-17T15:58:37Z</time>
      </trkpt>
      <trkpt lat="47.20661" lon="-1.53393">
        <ele>10.71</ele>
        <time>2021-10-17T15:58:51Z</time>
      </trkpt>
      <trkpt lat="47.20678" lon="-1.53339">
        <ele>10.71</ele>
        <time>2021-10-17T15:58:57Z</time>
      </trkpt>
      <trkpt lat="47.20679" lon="-1.53332">
        <ele>10.71</ele>
        <time>2021-10-17T15:58:58Z</time>
      </trkpt>
      <trkpt lat="47.20679" lon="-1.53326">
        <ele>10.71</ele>
        <time>2021-10-17T15:58:59Z</time>
      </trkpt>
      <trkpt lat="47.20676" lon="-1.53319">
        <ele>10.71</ele>
        <time>2021-10-17T15:59:00Z</time>
      </trkpt>
      <trkpt lat="47.20673" lon="-1.53315">
        <ele>10.71</ele>
        <time>2021-10-17T15:59:01Z</time>
      </trkpt>
      <trkpt lat="47.20669" lon="-1.53311">
        <ele>10.71</ele>
        <time>2021-10-17T15:59:02Z</time>
      </trkpt>
      <trkpt lat="47.20663" lon="-1.53306">
        <ele>10.71</ele>
        <time>2021-10-17T15:59:03Z</time>
      </trkpt>
      <trkpt lat="47.20577" lon="-1.53239">
        <ele>9.75</ele>
        <time>2021-10-17T15:59:13Z</time>
      </trkpt>
      <trkpt lat="47.2057" lon="-1.53234">
        <ele>9.75</ele>
        <time>2021-10-17T15:59:14Z</time>
      </trkpt>
      <trkpt lat="47.20514" lon="-1.53189">
        <ele>8.79</ele>
        <time>2021-10-17T15:59:24Z</time>
      </trkpt>
      <trkpt lat="47.20471" lon="-1.53158">
        <ele>7.83</ele>
        <time>2021-10-17T15:59:33Z</time>
      </trkpt>
      <trkpt lat="47.20469" lon="-1.53154">
        <ele>7.83</ele>
        <time>2021-10-17T15:59:34Z</time>
      </trkpt>
      <trkpt lat="47.20468" lon="-1.53149">
        <ele>7.83</ele>
        <time>2021-10-17T15:59:35Z</time>
      </trkpt>
      <trkpt lat="47.20469" lon="-1.53141">
        <ele>7.83</ele>
        <time>2021-10-17T15:59:36Z</time>
      </trkpt>
      <trkpt lat="47.20471" lon="-1.53135">
        <ele>7.83</ele>
        <time>2021-10-17T15:59:37Z</time>
      </trkpt>
      <trkpt lat="47.20474" lon="-1.53127">
        <ele>7.83</ele>
        <time>2021-10-17T15:59:38Z</time>
      </trkpt>
      <trkpt lat="47.20477" lon="-1.53118">
        <ele>7.83</ele>
        <time>2021-10-17T15:59:39Z</time>
      </trkpt>
      <trkpt lat="47.20523" lon="-1.53007">
        <ele>8.31</ele>
        <time>2021-10-17T15:59:50Z</time>
      </trkpt>
      <trkpt lat="47.20579" lon="-1.52884">
        <ele>8.31</ele>
        <time>2021-10-17T16:00:02Z</time>
      </trkpt>
      <trkpt lat="47.20599" lon="-1.52851">
        <ele>7.83</ele>
        <time>2021-10-17T16:00:09Z</time>
      </trkpt>
      <trkpt lat="47.20612" lon="-1.52814">
        <ele>7.83</ele>
        <time>2021-10-17T16:00:14Z</time>
      </trkpt>
      <trkpt lat="47.20665" lon="-1.52711">
        <ele>7.83</ele>
        <time>2021-10-17T16:00:23Z</time>
      </trkpt>
      <trkpt lat="47.20673" lon="-1.52693">
        <ele>7.83</ele>
        <time>2021-10-17T16:00:25Z</time>
      </trkpt>
      <trkpt lat="47.20674" lon="-1.52685">
        <ele>7.83</ele>
        <time>2021-10-17T16:00:26Z</time>
      </trkpt>
      <trkpt lat="47.20675" lon="-1.52677">
        <ele>7.83</ele>
        <time>2021-10-17T16:00:27Z</time>
      </trkpt>
      <trkpt lat="47.20674" lon="-1.5267">
        <ele>7.83</ele>
        <time>2021-10-17T16:00:28Z</time>
      </trkpt>
      <trkpt lat="47.20671" lon="-1.52663">
        <ele>9.27</ele>
        <time>2021-10-17T16:00:29Z</time>
      </trkpt>
      <trkpt lat="47.20667" lon="-1.52654">
        <ele>9.75</ele>
        <time>2021-10-17T16:00:30Z</time>
      </trkpt>
      <trkpt lat="47.20662" lon="-1.52645">
        <ele>10.23</ele>
        <time>2021-10-17T16:00:31Z</time>
      </trkpt>
      <trkpt lat="47.20629" lon="-1.52592">
        <ele>12.15</ele>
        <time>2021-10-17T16:00:36Z</time>
      </trkpt>
      <trkpt lat="47.20525" lon="-1.52417">
        <ele>12.15</ele>
        <time>2021-10-17T16:00:49Z</time>
      </trkpt>
      <trkpt lat="47.20497" lon="-1.52374">
        <ele>8.79</ele>
        <time>2021-10-17T16:00:54Z</time>
      </trkpt>
      <trkpt lat="47.20483" lon="-1.52358">
        <ele>8.31</ele>
        <time>2021-10-17T16:00:59Z</time>
      </trkpt>
      <trkpt lat="47.20483" lon="-1.52351">
        <ele>8.79</ele>
        <time>2021-10-17T16:01:00Z</time>
      </trkpt>
      <trkpt lat="47.20484" lon="-1.52345">
        <ele>8.79</ele>
        <time>2021-10-17T16:01:01Z</time>
      </trkpt>
      <trkpt lat="47.20486" lon="-1.52341">
        <ele>8.31</ele>
        <time>2021-10-17T16:01:02Z</time>
      </trkpt>
      <trkpt lat="47.20489" lon="-1.52334">
        <ele>8.31</ele>
        <time>2021-10-17T16:01:03Z</time>
      </trkpt>
      <trkpt lat="47.20497" lon="-1.52312">
        <ele>7.83</ele>
        <time>2021-10-17T16:01:06Z</time>
      </trkpt>
      <trkpt lat="47.20498" lon="-1.52304">
        <ele>7.35</ele>
        <time>2021-10-17T16:01:07Z</time>
      </trkpt>
      <trkpt lat="47.205" lon="-1.52295">
        <ele>7.35</ele>
        <time>2021-10-17T16:01:08Z</time>
      </trkpt>
      <trkpt lat="47.205" lon="-1.52287">
        <ele>7.35</ele>
        <time>2021-10-17T16:01:09Z</time>
      </trkpt>
      <trkpt lat="47.205" lon="-1.52277">
        <ele>7.35</ele>
        <time>2021-10-17T16:01:10Z</time>
      </trkpt>
      <trkpt lat="47.20498" lon="-1.52271">
        <ele>7.35</ele>
        <time>2021-10-17T16:01:11Z</time>
      </trkpt>
      <trkpt lat="47.20495" lon="-1.52264">
        <ele>7.35</ele>
        <time>2021-10-17T16:01:12Z</time>
      </trkpt>
      <trkpt lat="47.20493" lon="-1.52259">
        <ele>7.35</ele>
        <time>2021-10-17T16:01:13Z</time>
      </trkpt>
      <trkpt lat="47.20487" lon="-1.52252">
        <ele>7.35</ele>
        <time>2021-10-17T16:01:14Z</time>
      </trkpt>
      <trkpt lat="47.20482" lon="-1.52245">
        <ele>7.35</ele>
        <time>2021-10-17T16:01:15Z</time>
      </trkpt>
      <trkpt lat="47.20467" lon="-1.52223">
        <ele>7.35</ele>
        <time>2021-10-17T16:01:18Z</time>
      </trkpt>
      <trkpt lat="47.20465" lon="-1.52214">
        <ele>8.31</ele>
        <time>2021-10-17T16:01:19Z</time>
      </trkpt>
      <trkpt lat="47.20462" lon="-1.52205">
        <ele>8.31</ele>
        <time>2021-10-17T16:01:20Z</time>
      </trkpt>
      <trkpt lat="47.2046" lon="-1.52196">
        <ele>9.27</ele>
        <time>2021-10-17T16:01:21Z</time>
      </trkpt>
      <trkpt lat="47.20456" lon="-1.52188">
        <ele>9.27</ele>
        <time>2021-10-17T16:01:22Z</time>
      </trkpt>
      <trkpt lat="47.20452" lon="-1.5218">
        <ele>10.23</ele>
        <time>2021-10-17T16:01:23Z</time>
      </trkpt>
      <trkpt lat="47.20409" lon="-1.52113">
        <ele>13.6</ele>
        <time>2021-10-17T16:01:30Z</time>
      </trkpt>
      <trkpt lat="47.20368" lon="-1.5207">
        <ele>13.6</ele>
        <time>2021-10-17T16:01:38Z</time>
      </trkpt>
      <trkpt lat="47.20356" lon="-1.52065">
        <ele>14.08</ele>
        <time>2021-10-17T16:01:42Z</time>
      </trkpt>
      <trkpt lat="47.20352" lon="-1.52062">
        <ele>13.6</ele>
        <time>2021-10-17T16:01:43Z</time>
      </trkpt>
      <trkpt lat="47.2035" lon="-1.52058">
        <ele>14.08</ele>
        <time>2021-10-17T16:01:44Z</time>
      </trkpt>
      <trkpt lat="47.20351" lon="-1.52052">
        <ele>14.08</ele>
        <time>2021-10-17T16:01:45Z</time>
      </trkpt>
      <trkpt lat="47.20354" lon="-1.52047">
        <ele>14.56</ele>
        <time>2021-10-17T16:01:46Z</time>
      </trkpt>
      <trkpt lat="47.2036" lon="-1.5204">
        <ele>14.56</ele>
        <time>2021-10-17T16:01:47Z</time>
      </trkpt>
      <trkpt lat="47.20368" lon="-1.52028">
        <ele>15.04</ele>
        <time>2021-10-17T16:01:49Z</time>
      </trkpt>
      <trkpt lat="47.20424" lon="-1.51918">
        <ele>16.96</ele>
        <time>2021-10-17T16:01:58Z</time>
      </trkpt>
      <trkpt lat="47.20496" lon="-1.51724">
        <ele>17.44</ele>
        <time>2021-10-17T16:02:12Z</time>
      </trkpt>
      <trkpt lat="47.20499" lon="-1.51695">
        <ele>16.48</ele>
        <time>2021-10-17T16:02:15Z</time>
      </trkpt>
      <trkpt lat="47.20499" lon="-1.51687">
        <ele>16.48</ele>
        <time>2021-10-17T16:02:16Z</time>
      </trkpt>
      <trkpt lat="47.20498" lon="-1.5167">
        <ele>16.48</ele>
        <time>2021-10-17T16:02:18Z</time>
      </trkpt>
      <trkpt lat="47.20499" lon="-1.51661">
        <ele>16.48</ele>
        <time>2021-10-17T16:02:19Z</time>
      </trkpt>
      <trkpt lat="47.20503" lon="-1.51642">
        <ele>16.48</ele>
        <time>2021-10-17T16:02:21Z</time>
      </trkpt>
      <trkpt lat="47.20505" lon="-1.5163">
        <ele>16.48</ele>
        <time>2021-10-17T16:02:22Z</time>
      </trkpt>
      <trkpt lat="47.20519" lon="-1.5147">
        <ele>17.92</ele>
        <time>2021-10-17T16:02:32Z</time>
      </trkpt>
      <trkpt lat="47.20538" lon="-1.51214">
        <ele>19.84</ele>
        <time>2021-10-17T16:02:48Z</time>
      </trkpt>
      <trkpt lat="47.20537" lon="-1.512">
        <ele>19.84</ele>
        <time>2021-10-17T16:02:49Z</time>
      </trkpt>
      <trkpt lat="47.20534" lon="-1.51187">
        <ele>19.84</ele>
        <time>2021-10-17T16:02:50Z</time>
      </trkpt>
      <trkpt lat="47.20531" lon="-1.51174">
        <ele>19.84</ele>
        <time>2021-10-17T16:02:51Z</time>
      </trkpt>
      <trkpt lat="47.20528" lon="-1.51162">
        <ele>19.84</ele>
        <time>2021-10-17T16:02:52Z</time>
      </trkpt>
      <trkpt lat="47.20524" lon="-1.5115">
        <ele>19.84</ele>
        <time>2021-10-17T16:02:53Z</time>
      </trkpt>
      <trkpt lat="47.2052" lon="-1.51139">
        <ele>19.84</ele>
        <time>2021-10-17T16:02:54Z</time>
      </trkpt>
      <trkpt lat="47.20515" lon="-1.51129">
        <ele>19.84</ele>
        <time>2021-10-17T16:02:55Z</time>
      </trkpt>
      <trkpt lat="47.20511" lon="-1.5112">
        <ele>19.84</ele>
        <time>2021-10-17T16:02:56Z</time>
      </trkpt>
      <trkpt lat="47.20494" lon="-1.51093">
        <ele>19.84</ele>
        <time>2021-10-17T16:03:03Z</time>
      </trkpt>
      <trkpt lat="47.20477" lon="-1.51071">
        <ele>20.32</ele>
        <time>2021-10-17T16:03:10Z</time>
      </trkpt>
      <trkpt lat="47.20477" lon="-1.51063">
        <ele>20.32</ele>
        <time>2021-10-17T16:03:11Z</time>
      </trkpt>
      <trkpt lat="47.20479" lon="-1.51058">
        <ele>20.32</ele>
        <time>2021-10-17T16:03:12Z</time>
      </trkpt>
      <trkpt lat="47.20483" lon="-1.51053">
        <ele>20.32</ele>
        <time>2021-10-17T16:03:13Z</time>
      </trkpt>
      <trkpt lat="47.20487" lon="-1.51047">
        <ele>20.32</ele>
        <time>2021-10-17T16:03:14Z</time>
      </trkpt>
      <trkpt lat="47.20492" lon="-1.5104">
        <ele>20.81</ele>
        <time>2021-10-17T16:03:15Z</time>
      </trkpt>
      <trkpt lat="47.20547" lon="-1.50947">
        <ele>22.73</ele>
        <time>2021-10-17T16:03:25Z</time>
      </trkpt>
      <trkpt lat="47.20564" lon="-1.50906">
        <ele>21.77</ele>
        <time>2021-10-17T16:03:30Z</time>
      </trkpt>
      <trkpt lat="47.20568" lon="-1.50895">
        <ele>20.81</ele>
        <time>2021-10-17T16:03:36Z</time>
      </trkpt>
      <trkpt lat="47.2057" lon="-1.50893">
        <ele>20.81</ele>
        <time>2021-10-17T16:03:37Z</time>
      </trkpt>
      <trkpt lat="47.20573" lon="-1.50893">
        <ele>20.81</ele>
        <time>2021-10-17T16:03:38Z</time>
      </trkpt>
      <trkpt lat="47.20578" lon="-1.50896">
        <ele>20.32</ele>
        <time>2021-10-17T16:03:39Z</time>
      </trkpt>
      <trkpt lat="47.20581" lon="-1.50901">
        <ele>20.32</ele>
        <time>2021-10-17T16:03:40Z</time>
      </trkpt>
      <trkpt lat="47.20583" lon="-1.50906">
        <ele>20.32</ele>
        <time>2021-10-17T16:03:41Z</time>
      </trkpt>
      <trkpt lat="47.20585" lon="-1.50914">
        <ele>20.32</ele>
        <time>2021-10-17T16:03:42Z</time>
      </trkpt>
      <trkpt lat="47.20641" lon="-1.5102">
        <ele>18.88</ele>
        <time>2021-10-17T16:03:54Z</time>
      </trkpt>
      <trkpt lat="47.20733" lon="-1.51107">
        <ele>16.48</ele>
        <time>2021-10-17T16:04:08Z</time>
      </trkpt>
      <trkpt lat="47.20738" lon="-1.51109">
        <ele>16.48</ele>
        <time>2021-10-17T16:04:09Z</time>
      </trkpt>
      <trkpt lat="47.20742" lon="-1.51109">
        <ele>16.48</ele>
        <time>2021-10-17T16:04:10Z</time>
      </trkpt>
      <trkpt lat="47.20746" lon="-1.51107">
        <ele>16.48</ele>
        <time>2021-10-17T16:04:11Z</time>
      </trkpt>
      <trkpt lat="47.2075" lon="-1.51103">
        <ele>15.52</ele>
        <time>2021-10-17T16:04:12Z</time>
      </trkpt>
      <trkpt lat="47.20753" lon="-1.51098">
        <ele>15.52</ele>
        <time>2021-10-17T16:04:13Z</time>
      </trkpt>
      <trkpt lat="47.20756" lon="-1.5109">
        <ele>15.52</ele>
        <time>2021-10-17T16:04:14Z</time>
      </trkpt>
      <trkpt lat="47.2076" lon="-1.51082">
        <ele>15.52</ele>
        <time>2021-10-17T16:04:15Z</time>
      </trkpt>
      <trkpt lat="47.20763" lon="-1.51072">
        <ele>15.52</ele>
        <time>2021-10-17T16:04:16Z</time>
      </trkpt>
      <trkpt lat="47.20776" lon="-1.51027">
        <ele>15.04</ele>
        <time>2021-10-17T16:04:20Z</time>
      </trkpt>
      <trkpt lat="47.20778" lon="-1.51014">
        <ele>15.04</ele>
        <time>2021-10-17T16:04:21Z</time>
      </trkpt>
      <trkpt lat="47.20779" lon="-1.51001">
        <ele>15.04</ele>
        <time>2021-10-17T16:04:22Z</time>
      </trkpt>
      <trkpt lat="47.20779" lon="-1.50989">
        <ele>15.04</ele>
        <time>2021-10-17T16:04:23Z</time>
      </trkpt>
      <trkpt lat="47.20779" lon="-1.50976">
        <ele>15.04</ele>
        <time>2021-10-17T16:04:24Z</time>
      </trkpt>
      <trkpt lat="47.20779" lon="-1.50919">
        <ele>16.48</ele>
        <time>2021-10-17T16:04:29Z</time>
      </trkpt>
      <trkpt lat="47.2078" lon="-1.50892">
        <ele>16.96</ele>
        <time>2021-10-17T16:04:32Z</time>
      </trkpt>
      <trkpt lat="47.20783" lon="-1.50884">
        <ele>16.96</ele>
        <time>2021-10-17T16:04:33Z</time>
      </trkpt>
      <trkpt lat="47.20786" lon="-1.50878">
        <ele>16.96</ele>
        <time>2021-10-17T16:04:34Z</time>
      </trkpt>
      <trkpt lat="47.20791" lon="-1.50873">
        <ele>16.96</ele>
        <time>2021-10-17T16:04:35Z</time>
      </trkpt>
      <trkpt lat="47.20796" lon="-1.5087">
        <ele>15.52</ele>
        <time>2021-10-17T16:04:36Z</time>
      </trkpt>
      <trkpt lat="47.20803" lon="-1.50869">
        <ele>15.04</ele>
        <time>2021-10-17T16:04:37Z</time>
      </trkpt>
      <trkpt lat="47.2081" lon="-1.50868">
        <ele>14.56</ele>
        <time>2021-10-17T16:04:38Z</time>
      </trkpt>
      <trkpt lat="47.20818" lon="-1.50868">
        <ele>14.08</ele>
        <time>2021-10-17T16:04:39Z</time>
      </trkpt>
      <trkpt lat="47.20826" lon="-1.5087">
        <ele>13.6</ele>
        <time>2021-10-17T16:04:40Z</time>
      </trkpt>
      <trkpt lat="47.20916" lon="-1.50905">
        <ele>10.23</ele>
        <time>2021-10-17T16:04:53Z</time>
      </trkpt>
      <trkpt lat="47.20921" lon="-1.50906">
        <ele>9.75</ele>
        <time>2021-10-17T16:04:54Z</time>
      </trkpt>
      <trkpt lat="47.20926" lon="-1.50906">
        <ele>9.75</ele>
        <time>2021-10-17T16:04:55Z</time>
      </trkpt>
      <trkpt lat="47.2093" lon="-1.50905">
        <ele>9.27</ele>
        <time>2021-10-17T16:04:56Z</time>
      </trkpt>
      <trkpt lat="47.2094" lon="-1.50886">
        <ele>9.27</ele>
        <time>2021-10-17T16:05:03Z</time>
      </trkpt>
      <trkpt lat="47.20938" lon="-1.50863">
        <ele>10.71</ele>
        <time>2021-10-17T16:05:12Z</time>
      </trkpt>
      <trkpt lat="47.20935" lon="-1.50862">
        <ele>12.15</ele>
        <time>2021-10-17T16:05:42Z</time>
      </trkpt>
      <trkpt lat="47.20934" lon="-1.50861">
        <ele>11.19</ele>
        <time>2021-10-17T16:06:20Z</time>
      </trkpt>
      <trkpt lat="47.20936" lon="-1.50861">
        <ele>11.67</ele>
        <time>2021-10-17T16:06:58Z</time>
      </trkpt>
      <trkpt lat="47.20936" lon="-1.50862">
        <ele>11.67</ele>
        <time>2021-10-17T16:07:26Z</time>
      </trkpt>
      <trkpt lat="47.20936" lon="-1.50862">
        <ele>12.63</ele>
        <time>2021-10-17T16:07:28Z</time>
      </trkpt>
      <trkpt lat="47.20936" lon="-1.50862">
        <ele>11.67</ele>
        <time>2021-10-17T16:07:33Z</time>
      </trkpt>
      <trkpt lat="47.20934" lon="-1.50831">
        <ele>13.12</ele>
        <time>2021-10-17T16:07:45Z</time>
      </trkpt>
      <trkpt lat="47.20933" lon="-1.50758">
        <ele>16</ele>
        <time>2021-10-17T16:07:53Z</time>
      </trkpt>
      <trkpt lat="47.20923" lon="-1.50673">
        <ele>17.44</ele>
        <time>2021-10-17T16:08:03Z</time>
      </trkpt>
      <trkpt lat="47.2092" lon="-1.50671">
        <ele>17.44</ele>
        <time>2021-10-17T16:08:04Z</time>
      </trkpt>
      <trkpt lat="47.20917" lon="-1.50669">
        <ele>17.44</ele>
        <time>2021-10-17T16:08:05Z</time>
      </trkpt>
      <trkpt lat="47.20913" lon="-1.5067">
        <ele>17.92</ele>
        <time>2021-10-17T16:08:06Z</time>
      </trkpt>
      <trkpt lat="47.20909" lon="-1.50671">
        <ele>17.92</ele>
        <time>2021-10-17T16:08:07Z</time>
      </trkpt>
      <trkpt lat="47.2084" lon="-1.50691">
        <ele>17.92</ele>
        <time>2021-10-17T16:08:16Z</time>
      </trkpt>
      <trkpt lat="47.2073" lon="-1.50717">
        <ele>18.4</ele>
        <time>2021-10-17T16:08:30Z</time>
      </trkpt>
      <trkpt lat="47.20634" lon="-1.50743">
        <ele>20.32</ele>
        <time>2021-10-17T16:08:45Z</time>
      </trkpt>
      <trkpt lat="47.20628" lon="-1.50747">
        <ele>20.32</ele>
        <time>2021-10-17T16:08:55Z</time>
      </trkpt>
      <trkpt lat="47.20625" lon="-1.5075">
        <ele>20.32</ele>
        <time>2021-10-17T16:08:56Z</time>
      </trkpt>
      <trkpt lat="47.20623" lon="-1.50755">
        <ele>20.32</ele>
        <time>2021-10-17T16:08:57Z</time>
      </trkpt>
      <trkpt lat="47.20621" lon="-1.50761">
        <ele>20.32</ele>
        <time>2021-10-17T16:08:58Z</time>
      </trkpt>
      <trkpt lat="47.20619" lon="-1.50769">
        <ele>20.32</ele>
        <time>2021-10-17T16:08:59Z</time>
      </trkpt>
      <trkpt lat="47.20584" lon="-1.50873">
        <ele>20.32</ele>
        <time>2021-10-17T16:09:09Z</time>
      </trkpt>
      <trkpt lat="47.20565" lon="-1.50916">
        <ele>21.29</ele>
        <time>2021-10-17T16:09:17Z</time>
      </trkpt>
      <trkpt lat="47.20517" lon="-1.51017">
        <ele>21.29</ele>
        <time>2021-10-17T16:09:29Z</time>
      </trkpt>
      <trkpt lat="47.20512" lon="-1.51022">
        <ele>21.29</ele>
        <time>2021-10-17T16:09:30Z</time>
      </trkpt>
      <trkpt lat="47.20508" lon="-1.51025">
        <ele>21.29</ele>
        <time>2021-10-17T16:09:31Z</time>
      </trkpt>
      <trkpt lat="47.20502" lon="-1.51025">
        <ele>21.29</ele>
        <time>2021-10-17T16:09:32Z</time>
      </trkpt>
      <trkpt lat="47.205" lon="-1.51022">
        <ele>21.29</ele>
        <time>2021-10-17T16:09:33Z</time>
      </trkpt>
      <trkpt lat="47.20496" lon="-1.51019">
        <ele>21.29</ele>
        <time>2021-10-17T16:09:34Z</time>
      </trkpt>
      <trkpt lat="47.20441" lon="-1.50981">
        <ele>20.81</ele>
        <time>2021-10-17T16:09:44Z</time>
      </trkpt>
      <trkpt lat="47.20437" lon="-1.50976">
        <ele>20.81</ele>
        <time>2021-10-17T16:09:46Z</time>
      </trkpt>
      <trkpt lat="47.20437" lon="-1.50973">
        <ele>20.81</ele>
        <time>2021-10-17T16:09:47Z</time>
      </trkpt>
      <trkpt lat="47.20435" lon="-1.50968">
        <ele>20.81</ele>
        <time>2021-10-17T16:10:01Z</time>
      </trkpt>
      <trkpt lat="47.20441" lon="-1.50945">
        <ele>20.81</ele>
        <time>2021-10-17T16:10:17Z</time>
      </trkpt>
      <trkpt lat="47.20442" lon="-1.50944">
        <ele>22.73</ele>
        <time>2021-10-17T16:10:23Z</time>
      </trkpt>
      <trkpt lat="47.20444" lon="-1.50938">
        <ele>21.77</ele>
        <time>2021-10-17T16:10:56Z</time>
      </trkpt>
      <trkpt lat="47.20444" lon="-1.50938">
        <ele>21.77</ele>
        <time>2021-10-17T16:11:28Z</time>
      </trkpt>
      <trkpt lat="47.20444" lon="-1.50939">
        <ele>21.29</ele>
        <time>2021-10-17T16:11:57Z</time>
      </trkpt>
      <trkpt lat="47.20445" lon="-1.50939">
        <ele>22.73</ele>
        <time>2021-10-17T16:12:15Z</time>
      </trkpt>
      <trkpt lat="47.20444" lon="-1.50935">
        <ele>22.25</ele>
        <time>2021-10-17T16:12:54Z</time>
      </trkpt>
      <trkpt lat="47.20444" lon="-1.50933">
        <ele>22.25</ele>
        <time>2021-10-17T16:13:24Z</time>
      </trkpt>
      <trkpt lat="47.20445" lon="-1.50934">
        <ele>21.77</ele>
        <time>2021-10-17T16:14:03Z</time>
      </trkpt>
      <trkpt lat="47.20444" lon="-1.50934">
        <ele>21.77</ele>
        <time>2021-10-17T16:14:43Z</time>
      </trkpt>
      <trkpt lat="47.20445" lon="-1.50935">
        <ele>19.84</ele>
        <time>2021-10-17T16:15:10Z</time>
      </trkpt>
      <trkpt lat="47.20445" lon="-1.50935">
        <ele>21.29</ele>
        <time>2021-10-17T16:15:12Z</time>
      </trkpt>
      <trkpt lat="47.20446" lon="-1.50936">
        <ele>20.81</ele>
        <time>2021-10-17T16:15:39Z</time>
      </trkpt>
      <trkpt lat="47.20446" lon="-1.50933">
        <ele>20.81</ele>
        <time>2021-10-17T16:15:49Z</time>
      </trkpt>
      <trkpt lat="47.20443" lon="-1.50933">
        <ele>19.36</ele>
        <time>2021-10-17T16:16:07Z</time>
      </trkpt>
      <trkpt lat="47.20441" lon="-1.50928">
        <ele>20.32</ele>
        <time>2021-10-17T16:16:37Z</time>
      </trkpt>
      <trkpt lat="47.2044" lon="-1.50927">
        <ele>20.32</ele>
        <time>2021-10-17T16:16:59Z</time>
      </trkpt>
      <trkpt lat="47.20442" lon="-1.50927">
        <ele>20.32</ele>
        <time>2021-10-17T16:17:29Z</time>
      </trkpt>
      <trkpt lat="47.20446" lon="-1.50932">
        <ele>20.32</ele>
        <time>2021-10-17T16:17:53Z</time>
      </trkpt>
      <trkpt lat="47.20445" lon="-1.50933">
        <ele>20.32</ele>
        <time>2021-10-17T16:18:18Z</time>
      </trkpt>
      <trkpt lat="47.20442" lon="-1.50931">
        <ele>20.32</ele>
        <time>2021-10-17T16:18:48Z</time>
      </trkpt>
      <trkpt lat="47.2044" lon="-1.50924">
        <ele>20.32</ele>
        <time>2021-10-17T16:19:19Z</time>
      </trkpt>
      <trkpt lat="47.20445" lon="-1.50928">
        <ele>19.84</ele>
        <time>2021-10-17T16:19:43Z</time>
      </trkpt>
      <trkpt lat="47.20445" lon="-1.50932">
        <ele>19.84</ele>
        <time>2021-10-17T16:20:15Z</time>
      </trkpt>
      <trkpt lat="47.20444" lon="-1.50929">
        <ele>19.84</ele>
        <time>2021-10-17T16:20:50Z</time>
      </trkpt>
      <trkpt lat="47.20445" lon="-1.50928">
        <ele>19.84</ele>
        <time>2021-10-17T16:21:22Z</time>
      </trkpt>
      <trkpt lat="47.20459" lon="-1.50938">
        <ele>18.4</ele>
        <time>2021-10-17T16:21:59Z</time>
      </trkpt>
      <trkpt lat="47.20456" lon="-1.50935">
        <ele>18.4</ele>
        <time>2021-10-17T16:22:30Z</time>
      </trkpt>
      <trkpt lat="47.20467" lon="-1.50941">
        <ele>18.4</ele>
        <time>2021-10-17T16:22:53Z</time>
      </trkpt>
      <trkpt lat="47.20478" lon="-1.50954">
        <ele>18.4</ele>
        <time>2021-10-17T16:23:19Z</time>
      </trkpt>
      <trkpt lat="47.20464" lon="-1.50941">
        <ele>18.4</ele>
        <time>2021-10-17T16:23:45Z</time>
      </trkpt>
      <trkpt lat="47.20468" lon="-1.50944">
        <ele>18.4</ele>
        <time>2021-10-17T16:24:12Z</time>
      </trkpt>
      <trkpt lat="47.20463" lon="-1.50945">
        <ele>18.4</ele>
        <time>2021-10-17T16:24:43Z</time>
      </trkpt>
      <trkpt lat="47.20462" lon="-1.50943">
        <ele>18.88</ele>
        <time>2021-10-17T16:25:16Z</time>
      </trkpt>
      <trkpt lat="47.20458" lon="-1.50938">
        <ele>18.88</ele>
        <time>2021-10-17T16:25:55Z</time>
      </trkpt>
      <trkpt lat="47.20453" lon="-1.50933">
        <ele>18.88</ele>
        <time>2021-10-17T16:26:26Z</time>
      </trkpt>
      <trkpt lat="47.20451" lon="-1.50929">
        <ele>18.88</ele>
        <time>2021-10-17T16:26:57Z</time>
      </trkpt>
      <trkpt lat="47.20448" lon="-1.5092">
        <ele>18.88</ele>
        <time>2021-10-17T16:27:22Z</time>
      </trkpt>
      <trkpt lat="47.20446" lon="-1.50922">
        <ele>18.88</ele>
        <time>2021-10-17T16:27:50Z</time>
      </trkpt>
      <trkpt lat="47.20448" lon="-1.50922">
        <ele>18.88</ele>
        <time>2021-10-17T16:28:15Z</time>
      </trkpt>
      <trkpt lat="47.20447" lon="-1.50923">
        <ele>18.88</ele>
        <time>2021-10-17T16:28:46Z</time>
      </trkpt>
      <trkpt lat="47.20449" lon="-1.50927">
        <ele>18.88</ele>
        <time>2021-10-17T16:29:16Z</time>
      </trkpt>
      <trkpt lat="47.20441" lon="-1.50924">
        <ele>18.88</ele>
        <time>2021-10-17T16:29:42Z</time>
      </trkpt>
      <trkpt lat="47.20442" lon="-1.50925">
        <ele>18.88</ele>
        <time>2021-10-17T16:30:13Z</time>
      </trkpt>
      <trkpt lat="47.20449" lon="-1.50936">
        <ele>18.4</ele>
        <time>2021-10-17T16:30:37Z</time>
      </trkpt>
      <trkpt lat="47.20448" lon="-1.5093">
        <ele>18.4</ele>
        <time>2021-10-17T16:31:02Z</time>
      </trkpt>
      <trkpt lat="47.20438" lon="-1.5092">
        <ele>18.4</ele>
        <time>2021-10-17T16:31:30Z</time>
      </trkpt>
      <trkpt lat="47.20441" lon="-1.50912">
        <ele>18.4</ele>
        <time>2021-10-17T16:31:55Z</time>
      </trkpt>
      <trkpt lat="47.20444" lon="-1.50915">
        <ele>18.4</ele>
        <time>2021-10-17T16:32:21Z</time>
      </trkpt>
      <trkpt lat="47.20447" lon="-1.5093">
        <ele>18.4</ele>
        <time>2021-10-17T16:32:47Z</time>
      </trkpt>
      <trkpt lat="47.2045" lon="-1.50944">
        <ele>18.4</ele>
        <time>2021-10-17T16:33:09Z</time>
      </trkpt>
      <trkpt lat="47.20444" lon="-1.5093">
        <ele>18.4</ele>
        <time>2021-10-17T16:33:38Z</time>
      </trkpt>
      <trkpt lat="47.20444" lon="-1.50924">
        <ele>18.4</ele>
        <time>2021-10-17T16:34:06Z</time>
      </trkpt>
      <trkpt lat="47.20445" lon="-1.50918">
        <ele>18.4</ele>
        <time>2021-10-17T16:34:36Z</time>
      </trkpt>
      <trkpt lat="47.20441" lon="-1.50916">
        <ele>18.4</ele>
        <time>2021-10-17T16:35:05Z</time>
      </trkpt>
      <trkpt lat="47.20441" lon="-1.5092">
        <ele>18.4</ele>
        <time>2021-10-17T16:35:35Z</time>
      </trkpt>
      <trkpt lat="47.20446" lon="-1.50924">
        <ele>17.92</ele>
        <time>2021-10-17T16:35:59Z</time>
      </trkpt>
      <trkpt lat="47.20478" lon="-1.50925">
        <ele>17.92</ele>
        <time>2021-10-17T16:36:24Z</time>
      </trkpt>
      <trkpt lat="47.20471" lon="-1.50938">
        <ele>17.92</ele>
        <time>2021-10-17T16:36:45Z</time>
      </trkpt>
      <trkpt lat="47.20452" lon="-1.50938">
        <ele>17.92</ele>
        <time>2021-10-17T16:37:12Z</time>
      </trkpt>
      <trkpt lat="47.20456" lon="-1.50939">
        <ele>17.92</ele>
        <time>2021-10-17T16:37:40Z</time>
      </trkpt>
      <trkpt lat="47.20452" lon="-1.50937">
        <ele>17.92</ele>
        <time>2021-10-17T16:38:06Z</time>
      </trkpt>
      <trkpt lat="47.20448" lon="-1.50939">
        <ele>18.88</ele>
        <time>2021-10-17T16:38:33Z</time>
      </trkpt>
      <trkpt lat="47.2044" lon="-1.50928">
        <ele>18.88</ele>
        <time>2021-10-17T16:39:00Z</time>
      </trkpt>
      <trkpt lat="47.20437" lon="-1.50928">
        <ele>18.4</ele>
        <time>2021-10-17T16:39:26Z</time>
      </trkpt>
      <trkpt lat="47.20442" lon="-1.50928">
        <ele>18.4</ele>
        <time>2021-10-17T16:39:52Z</time>
      </trkpt>
      <trkpt lat="47.20443" lon="-1.50931">
        <ele>18.4</ele>
        <time>2021-10-17T16:40:21Z</time>
      </trkpt>
      <trkpt lat="47.20433" lon="-1.50933">
        <ele>18.4</ele>
        <time>2021-10-17T16:40:44Z</time>
      </trkpt>
      <trkpt lat="47.20433" lon="-1.50934">
        <ele>18.4</ele>
        <time>2021-10-17T16:41:14Z</time>
      </trkpt>
      <trkpt lat="47.20454" lon="-1.50953">
        <ele>18.4</ele>
        <time>2021-10-17T16:41:35Z</time>
      </trkpt>
      <trkpt lat="47.20449" lon="-1.50935">
        <ele>18.4</ele>
        <time>2021-10-17T16:42:01Z</time>
      </trkpt>
      <trkpt lat="47.20458" lon="-1.50925">
        <ele>18.4</ele>
        <time>2021-10-17T16:42:27Z</time>
      </trkpt>
      <trkpt lat="47.20457" lon="-1.50931">
        <ele>18.4</ele>
        <time>2021-10-17T16:42:52Z</time>
      </trkpt>
      <trkpt lat="47.20451" lon="-1.50929">
        <ele>18.88</ele>
        <time>2021-10-17T16:43:21Z</time>
      </trkpt>
      <trkpt lat="47.20449" lon="-1.5093">
        <ele>18.88</ele>
        <time>2021-10-17T16:43:44Z</time>
      </trkpt>
      <trkpt lat="47.20448" lon="-1.50933">
        <ele>18.88</ele>
        <time>2021-10-17T16:44:13Z</time>
      </trkpt>
      <trkpt lat="47.20446" lon="-1.50934">
        <ele>18.88</ele>
        <time>2021-10-17T16:44:48Z</time>
      </trkpt>
      <trkpt lat="47.20448" lon="-1.50937">
        <ele>19.36</ele>
        <time>2021-10-17T16:45:16Z</time>
      </trkpt>
      <trkpt lat="47.20447" lon="-1.50939">
        <ele>19.36</ele>
        <time>2021-10-17T16:45:44Z</time>
      </trkpt>
      <trkpt lat="47.20439" lon="-1.50934">
        <ele>19.36</ele>
        <time>2021-10-17T16:46:11Z</time>
      </trkpt>
      <trkpt lat="47.20441" lon="-1.50931">
        <ele>19.84</ele>
        <time>2021-10-17T16:46:44Z</time>
      </trkpt>
      <trkpt lat="47.20439" lon="-1.50932">
        <ele>19.84</ele>
        <time>2021-10-17T16:47:19Z</time>
      </trkpt>
      <trkpt lat="47.20427" lon="-1.50925">
        <ele>19.84</ele>
        <time>2021-10-17T16:47:53Z</time>
      </trkpt>
      <trkpt lat="47.20442" lon="-1.5093">
        <ele>19.84</ele>
        <time>2021-10-17T16:48:25Z</time>
      </trkpt>
      <trkpt lat="47.20436" lon="-1.50926">
        <ele>19.84</ele>
        <time>2021-10-17T16:48:50Z</time>
      </trkpt>
      <trkpt lat="47.20428" lon="-1.50927">
        <ele>19.84</ele>
        <time>2021-10-17T16:49:13Z</time>
      </trkpt>
      <trkpt lat="47.20433" lon="-1.50929">
        <ele>19.84</ele>
        <time>2021-10-17T16:49:20Z</time>
      </trkpt>
      <trkpt lat="47.20455" lon="-1.50939">
        <ele>20.81</ele>
        <time>2021-10-17T16:49:42Z</time>
      </trkpt>
    </trkseg>
  </trk>
</gpx>